[[{"header":{"parameterUnit":"m.s-1","parameterCategory":1,"la1":30.6,"la2":29.2853,"lo1":-89.7004,"lo2":-87.6739,"dy":0.0162,"dx":0.0183,"nx":112,"ny":82,"refTime":"2023-03-15T12:00:00:Z","depth":0,"parameterNumber":2,"parameterNumberName":"U-component_of_WINDS"},"data":[0.0,0.0,0.0,0.0,0.0,0.0,0.0,0.0,0.0,0.0,0.0,0.0,0.0,0.0,0.0,0.0,0.0,0.0,0.0,0.0,0.0,0.0,0.0,0.0,0.0,0.0,0.0,0.0,0.0,0.0,0.0,0.0,0.0,0.0,0.0,0.0,0.0,0.0,0.0,0.0,0.0,0.0,0.0,0.0,0.0,0.0,0.0,0.0,0.0,0.0,0.0,0.0,0.0,0.0,0.0,0.0,0.0,0.0,0.0,0.0,0.0,0.0,0.0,0.0,0.0,0.0,0.0,0.0,0.0,0.0,0.0,0.0,0.0,0.0,0.0,0.0,0.0,0.0,0.0,0.0,0.0,0.0,0.0,0.0,0.0,0.0,0.0,0.0,0.0,0.0,0.0,4.7802,4.9102,4.9842,4.9825,4.9077,4.8356,4.7704,0.0,0.0,0.0,0.0,0.0,0.0,0.0,0.0,0.0,0.0,0.0,0.0,0.0,0.0,0.0,0.0,0.0,0.0,0.0,0.0,0.0,0.0,0.0,0.0,0.0,0.0,0.0,0.0,0.0,0.0,0.0,0.0,0.0,0.0,0.0,0.0,0.0,0.0,0.0,0.0,0.0,0.0,0.0,0.0,0.0,0.0,0.0,0.0,0.0,0.0,0.0,0.0,0.0,0.0,0.0,0.0,0.0,0.0,0.0,0.0,0.0,0.0,0.0,0.0,0.0,0.0,0.0,0.0,0.0,0.0,0.0,0.0,0.0,0.0,0.0,0.0,0.0,0.0,0.0,0.0,0.0,0.0,0.0,0.0,0.0,0.0,0.0,0.0,0.0,0.0,0.0,0.0,0.0,0.0,0.0,0.0,0.0,0.0,0.0,0.0,0.0,0.0,0.0,0.0,4.7144,4.9093,4.9501,4.9579,4.942,4.9254,4.8687,4.7519,0.0,0.0,0.0,0.0,0.0,0.0,0.0,0.0,0.0,0.0,0.0,0.0,0.0,0.0,0.0,0.0,0.0,0.0,0.0,0.0,0.0,0.0,0.0,0.0,0.0,0.0,0.0,0.0,0.0,0.0,0.0,0.0,0.0,0.0,0.0,0.0,0.0,0.0,0.0,0.0,0.0,0.0,0.0,0.0,0.0,0.0,0.0,0.0,0.0,0.0,0.0,0.0,0.0,0.0,0.0,0.0,0.0,0.0,0.0,0.0,0.0,0.0,0.0,0.0,0.0,0.0,0.0,0.0,0.0,0.0,0.0,0.0,0.0,0.0,0.0,0.0,0.0,0.0,0.0,0.0,0.0,0.0,0.0,0.0,0.0,0.0,0.0,0.0,0.0,0.0,0.0,0.0,0.0,0.0,0.0,0.0,0.0,0.0,0.0,0.0,0.0,0.0,0.0,4.7143,4.8258,4.985,5.037,5.0594,5.0503,5.0131,4.9465,4.8492,4.7273,0.0,0.0,0.0,0.0,0.0,0.0,0.0,0.0,0.0,0.0,0.0,0.0,0.0,0.0,0.0,0.0,0.0,0.0,0.0,0.0,0.0,0.0,0.0,0.0,0.0,0.0,0.0,0.0,0.0,0.0,0.0,0.0,0.0,0.0,0.0,0.0,0.0,0.0,0.0,0.0,0.0,0.0,0.0,0.0,0.0,0.0,0.0,0.0,0.0,0.0,0.0,0.0,0.0,0.0,0.0,0.0,0.0,0.0,0.0,0.0,0.0,0.0,0.0,0.0,0.0,0.0,0.0,0.0,0.0,0.0,0.0,0.0,0.0,0.0,0.0,0.0,0.0,0.0,0.0,0.0,0.0,0.0,0.0,0.0,0.0,0.0,0.0,0.0,0.0,0.0,0.0,0.0,0.0,0.0,0.0,0.0,0.0,0.0,0.0,0.0,0.0,0.0,4.8692,4.936,5.0471,5.1155,5.148,5.1424,5.076,5.0029,4.9346,4.8265,0.0,0.0,0.0,0.0,0.0,0.0,0.0,0.0,0.0,0.0,0.0,0.0,0.0,0.0,0.0,0.0,0.0,0.0,0.0,0.0,0.0,0.0,0.0,0.0,0.0,0.0,0.0,0.0,0.0,0.0,0.0,0.0,0.0,0.0,0.0,0.0,0.0,0.0,0.0,0.0,0.0,0.0,0.0,0.0,0.0,0.0,0.0,0.0,0.0,0.0,0.0,0.0,0.0,0.0,0.0,0.0,0.0,0.0,0.0,0.0,0.0,0.0,0.0,0.0,0.0,0.0,0.0,0.0,0.0,0.0,0.0,0.0,0.0,0.0,0.0,0.0,0.0,0.0,0.0,0.0,0.0,0.0,0.0,0.0,0.0,0.0,0.0,0.0,0.0,0.0,0.0,0.0,0.0,0.0,0.0,0.0,0.0,0.0,0.0,0.0,0.0,0.0,4.9539,5.0485,5.1094,5.1355,5.1424,5.1256,5.0538,4.9898,4.9328,4.8567,0.0,0.0,0.0,0.0,0.0,0.0,0.0,0.0,0.0,0.0,0.0,0.0,0.0,0.0,0.0,0.0,0.0,0.0,0.0,0.0,0.0,0.0,0.0,0.0,0.0,0.0,0.0,0.0,0.0,0.0,0.0,0.0,0.0,0.0,0.0,0.0,0.0,0.0,0.0,0.0,0.0,0.0,0.0,0.0,0.0,0.0,0.0,0.0,0.0,0.0,0.0,0.0,0.0,0.0,0.0,0.0,0.0,0.0,0.0,0.0,0.0,0.0,0.0,0.0,0.0,0.0,0.0,0.0,0.0,0.0,0.0,0.0,0.0,0.0,0.0,0.0,0.0,0.0,0.0,0.0,0.0,0.0,0.0,0.0,0.0,0.0,0.0,0.0,0.0,0.0,0.0,0.0,0.0,0.0,0.0,0.0,0.0,0.0,0.0,0.0,0.0,0.0,4.9079,4.9585,0.0,5.1275,5.1237,5.1029,5.0978,5.0403,4.9022,0.0,0.0,0.0,0.0,0.0,0.0,0.0,0.0,0.0,0.0,0.0,0.0,0.0,0.0,0.0,0.0,0.0,0.0,0.0,0.0,0.0,0.0,0.0,0.0,0.0,0.0,0.0,0.0,0.0,0.0,0.0,0.0,0.0,0.0,0.0,0.0,0.0,0.0,0.0,0.0,0.0,0.0,0.0,0.0,0.0,0.0,0.0,0.0,0.0,0.0,0.0,0.0,0.0,0.0,0.0,0.0,0.0,0.0,0.0,0.0,0.0,0.0,0.0,0.0,0.0,0.0,0.0,0.0,0.0,0.0,0.0,0.0,0.0,0.0,0.0,0.0,0.0,0.0,0.0,0.0,0.0,0.0,0.0,0.0,0.0,0.0,0.0,0.0,0.0,0.0,0.0,0.0,0.0,0.0,0.0,0.0,0.0,0.0,0.0,0.0,0.0,0.0,4.9247,4.9316,4.9657,0.0,5.1181,5.1105,5.082,5.0822,5.0232,4.873,0.0,0.0,0.0,0.0,0.0,0.0,0.0,0.0,0.0,0.0,0.0,0.0,0.0,0.0,0.0,0.0,0.0,0.0,0.0,0.0,0.0,0.0,0.0,0.0,0.0,0.0,0.0,0.0,0.0,0.0,0.0,0.0,0.0,0.0,0.0,0.0,0.0,0.0,0.0,0.0,0.0,0.0,0.0,0.0,0.0,0.0,0.0,0.0,0.0,0.0,0.0,0.0,0.0,0.0,0.0,0.0,0.0,0.0,0.0,0.0,0.0,0.0,0.0,0.0,0.0,0.0,0.0,0.0,0.0,0.0,0.0,0.0,0.0,0.0,0.0,0.0,0.0,0.0,0.0,0.0,0.0,0.0,0.0,0.0,0.0,0.0,0.0,0.0,0.0,0.0,0.0,0.0,0.0,0.0,0.0,0.0,0.0,0.0,0.0,0.0,0.0,0.0,4.9263,5.0403,5.1092,5.0915,5.1086,5.1048,5.0628,4.9949,4.9213,0.0,0.0,0.0,0.0,0.0,0.0,0.0,0.0,0.0,0.0,0.0,0.0,0.0,0.0,0.0,0.0,0.0,0.0,0.0,0.0,0.0,0.0,0.0,0.0,0.0,0.0,0.0,0.0,0.0,0.0,0.0,0.0,0.0,0.0,0.0,0.0,0.0,0.0,0.0,0.0,0.0,0.0,0.0,0.0,0.0,0.0,0.0,0.0,0.0,0.0,0.0,0.0,0.0,0.0,0.0,0.0,0.0,0.0,0.0,0.0,0.0,0.0,0.0,0.0,0.0,0.0,0.0,0.0,0.0,0.0,0.0,0.0,0.0,0.0,0.0,0.0,0.0,0.0,0.0,0.0,0.0,0.0,0.0,0.0,0.0,0.0,0.0,0.0,0.0,0.0,0.0,0.0,0.0,0.0,0.0,0.0,0.0,0.0,0.0,0.0,0.0,0.0,0.0,4.9001,4.9488,5.0013,5.0602,5.0743,5.0685,5.0414,5.032,4.97,4.8318,0.0,0.0,0.0,0.0,0.0,0.0,0.0,0.0,0.0,0.0,0.0,0.0,0.0,0.0,0.0,0.0,0.0,0.0,0.0,0.0,0.0,0.0,0.0,0.0,0.0,0.0,0.0,0.0,0.0,0.0,0.0,0.0,0.0,0.0,0.0,0.0,0.0,0.0,0.0,0.0,0.0,0.0,0.0,0.0,0.0,0.0,0.0,0.0,0.0,0.0,0.0,0.0,0.0,0.0,0.0,0.0,0.0,0.0,0.0,0.0,0.0,0.0,0.0,0.0,0.0,0.0,0.0,0.0,0.0,0.0,0.0,0.0,0.0,0.0,0.0,0.0,0.0,0.0,0.0,0.0,0.0,0.0,0.0,0.0,0.0,0.0,0.0,0.0,0.0,0.0,0.0,0.0,0.0,0.0,0.0,0.0,0.0,0.0,0.0,0.0,0.0,0.0,4.8675,4.912,4.9575,5.0136,5.0187,5.0148,5.003,5.0129,4.9691,4.8491,0.0,0.0,0.0,0.0,0.0,0.0,0.0,0.0,0.0,0.0,0.0,0.0,0.0,0.0,0.0,0.0,0.0,0.0,0.0,0.0,0.0,0.0,0.0,0.0,0.0,0.0,0.0,0.0,0.0,0.0,0.0,0.0,0.0,0.0,0.0,0.0,0.0,0.0,0.0,0.0,0.0,0.0,0.0,0.0,0.0,0.0,0.0,0.0,0.0,0.0,0.0,0.0,0.0,0.0,0.0,0.0,0.0,0.0,0.0,0.0,0.0,0.0,0.0,0.0,0.0,0.0,0.0,0.0,0.0,0.0,0.0,0.0,0.0,0.0,0.0,0.0,0.0,0.0,0.0,0.0,0.0,0.0,0.0,0.0,0.0,0.0,0.0,0.0,0.0,0.0,0.0,0.0,0.0,0.0,0.0,0.0,0.0,0.0,0.0,0.0,0.0,0.0,4.8278,4.9059,4.9553,4.9593,4.9593,4.9593,4.9593,4.9593,4.9359,4.8862,0.0,0.0,0.0,0.0,0.0,0.0,0.0,0.0,0.0,0.0,0.0,0.0,0.0,0.0,0.0,0.0,0.0,0.0,0.0,0.0,0.0,0.0,0.0,0.0,0.0,0.0,0.0,0.0,0.0,0.0,0.0,0.0,0.0,0.0,0.0,0.0,0.0,0.0,0.0,0.0,0.0,0.0,0.0,0.0,0.0,0.0,0.0,0.0,0.0,0.0,0.0,0.0,0.0,0.0,0.0,0.0,0.0,0.0,0.0,0.0,4.5498,0.0,0.0,0.0,0.0,0.0,0.0,0.0,0.0,0.0,0.0,0.0,0.0,0.0,0.0,0.0,0.0,0.0,0.0,0.0,0.0,0.0,0.0,0.0,0.0,0.0,0.0,0.0,0.0,0.0,0.0,0.0,0.0,0.0,0.0,0.0,0.0,0.0,0.0,0.0,0.0,0.0,4.7674,4.8528,4.92,4.9372,4.934,4.934,4.934,4.934,4.911,4.8462,0.0,0.0,0.0,0.0,0.0,0.0,0.0,0.0,0.0,0.0,0.0,0.0,0.0,0.0,0.0,0.0,0.0,0.0,0.0,0.0,0.0,0.0,0.0,0.0,0.0,0.0,0.0,0.0,0.0,0.0,0.0,0.0,0.0,0.0,0.0,0.0,0.0,0.0,0.0,0.0,0.0,0.0,0.0,0.0,0.0,0.0,0.0,0.0,0.0,0.0,0.0,0.0,0.0,0.0,0.0,0.0,0.0,0.0,0.0,0.0,0.0,4.6597,0.0,0.0,0.0,0.0,0.0,0.0,0.0,0.0,0.0,0.0,0.0,0.0,0.0,0.0,0.0,0.0,0.0,0.0,0.0,0.0,0.0,0.0,0.0,0.0,0.0,0.0,0.0,0.0,0.0,0.0,0.0,0.0,0.0,0.0,0.0,0.0,0.0,0.0,0.0,0.0,4.7817,4.8395,4.8841,4.8934,4.8954,4.9026,4.9128,4.9149,4.9034,4.8792,4.8235,0.0,0.0,0.0,0.0,0.0,0.0,0.0,0.0,0.0,0.0,0.0,0.0,0.0,0.0,0.0,0.0,0.0,0.0,0.0,0.0,0.0,0.0,0.0,0.0,0.0,0.0,0.0,0.0,0.0,0.0,0.0,0.0,0.0,0.0,0.0,0.0,0.0,0.0,0.0,0.0,0.0,0.0,0.0,0.0,0.0,0.0,0.0,0.0,0.0,0.0,0.0,0.0,0.0,4.555,4.6303,4.6956,4.6956,4.6839,4.6661,4.7002,4.7125,4.7131,0.0,0.0,0.0,0.0,0.0,0.0,0.0,0.0,0.0,0.0,0.0,0.0,0.0,0.0,0.0,0.0,0.0,0.0,0.0,0.0,0.0,0.0,0.0,0.0,0.0,4.7477,4.7774,0.0,0.0,0.0,0.0,0.0,0.0,0.0,0.0,0.0,0.0,0.0,0.0,4.8226,4.8594,4.883,4.8953,4.8974,4.9067,4.9285,4.9182,4.9171,4.9376,4.8649,4.8233,0.0,0.0,0.0,0.0,0.0,0.0,0.0,0.0,0.0,0.0,0.0,0.0,0.0,0.0,0.0,0.0,0.0,0.0,0.0,0.0,0.0,0.0,0.0,0.0,0.0,0.0,0.0,0.0,0.0,0.0,0.0,0.0,4.0293,4.0982,0.0,0.0,0.0,0.0,0.0,0.0,0.0,0.0,0.0,0.0,0.0,0.0,0.0,4.4206,4.5071,4.5049,4.5078,4.5199,4.5351,4.5763,4.6404,4.6404,4.6692,4.7212,4.7254,0.0,4.6908,4.6717,0.0,0.0,0.0,0.0,0.0,0.0,0.0,0.0,0.0,0.0,0.0,0.0,0.0,0.0,0.0,0.0,0.0,0.0,0.0,0.0,0.0,0.0,4.843,4.812,4.813,4.8458,0.0,4.8683,4.7827,4.7884,0.0,0.0,0.0,0.0,0.0,0.0,0.0,0.0,4.845,4.9138,4.9795,5.0359,5.042,5.0442,5.0463,4.9939,4.9622,4.9664,4.8573,4.7962,4.7962,4.7559,0.0,0.0,0.0,0.0,0.0,0.0,0.0,0.0,0.0,0.0,0.0,0.0,0.0,0.0,0.0,0.0,0.0,0.0,0.0,0.0,0.0,0.0,0.0,0.0,0.0,0.0,0.0,0.0,0.0,4.1279,4.1715,4.1657,4.1947,4.2233,0.0,0.0,0.0,0.0,0.0,0.0,0.0,0.0,0.0,4.467,4.4442,4.4632,4.5263,4.5189,4.5568,4.6411,4.6411,4.698,4.7967,4.7813,4.7926,4.8194,4.8194,4.8189,4.8137,4.7272,4.7093,4.7314,0.0,0.0,0.0,0.0,4.7662,4.801,4.8077,4.8279,0.0,0.0,0.0,0.0,0.0,0.0,0.0,0.0,0.0,0.0,0.0,0.0,0.0,4.8979,4.9022,4.9305,4.964,4.935,4.8975,0.0,4.8766,4.8468,4.8048,0.0,0.0,0.0,0.0,0.0,4.9189,4.9835,5.0359,5.0667,5.0697,5.0697,5.0697,5.0103,4.9703,4.9703,4.881,4.8296,4.8296,4.7949,4.7578,0.0,0.0,0.0,0.0,0.0,0.0,0.0,0.0,0.0,0.0,0.0,0.0,0.0,0.0,0.0,0.0,0.0,0.0,0.0,0.0,0.0,0.0,0.0,0.0,0.0,0.0,0.0,0.0,4.2382,4.2818,4.2382,4.2876,4.2997,0.0,0.0,0.0,0.0,0.0,0.0,4.4971,4.4697,4.4714,4.5124,4.5132,4.5301,4.5735,4.5913,4.6615,4.7818,4.7818,4.8349,4.9277,4.9035,4.8899,4.8899,4.883,4.8869,4.8954,4.8136,4.7851,4.7906,4.778,4.765,4.7565,4.772,4.8253,4.888,4.8664,4.8986,4.9388,4.8646,0.0,4.8162,4.7758,0.0,0.0,0.0,0.0,4.9522,4.9273,4.9792,5.0218,4.9644,4.9689,4.9859,4.9967,5.0087,5.0109,0.0,4.9854,4.9601,4.8726,0.0,0.0,0.0,0.0,4.9826,5.0165,5.0636,5.1005,5.119,5.1221,5.1221,5.1221,5.042,4.998,4.998,4.9097,4.8583,4.8583,4.8326,4.8077,4.7891,0.0,0.0,0.0,0.0,0.0,0.0,0.0,0.0,0.0,0.0,0.0,0.0,0.0,0.0,0.0,0.0,0.0,0.0,0.0,0.0,0.0,0.0,0.0,0.0,0.0,0.0,0.0,0.0,0.0,4.2984,4.3544,0.0,0.0,0.0,0.0,4.3711,4.4061,4.4456,4.495,4.4549,4.4715,4.554,4.6189,4.6897,4.7733,4.8379,4.8872,4.9187,4.9187,4.9217,4.9277,4.9035,4.8899,4.8899,4.8617,4.8525,4.8594,4.9224,4.9334,4.9145,4.9297,4.9108,4.88,4.9429,4.9445,4.9292,5.0181,4.9948,4.9389,4.9706,4.9491,4.9145,4.9084,4.9498,0.0,0.0,4.9797,5.0349,4.9508,4.9471,4.9741,5.0078,4.9885,4.9877,5.0887,5.1022,5.0727,0.0,5.0105,5.0066,4.9362,0.0,4.9641,4.961,4.9651,5.0143,5.1436,5.1621,5.1898,5.2522,5.2583,5.2583,5.2583,5.1405,5.0636,5.0636,4.9374,4.8583,4.8583,4.8811,4.8624,4.7922,4.7911,0.0,0.0,0.0,0.0,0.0,0.0,0.0,0.0,0.0,0.0,0.0,0.0,0.0,0.0,0.0,0.0,0.0,0.0,0.0,0.0,0.0,0.0,0.0,0.0,0.0,0.0,0.0,0.0,4.3631,4.4204,0.0,4.3398,4.3803,4.4274,4.4707,4.4675,4.5237,4.6528,4.6166,4.6459,4.7688,4.7768,4.814,4.8783,4.9044,4.9396,4.986,4.986,5.0122,5.0511,5.0256,5.0046,4.9911,4.9817,4.9698,4.9551,5.0005,4.9699,4.9029,4.9273,4.9277,4.9161,4.9403,4.9529,4.9678,4.9744,4.9747,4.968,4.9546,4.9418,4.9251,4.9251,4.9398,4.962,4.9808,5.0057,5.0382,5.0513,5.058,5.0663,5.081,5.0737,5.0723,5.1109,5.1166,5.1065,5.0801,5.122,5.1281,5.0362,5.0632,5.082,5.0389,5.0697,5.1159,5.1652,5.2082,5.2452,5.2676,5.2329,5.2236,5.2645,5.1467,5.0882,5.1313,5.0051,4.9312,4.9312,4.8944,4.8615,4.8368,4.7957,4.7338,0.0,0.0,0.0,0.0,0.0,0.0,0.0,0.0,0.0,0.0,0.0,0.0,0.0,0.0,0.0,0.0,0.0,0.0,0.0,0.0,0.0,0.0,0.0,0.0,0.0,0.0,4.4298,4.4298,4.4872,4.4988,4.4378,4.4771,4.5383,4.6028,4.6018,4.6605,4.8051,4.7626,4.7854,4.8869,4.9008,4.9337,4.9821,4.992,5.0272,5.0877,5.0877,5.1116,5.1535,5.1482,5.1361,5.1125,5.1052,5.0828,5.0607,5.0906,5.057,4.9911,4.9776,4.9759,4.9798,4.9798,5.0027,5.0321,5.0027,5.0117,5.0299,5.0027,4.9935,4.9935,4.9935,4.9935,5.0002,5.0428,5.0548,5.0637,5.1086,5.1206,5.1206,5.1206,5.1355,5.1498,5.1236,5.1558,5.1851,5.1712,5.1862,5.1812,5.0936,5.123,5.144,5.1076,5.1405,5.1775,5.2021,5.2452,5.2676,5.2676,5.2298,5.2236,5.2645,5.1682,5.1221,5.1682,5.0636,4.9949,4.9703,4.922,4.885,4.8583,4.7958,4.7433,4.711,0.0,0.0,0.0,0.0,0.0,0.0,0.0,0.0,0.0,0.0,0.0,0.0,0.0,0.0,0.0,0.0,0.0,0.0,0.0,0.0,0.0,0.0,0.0,4.4037,4.4552,4.4959,4.4959,4.5569,4.5714,4.5046,4.633,4.734,4.7582,4.7913,4.8479,4.9262,4.8807,4.867,4.8974,4.9812,5.0491,5.0959,5.1171,5.1588,5.2217,5.2217,5.2217,5.2247,5.2638,5.2665,5.2392,5.2143,5.1866,5.1639,5.1887,5.1988,5.1896,5.0934,5.0674,5.0858,5.0882,5.1024,5.1265,5.1265,5.1265,5.1265,5.1265,5.1265,5.1265,5.1265,5.1265,5.1265,5.1265,5.1265,5.1265,5.1265,5.1265,5.1265,5.1265,5.1744,5.2043,5.1362,5.2252,5.3067,5.2683,5.2091,5.1544,5.1167,5.1233,5.1425,5.1708,5.1722,0.0,5.2614,5.2676,5.2676,5.2676,5.2676,5.2676,5.2676,5.2113,5.1744,5.1744,5.1097,5.042,4.9795,4.9733,4.9374,4.8645,4.7968,4.7619,4.7619,0.0,0.0,0.0,0.0,0.0,0.0,0.0,0.0,0.0,0.0,0.0,0.0,0.0,0.0,0.0,0.0,0.0,0.0,0.0,0.0,0.0,0.0,4.522,4.4727,4.522,4.5779,4.6221,4.6853,4.7224,4.7021,4.7387,4.773,4.7932,4.8085,4.8546,4.9413,4.9326,4.9763,5.0977,5.1256,5.1739,5.2563,5.2611,5.2725,5.2929,5.2929,5.2929,5.2905,5.3041,5.293,5.2689,5.2615,5.2342,5.1917,5.1963,5.1891,5.1736,5.1836,5.1911,5.1984,5.2175,5.2418,5.2636,5.2636,5.2636,5.2636,5.2636,5.2636,5.2636,5.2636,5.2636,5.2636,5.2636,5.2636,5.2636,5.2636,5.2636,5.2587,5.2394,5.2494,5.2535,5.2161,5.2496,5.2876,5.277,5.2731,5.2839,5.3061,5.2777,5.2566,5.2612,5.2345,0.0,5.2397,5.2586,5.2676,5.2676,5.2676,5.2676,5.2676,5.2544,5.2452,0.0,5.1805,5.1344,5.1159,5.0667,5.0082,4.9404,4.8696,4.8112,0.0,0.0,0.0,0.0,0.0,0.0,0.0,0.0,0.0,0.0,0.0,0.0,0.0,0.0,0.0,0.0,0.0,0.0,0.0,0.0,0.0,0.0,4.6007,4.6402,4.5997,4.6378,4.6847,4.7172,4.755,4.7921,4.8159,4.8444,4.8801,4.9278,4.926,4.9701,5.0653,5.0322,5.0718,5.2023,5.2053,5.2447,5.3273,5.3005,5.3054,5.3446,5.3446,5.3495,5.3623,5.3917,5.3893,0.0,5.3644,5.3389,5.2956,5.2956,5.2807,0.0,0.0,0.0,0.0,0.0,5.2739,5.2886,5.2979,5.3028,5.3028,5.315,5.3198,5.3174,5.3052,5.3101,5.3174,5.3052,5.3028,5.3028,5.3028,5.293,5.2837,5.2665,5.2847,5.2966,5.265,5.3134,5.358,5.3436,0.0,0.0,5.4405,5.3555,5.2977,5.3314,5.2938,5.2665,5.2939,5.3208,5.3369,5.3369,5.3469,5.3537,5.3537,5.326,0.0,0.0,0.0,5.199,5.1713,5.1067,0.0,0.0,0.0,4.9134,0.0,0.0,0.0,0.0,4.8224,4.8296,0.0,0.0,0.0,0.0,0.0,0.0,0.0,0.0,0.0,0.0,0.0,0.0,0.0,0.0,0.0,0.0,4.6951,4.7592,4.7678,4.7951,4.8088,4.7943,4.8025,4.8315,4.888,4.9504,5.0182,5.0937,5.0871,5.1258,5.2263,0.0,0.0,0.0,0.0,5.2889,5.3596,5.3011,5.3166,5.4094,5.4094,5.422,5.4451,5.5073,5.524,5.501,5.5036,5.4878,5.4562,5.4562,5.441,5.3981,5.2442,5.1969,5.2247,5.2473,5.2573,5.2648,5.2897,0.0,0.0,5.3267,5.331,5.3291,5.3045,5.3144,5.3291,5.307,5.2996,5.2971,5.302,5.2822,5.2628,5.2603,5.3015,5.3356,5.299,5.3866,5.465,5.4331,5.4765,5.5179,5.5179,5.3854,5.3019,5.3832,5.3449,5.326,5.3782,5.4081,5.4246,5.4246,0.0,0.0,5.466,5.4191,5.3876,5.3814,5.326,5.2614,5.1959,5.1344,5.0974,5.082,5.0594,5.0424,5.0289,5.0048,4.9968,5.0029,4.9273,4.9547,0.0,0.0,0.0,0.0,0.0,0.0,0.0,0.0,0.0,0.0,0.0,0.0,0.0,0.0,0.0,4.7391,4.8121,4.8783,4.9273,4.9839,4.9861,4.88,4.9318,4.9889,5.0348,5.0723,5.0889,5.0854,5.1211,5.1523,5.174,5.175,5.218,5.3183,5.3213,5.3773,5.4923,5.4779,5.51,5.5801,0.0,0.0,5.591,5.6265,5.6373,5.6321,5.6553,5.6501,5.6239,5.6239,5.5949,5.5352,5.3751,5.3308,5.3539,5.359,5.3745,5.395,5.3971,5.3997,5.3997,5.4048,5.4073,5.4073,5.4022,5.4048,0.0,5.4336,5.4234,5.4078,5.4336,5.4184,5.3899,5.3667,5.3704,5.3762,5.3697,5.4079,5.4458,5.465,5.4968,5.5179,5.5179,5.4456,5.3936,5.4105,5.376,5.3543,5.3664,5.3849,5.3962,5.3962,5.4687,5.4976,5.4425,5.4951,5.5099,5.4553,5.4399,5.3999,5.3322,5.3199,5.2614,5.1528,5.1454,5.1067,5.0289,5.0245,5.0498,5.1017,5.0861,5.0629,0.0,0.0,0.0,0.0,0.0,0.0,0.0,0.0,0.0,0.0,0.0,4.5883,0.0,0.0,4.7916,4.8738,4.9298,4.9762,5.0075,5.0492,5.0618,5.0112,5.0443,5.0784,5.0972,5.1388,5.1589,5.146,5.1592,5.1889,5.2517,5.252,5.294,5.3922,5.4241,5.4709,5.5326,5.5326,5.5581,5.6038,5.6038,5.6148,5.6311,5.6444,5.6495,5.6495,5.6654,5.6598,5.6465,5.6172,5.5984,5.5764,5.4666,5.4405,5.4672,5.4672,5.4547,5.4416,5.4544,5.4391,5.4149,5.4436,5.4436,5.4304,5.4304,5.4304,5.4304,5.4333,5.423,5.4123,5.4311,5.4126,5.3867,5.3736,5.3815,5.4033,5.4512,5.4701,5.5001,5.5616,5.5727,5.5727,5.5727,5.546,5.5147,5.474,5.4231,5.4029,5.4359,5.4611,5.4752,5.4752,5.5299,5.5506,5.5171,5.5381,5.5265,5.4714,5.4706,5.4506,5.3998,5.4114,5.383,5.3039,5.3039,5.2742,5.2155,5.182,5.1751,5.1972,5.1857,5.1884,0.0,0.0,0.0,0.0,0.0,0.0,0.0,0.0,4.5537,4.5809,4.6304,4.6954,4.7909,4.8591,4.9163,4.9833,5.0282,5.0549,5.0549,5.082,5.1088,5.1345,5.1336,5.1334,5.1397,5.183,5.2091,5.2038,5.1997,5.2444,5.3463,5.345,5.3765,5.4635,5.5155,5.5474,5.5591,5.5591,5.5758,5.6092,5.6092,5.6228,5.6503,5.6557,5.6584,5.6584,5.6638,5.6665,5.6638,5.6094,5.5983,5.6147,5.5657,5.5574,5.5736,5.5503,5.5097,5.4718,5.4903,5.4632,5.4273,5.4772,5.4716,5.4531,5.4531,5.4531,5.4479,5.4322,5.4218,5.4191,5.4244,5.4089,5.3878,5.3878,5.4036,5.439,5.5207,5.5377,5.5633,5.6459,5.6471,5.6311,5.6311,5.6311,5.6057,5.5338,5.4853,5.4704,5.4997,5.5349,5.5475,5.5355,5.5656,5.588,5.6003,5.5658,5.5326,5.5043,5.5036,5.4849,5.4507,5.4703,5.4642,5.4223,5.4284,5.4165,5.3903,5.3388,5.2997,5.2808,5.2754,5.3047,4.5104,4.4487,4.4336,4.5361,4.546,4.5446,0.0,0.0,4.7421,4.7227,4.7426,4.7883,4.8665,4.9026,4.9509,5.0226,5.0831,5.1201,5.1201,5.1495,5.178,5.205,5.1834,5.1773,5.2047,5.2133,5.2109,5.1837,5.2593,5.3206,5.359,5.405,5.4641,5.5273,5.5358,5.5707,5.6287,5.6287,5.6549,5.7127,5.7127,5.7156,5.7212,5.752,5.7631,5.7659,5.7879,5.7989,5.7961,5.7659,5.7576,5.7519,5.7184,5.7072,5.6955,5.5823,5.5358,5.53,5.5327,5.5269,5.5238,5.5322,5.5292,5.5265,5.5265,5.5265,5.5319,5.5535,5.5427,5.5292,5.5535,5.54,5.5184,5.5184,5.5211,5.5322,5.5677,5.573,5.584,5.6282,5.6338,5.6311,5.6311,5.6311,5.6072,5.5414,5.5739,5.568,5.4528,5.4964,5.5112,5.4491,5.4947,5.5481,5.5954,5.5937,5.5999,5.6207,5.6231,5.5901,5.521,5.5234,5.484,5.3969,5.3938,5.3849,5.364,5.3579,5.3525,5.3501,5.4062,5.3899,4.6482,4.5888,4.5545,4.6553,4.658,4.6521,4.7084,4.7274,4.7401,4.7649,4.7949,4.8485,4.9385,4.9924,5.0462,0.0,5.1441,5.1611,5.1611,5.1863,5.2059,5.2167,5.2416,5.2471,5.2222,5.2562,5.2733,5.2624,5.3161,5.3751,5.4386,5.4821,5.5359,5.5969,5.6316,5.6636,5.6926,5.6926,5.7042,5.7303,5.7303,5.7393,5.7598,5.7534,5.75,5.75,5.7612,5.7584,5.7445,5.7106,5.6964,5.6965,5.668,5.6623,5.6765,5.6554,5.6287,5.5997,5.5997,5.5736,5.5444,5.5577,5.5523,5.5444,5.5577,5.5496,5.5444,5.5523,5.5498,5.5444,5.5523,5.5362,5.5171,5.5171,5.5143,5.5312,5.5991,5.6133,5.6331,5.7013,5.7018,5.6879,5.6879,5.6879,5.6674,5.6061,5.6155,5.5893,5.4742,5.5127,5.5356,5.4883,5.5053,5.5355,5.5731,5.578,5.588,5.6151,5.6176,5.598,5.5505,5.5621,5.5377,5.4663,5.4811,5.4688,5.4242,5.4001,5.3895,5.3865,5.3946,5.3972,4.6931,4.6713,4.6504,4.7128,4.7477,4.7711,4.7923,4.809,4.8244,4.8524,4.9026,4.9586,5.0229,5.0791,5.1299,5.1838,5.1896,5.1896,5.1896,5.2146,5.234,5.234,5.2934,5.3132,5.2651,5.3047,5.3357,5.3357,5.3726,5.429,5.5101,5.5535,5.602,5.6637,5.7071,5.7303,5.7303,5.7219,5.7306,5.7565,5.7221,5.7311,5.7801,5.7281,5.7134,5.7303,5.7106,5.708,5.711,5.6824,5.6765,5.6908,5.6705,5.6734,5.6995,5.7398,5.7078,5.6414,5.6414,5.6096,5.5719,5.591,5.5827,5.5719,5.591,5.5827,5.5691,5.5691,5.5691,5.5691,5.5691,5.558,5.5498,5.5415,5.5414,5.564,5.6382,5.6496,5.6696,5.7526,5.7472,5.7303,5.7303,5.7303,5.71,5.649,5.6355,5.5945,5.4886,5.4916,5.5045,5.4854,5.4849,5.5002,5.5355,5.5381,5.5531,5.588,5.588,5.5805,5.5606,5.578,5.5681,5.5204,5.5381,5.528,5.482,5.447,5.4331,5.4406,5.3922,5.4105,4.5967,4.6567,4.7,4.7,4.8137,4.91,4.8606,4.9823,5.0915,5.0424,5.1014,5.1549,5.1313,5.15,5.1779,5.2136,5.2167,5.2167,5.2167,5.2457,5.2686,5.2686,5.3276,5.3698,0.0,5.367,5.367,5.367,5.4232,5.4827,5.5451,5.6023,5.6651,5.7246,5.7303,5.7303,5.7303,5.705,5.7368,5.8261,5.7025,5.691,5.7772,5.6824,5.6737,5.7275,5.668,5.6967,5.7772,5.7482,5.7708,5.8221,5.8221,5.8221,5.8221,5.8251,5.748,5.6394,5.6394,5.6394,5.6366,5.6366,5.6366,5.6366,5.6366,5.6366,5.6366,5.6366,5.6366,5.6366,5.6366,5.6594,5.6765,5.6423,5.6594,5.685,5.6879,5.6879,5.6964,5.7247,5.7303,5.7303,5.7303,5.7303,5.71,5.649,5.6403,5.5937,5.4688,5.3962,5.3661,5.3919,5.3945,5.4178,5.4777,5.4828,5.5057,5.5581,5.5606,5.5606,5.5606,5.5606,5.5481,5.5204,5.5204,5.5204,5.5179,5.4926,5.4926,5.5149,5.4556,5.4607,4.7389,4.7433,4.7391,4.8358,4.9184,4.9808,5.0016,5.0538,5.0889,5.0464,5.081,5.1155,5.1048,5.144,5.1919,5.243,5.2543,5.2684,5.3106,5.3304,5.336,5.336,5.3923,0.0,0.0,0.0,0.0,5.4544,5.5331,5.6069,5.6737,5.6734,5.7222,5.8263,5.7859,5.7945,5.861,5.8552,5.8668,5.8958,5.846,5.8223,5.8112,5.7986,5.8051,5.8263,5.7855,5.7823,5.8112,5.7787,5.7691,5.771,5.771,5.771,5.771,5.771,5.7427,5.7119,5.7533,5.768,5.768,5.768,5.768,5.768,5.768,5.768,5.7594,5.7165,5.7196,5.7226,5.6852,5.6823,5.688,5.6766,5.6509,5.6336,5.6537,5.6595,5.6652,5.6993,5.7162,5.7303,5.7303,5.7303,5.7245,5.7042,5.6103,5.525,5.4813,5.4328,5.4221,5.4766,5.4825,5.508,5.5736,5.5949,5.6132,5.6314,5.6492,5.662,5.662,5.662,5.6492,5.6206,5.6206,5.6024,5.566,5.558,5.5551,5.5574,5.5389,5.5525,4.8026,4.8429,4.8691,4.9434,5.0199,5.0789,5.0829,5.1122,5.1272,5.0957,5.1247,5.1477,5.128,5.1561,5.2068,5.2911,5.2854,5.3023,5.3894,5.4035,5.4035,5.4035,5.454,5.4906,0.0,0.0,0.0,5.5448,5.6062,5.6715,5.7502,5.7355,5.7672,5.8574,5.8318,5.8406,5.8927,5.8927,5.8809,5.8632,5.8905,5.8726,5.8129,5.8423,5.8577,5.8603,5.8386,5.8352,5.8412,5.8111,5.801,5.8025,5.8025,5.8025,5.8025,5.8025,5.8025,5.803,5.8001,5.7979,5.7979,5.7979,5.7979,5.7979,5.7979,5.7979,5.7894,5.7526,5.7532,5.7565,5.7281,5.7311,5.734,5.714,5.6852,5.6651,5.6595,5.6595,5.668,5.6993,5.7162,5.7303,5.7303,5.7303,5.7216,5.7013,5.6076,5.5454,5.5454,5.5001,5.4844,5.5283,5.5342,5.5571,5.6062,5.6279,5.6465,5.668,5.6862,5.6989,5.7094,5.7094,5.7016,5.6832,5.6832,5.6651,5.6201,5.6094,5.6011,5.5984,5.574,5.5877,4.8024,4.9483,5.0718,5.0155,5.113,5.1972,5.1137,5.1609,5.2142,5.1841,5.2264,5.2489,5.1899,0.0,5.2236,5.3529,5.322,5.3276,5.454,5.4709,5.4681,0.0,0.0,0.0,0.0,0.0,0.0,5.6451,0.0,5.6852,5.7802,5.783,5.7978,5.8363,5.866,5.866,5.8422,5.8393,5.8095,5.7521,5.8416,5.8481,5.7885,5.8203,5.836,5.8362,5.8356,5.8487,5.8734,5.8457,5.8699,5.9174,5.9174,5.9174,5.9174,5.9174,5.9174,5.9064,5.7884,5.7463,5.7463,5.7463,5.7463,5.7463,5.7463,5.7463,5.7463,5.7435,5.7465,5.7497,5.7742,5.807,5.8165,5.7566,5.7598,5.7628,5.7024,5.6908,5.6993,5.7219,5.7303,5.7303,5.7303,5.7303,5.71,5.6549,5.6461,5.6432,5.6374,5.5794,5.5416,5.5445,5.5474,5.5583,5.5854,5.5881,5.6153,5.6743,5.6769,5.6928,5.7158,5.7214,5.7184,5.7158,5.7158,5.703,5.6743,5.6504,5.637,5.6346,5.5777,5.5804,4.934,4.9846,5.0296,5.0605,5.1306,5.184,5.1617,5.2094,5.2431,5.1926,5.1899,5.1983,5.1815,5.2152,5.2883,5.4176,5.4597,0.0,5.6537,5.6254,0.0,5.5945,0.0,5.5693,5.6142,5.617,0.0,0.0,5.7407,5.7527,5.8423,5.8297,5.8523,5.9312,5.8977,5.91,5.9708,5.9708,5.9495,5.9125,5.9357,5.9236,5.8848,5.8927,5.9113,5.931,5.9079,5.9135,5.9413,5.9104,5.9064,5.9174,5.9174,5.9174,5.9174,5.9174,5.9174,5.9177,5.8868,5.8755,5.8755,5.8755,5.8755,5.8755,5.8755,5.8755,5.8643,5.8193,5.8206,5.8277,5.7885,5.8219,5.849,5.7858,5.7772,5.7628,5.7024,5.6908,5.6936,5.6993,5.7162,5.7303,5.7303,5.7303,5.7245,5.71,5.7071,5.6723,5.5794,5.5533,5.5591,5.6084,5.6142,5.6373,5.6864,5.7173,5.7449,5.7805,5.8023,5.8216,5.8267,5.8483,5.8375,5.7912,5.8159,5.8023,5.7504,5.7449,5.7283,5.7034,5.6866,5.6893,5.0296,5.0774,5.1195,5.128,5.1731,5.2124,5.1843,5.204,5.2208,5.1871,5.1787,5.1787,5.1787,5.2293,5.3107,5.4372,5.5102,5.5945,5.721,5.7069,5.6845,5.6845,5.6535,0.0,5.6816,5.6845,5.7266,0.0,5.7997,5.8114,5.8889,5.8792,5.8961,5.9454,5.9298,5.9454,5.9979,5.9825,5.9671,5.9482,5.9482,5.9361,5.9202,5.9455,5.9552,5.9482,0.0,5.9552,5.9482,5.9267,5.9174,5.9174,5.9174,5.9174,5.9174,5.9174,5.9174,5.9174,5.9174,5.9174,5.9174,5.9174,5.9174,5.9174,5.9174,5.9174,5.9149,5.8812,5.8823,5.8892,5.8677,5.8895,5.9054,5.8544,5.843,5.8258,5.7656,5.7513,5.7426,5.7168,5.6995,5.6936,5.7078,5.7106,5.7162,5.7275,5.7303,5.7042,5.6345,5.6229,5.6374,5.6752,5.681,5.6926,5.7274,5.7472,5.764,5.7807,5.7974,5.8142,5.8307,5.8445,5.8362,5.8031,5.8197,5.8059,5.7585,5.7585,5.7472,5.7303,5.7303,5.7448,5.1027,5.1759,5.2461,5.1927,5.218,5.2433,5.1899,5.1787,5.1787,5.1787,5.1787,5.1815,5.1899,5.2405,5.3248,5.4512,5.5215,5.6058,5.7322,5.7435,5.7407,5.7491,5.7435,5.7407,5.7491,5.7519,5.7772,5.8362,5.8418,5.8643,5.9177,5.9174,5.9174,5.9174,5.9482,5.9665,5.975,5.9386,5.923,5.9314,5.9314,5.9314,5.9314,5.9932,5.9932,5.9486,0.0,0.0,5.9314,5.9314,5.9258,5.9174,5.9174,5.9174,5.9174,5.9174,5.9174,5.9174,5.9174,5.9174,5.9174,5.9174,5.9174,5.9174,5.9174,5.9174,5.9174,5.9174,5.9174,5.9267,5.9575,5.9668,5.9591,5.9212,5.916,5.9021,5.8307,5.8107,5.7908,5.7365,5.6794,5.648,5.6794,5.6823,5.6936,5.7191,5.7247,5.7247,5.7247,5.7275,5.7332,5.7419,5.7448,5.7477,5.7565,5.7508,5.7508,5.7565,5.7508,5.7621,5.7932,5.796,5.796,5.7932,5.7932,5.779,5.7565,5.748,5.748,5.7565,5.7508,5.7827,5.1645,5.1787,5.1927,5.1815,5.1871,5.1927,5.1815,5.1787,5.1787,5.1787,5.1787,5.1927,5.2461,5.3079,5.3951,5.5159,5.5861,5.6704,5.7969,5.7688,5.7575,5.8081,5.7688,5.7575,5.8109,5.8137,0.0,0.0,5.9064,5.9093,5.9205,5.9174,5.9174,5.9174,5.9236,5.952,6.0027,5.9458,5.9426,5.9932,5.9932,5.9932,5.996,6.0638,6.0863,6.0778,6.0891,0.0,5.9932,5.9932,5.9651,5.9174,5.9174,5.9174,5.9174,5.9174,5.9174,5.9174,5.9174,5.9174,5.9174,5.9174,5.9174,5.9174,5.9174,5.9174,5.9174,5.9174,5.9174,5.9205,5.9267,5.9513,5.956,5.8939,5.9009,5.8907,5.7794,5.7108,5.6708,5.6594,5.648,5.6423,5.648,5.648,5.6623,5.6936,5.6965,5.6965,5.6965,5.7162,5.7507,5.8058,5.8116,5.8348,5.89,5.8697,5.8639,5.8871,5.861,5.8493,5.8552,5.8813,5.8871,5.861,5.8552,5.8697,5.8958,5.8405,5.8405,5.8958,5.8668,5.8754,5.2714,5.2517,5.2264,5.2264,5.2012,5.1787,5.1787,5.1787,5.1787,5.1787,5.204,5.2264,5.2236,5.3051,5.3894,5.4485,5.5327,5.6395,5.7631,5.7856,5.8081,5.8699,5.8502,5.8446,5.8755,5.8783,5.8896,5.9205,5.9174,5.9174,5.9174,5.9174,5.9314,5.9651,5.9651,5.996,6.0638,6.0329,6.0329,6.0638,6.0638,6.0638,6.0638,6.0947,6.1088,6.1088,6.1088,0.0,6.0638,6.0638,6.0469,6.0188,6.0188,6.0188,6.0188,6.0188,6.0188,6.0188,6.0188,6.0188,6.0132,5.9763,5.9455,5.9174,5.9174,5.9174,5.9174,5.9174,5.9174,5.9174,5.9174,5.9298,5.9366,5.9056,5.9218,5.932,5.8723,5.8097,5.7642,5.7642,5.6985,5.6587,5.7278,5.7137,5.7138,5.7801,5.7743,5.7714,5.7859,5.7686,5.7685,5.8003,5.8205,5.8493,5.8986,5.8721,5.8515,5.8486,5.8309,5.822,5.822,5.8397,5.8427,5.8279,5.8249,5.8338,5.8544,5.8189,5.8279,5.878,5.8603,5.8805,5.3388,5.3079,5.2714,5.2714,5.2236,5.1815,5.1955,5.1871,5.1787,5.1787,5.218,5.2405,5.204,5.2826,5.3585,5.3838,5.4681,5.5805,5.7182,5.78,5.839,5.9121,5.9174,5.9174,5.9174,5.9174,0.0,5.9174,5.9314,5.937,5.937,5.937,5.9679,6.0269,6.0297,6.0638,6.1284,6.1172,6.1172,6.1284,6.1284,6.1284,6.1312,6.1425,6.1481,6.1481,6.1481,0.0,0.0,6.1284,6.1228,6.1088,6.1088,6.1088,6.1088,6.1088,6.1088,6.1088,6.1088,6.1003,6.0807,6.0269,5.9763,5.937,5.923,5.9174,5.9174,5.9174,5.9174,5.9174,5.9174,5.9174,5.9174,5.9174,5.9307,5.9408,5.9408,5.8927,5.8505,5.8505,5.7535,5.6999,5.8015,5.779,5.7765,5.8576,5.8406,5.8291,5.8546,5.8229,5.8,5.8,5.8311,5.8655,5.9065,5.8796,5.8497,5.8228,5.8138,5.8107,5.8107,5.8107,5.8138,5.8198,5.8138,5.8168,5.8318,5.8168,5.8318,5.8708,5.8618,5.8904,5.2939,5.2742,5.2714,5.2714,5.2236,5.1927,5.2489,5.218,5.1787,5.1787,5.1843,5.2012,5.2517,5.2714,5.3164,5.4316,5.4597,5.5299,5.7126,5.7435,5.7912,5.9064,5.9174,5.9174,5.9174,5.9174,5.9174,5.9174,5.9707,6.0016,6.0016,6.0016,6.0297,6.1003,6.1003,6.1312,6.1931,6.1369,6.1397,6.1931,6.1931,6.1931,6.1959,6.246,6.2712,6.2712,6.2712,0.0,0.0,6.1931,6.1593,6.1088,6.1088,6.1088,6.1088,6.1088,6.1088,6.1088,6.1088,6.0722,6.0185,6.0129,6.0072,5.9904,5.937,5.9174,5.9174,5.9174,5.9174,5.9174,5.9174,5.9174,5.9174,5.9174,5.8783,5.8421,5.8421,5.7973,5.7523,5.7523,5.7591,5.7687,5.7831,5.7805,5.7894,5.8279,5.8043,5.7864,5.7891,5.8317,5.8657,5.8716,5.8956,5.9394,6.0026,5.9747,5.956,5.9529,5.9223,5.9067,5.9067,5.9067,5.9192,5.9529,5.9223,5.9377,5.9992,5.9377,5.9408,6.0022,5.9716,5.9745,5.3388,5.3304,5.3304,5.3304,5.2517,5.1955,5.2574,5.2236,5.1787,5.1787,5.2096,5.2293,5.218,5.2461,5.2995,5.3923,5.4063,5.485,5.7099,5.7227,5.7553,5.8752,5.9038,5.909,5.8889,0.0,5.9514,5.9735,6.0357,6.0767,6.0877,6.0762,6.1003,6.1621,6.165,6.1931,6.2544,6.2291,6.2291,6.2544,6.2544,6.2544,6.2544,6.2797,6.2909,6.2909,6.2909,0.0,0.0,6.2544,6.2375,6.2151,6.2151,6.1987,6.165,6.165,6.165,6.165,6.165,6.1481,6.1168,6.0835,6.0409,6.0072,5.9792,5.9483,5.9258,5.9623,5.9483,5.9174,5.9174,5.9174,5.9174,5.9174,5.9161,5.9146,5.9146,5.8948,5.8843,5.9056,5.8742,5.8661,5.9424,5.9076,5.8934,5.9635,5.9108,5.8812,5.9212,5.8914,5.8878,5.9305,5.9241,5.9416,5.9887,5.9578,5.942,5.942,5.9267,5.9174,5.9174,5.9174,5.9236,5.942,5.9267,5.9329,5.9609,5.9329,5.9329,5.9578,5.9454,5.9454,5.3698,5.3838,5.3979,5.3979,5.3023,5.2208,5.2854,5.2377,5.1787,5.1787,5.2124,5.2293,5.1871,5.2152,5.2714,5.3557,5.3753,5.4622,5.6949,5.7121,5.7379,5.8435,5.8744,5.8764,5.857,5.9197,5.9858,6.0446,6.0926,6.1394,6.1817,6.1646,6.1683,6.2103,6.223,6.246,6.2909,6.2909,6.2909,6.2909,6.2909,6.2909,6.2909,6.2909,6.2909,6.2909,0.0,0.0,0.0,6.2909,6.2909,6.2881,6.2684,6.2347,6.2015,6.2015,6.1902,6.1762,6.1959,6.1729,6.1364,6.0947,6.0466,6.01,6.01,5.9792,5.9595,6.0213,6.0072,5.9739,5.9511,5.9455,5.9398,5.923,5.9361,5.9575,5.9575,5.9637,5.9761,5.9887,5.9607,5.9558,6.0289,5.9944,5.977,6.032,5.9731,5.9375,5.9861,5.9274,5.9036,5.9519,5.9329,5.9298,5.9544,5.9329,5.9174,5.9174,5.9174,5.9174,5.9174,5.9174,5.9174,5.9174,5.9174,5.9174,5.9174,5.9174,5.9174,5.9174,5.9174,5.9174,5.3698,5.4147,5.4569,5.4569,5.3613,5.2854,5.3529,5.2714,5.1787,5.1787,5.1787,5.1787,5.1787,5.1787,5.2236,5.3501,5.3918,5.4747,5.6642,5.7144,5.7508,5.8115,5.8198,5.8198,5.8198,5.907,6.0125,6.129,6.1373,0.0,6.282,6.2582,6.2381,6.2381,6.2715,6.2881,6.2909,6.2909,6.2909,6.2909,6.2909,6.2909,6.2909,6.2909,6.2909,0.0,0.0,0.0,0.0,6.2909,6.2909,6.2825,6.2235,6.2015,6.2015,6.2015,6.1621,6.12,6.179,6.1168,6.0129,6.01,6.01,6.01,6.01,6.01,6.0213,6.0891,6.1088,6.0919,6.0269,6.01,5.9932,5.9314,5.9174,5.9205,5.9205,5.9482,5.9606,5.9267,6.001,6.0469,5.9823,5.9979,6.0102,5.9761,5.9423,5.9205,5.9205,5.9205,5.9205,5.9205,5.9174,5.9174,5.9174,5.9174,5.9174,5.9174,5.9174,5.9174,5.9174,5.9174,5.9174,5.9174,5.9174,5.9174,5.9174,5.9174,5.9174,5.9174,5.9174,5.9174,5.2517,5.2826,5.3416,5.3866,5.3332,5.2883,5.3557,5.3023,5.2293,5.1871,5.1787,5.1787,5.1787,5.1787,5.2153,5.319,5.3774,5.4687,5.631,5.6803,5.7326,5.8342,5.8452,5.8644,5.9023,5.9797,6.0598,6.1345,6.2051,6.2486,6.2548,6.2648,6.2715,6.2715,6.2615,6.2648,6.2909,6.2648,6.2648,6.2909,6.2909,6.2909,6.2909,6.2909,0.0,0.0,0.0,0.0,0.0,6.2909,6.2909,6.2881,6.2684,6.2347,6.1959,6.1537,6.1256,6.1059,6.0775,6.0438,6.01,6.01,5.982,5.9539,5.996,6.0409,6.0835,6.1031,6.0469,5.9851,6.0044,6.01,5.996,5.9314,5.9511,5.9679,5.9286,5.9267,5.9389,5.9544,5.9823,6.001,6.004,5.9948,5.9887,6.001,5.9547,5.9267,5.9513,5.9329,5.9174,5.9174,5.9174,5.9174,5.9174,5.9174,5.9174,5.9174,5.9174,5.9174,5.9174,5.9174,5.9174,5.9174,5.9174,5.9174,5.9174,5.9174,5.9174,5.9174,5.9174,5.9174,5.1759,5.2433,5.322,5.3894,5.336,5.2883,5.3557,5.3023,5.2236,5.1871,5.1787,5.1787,5.1787,5.1983,5.235,5.3076,5.3796,5.4701,5.6028,5.6652,5.7305,5.8292,5.8429,5.8642,5.9269,6.0143,6.0959,6.1509,6.2258,6.2682,6.2582,6.2648,6.2682,6.2682,6.2515,6.2482,6.2682,6.2482,6.2548,6.2909,6.2909,6.2909,6.2909,6.2909,0.0,0.0,0.0,0.0,0.0,6.2909,6.2909,6.2881,6.2628,6.2319,6.1959,6.1593,6.1312,6.1031,6.0638,6.0297,6.0072,5.982,5.9651,5.9735,6.0831,6.128,6.1397,6.1172,6.0694,6.0213,6.0129,6.01,5.996,5.9314,5.9483,5.9651,5.9258,5.9298,5.942,5.9513,5.9702,5.9856,5.9825,5.9732,5.973,5.9825,5.9454,5.9267,5.9482,5.9329,5.9174,5.9174,5.9174,5.9174,5.9174,5.9174,5.9174,5.9174,5.9174,5.9174,5.9174,5.9174,5.9174,5.9174,5.9174,5.9174,5.9174,5.9174,5.9174,5.9174,5.9174,5.9174,0.0,5.2545,5.3641,5.426,5.3529,5.2854,5.3501,5.2714,0.0,5.1787,5.1787,5.1787,5.1843,5.2321,5.2827,5.3159,5.3925,5.4814,5.5744,5.6659,5.7504,5.8102,5.8156,5.84,5.9019,6.0203,6.1154,6.1761,6.2214,6.2548,6.2909,6.2582,6.2415,6.2381,6.2381,6.2381,6.2381,6.2381,6.2515,6.2909,6.2909,6.2909,6.2909,6.2909,0.0,0.0,0.0,0.0,0.0,6.2909,6.2909,6.282,6.2263,6.2071,6.2071,6.2043,6.165,6.1172,6.1116,6.0694,6.0072,5.9511,5.9707,6.0494,6.2235,6.2375,6.1846,6.1369,6.1537,6.1589,6.0466,6.0129,5.996,5.9314,5.9202,5.923,5.9202,5.9451,5.9575,5.9236,5.9702,5.9948,5.9298,5.9482,5.9575,5.9236,5.9174,5.9174,5.9174,5.9174,5.9174,5.9174,5.9174,5.9174,5.9174,5.9174,5.9174,5.9174,5.9174,5.9174,5.9174,5.9174,5.9174,5.9174,5.9174,5.9174,5.9174,5.9174,5.9174,5.9174,5.9174,5.9174,4.9827,0.0,5.1702,5.232,5.2574,5.2742,0.0,5.2686,5.2349,5.1899,5.1787,5.1927,5.2405,5.2602,5.2883,5.3428,5.4055,5.4754,5.5434,5.6885,5.8129,5.872,5.8774,5.9019,5.9616,6.0417,6.1154,6.1761,6.2415,6.2814,6.2909,6.2814,6.2648,6.2415,6.2086,6.2086,6.2381,6.2086,6.2253,6.2909,6.2909,6.2909,6.2909,6.2909,0.0,0.0,0.0,0.0,6.2086,6.2682,6.2748,6.2548,6.2641,6.2684,6.2628,6.2151,6.1931,6.1734,6.1256,6.1003,6.0835,6.0694,6.075,6.0947,6.1397,6.1425,6.1481,6.2235,6.1533,6.0578,6.0807,6.0466,5.996,5.9314,5.9539,5.9763,5.9286,5.9236,5.9267,5.9205,5.9329,5.9361,5.9205,5.9267,5.9267,5.9205,5.9174,5.9174,5.9174,5.9174,5.9174,5.9174,5.9174,5.9174,5.9174,5.9174,5.9174,5.9174,5.9174,5.9174,5.9174,5.9174,5.9174,5.9174,5.9174,5.9174,5.9174,5.9174,5.9174,5.9174,5.9174,5.9174,4.894,4.9916,5.1055,5.1673,5.204,5.2349,5.263,5.2489,5.218,5.1871,5.1787,5.1983,5.2602,5.2827,5.3077,5.3532,5.4017,5.4655,5.5662,5.6875,5.7988,5.891,5.8992,5.9236,0.0,6.0779,6.139,6.1552,6.2248,6.2515,6.218,6.2147,6.1945,6.1438,6.1173,6.1343,6.1878,6.1512,6.1512,6.1884,6.1884,6.1884,6.1884,6.1884,6.1912,0.0,0.0,0.0,6.185,6.2448,6.2548,6.2415,6.2582,6.2748,6.2853,6.2516,6.2338,6.2122,6.1669,6.134,6.1144,6.1425,6.1509,6.1565,6.1846,6.1931,6.1959,6.2071,6.1336,6.0582,6.0638,6.0157,5.9595,5.9258,5.9426,5.9595,5.9258,5.9398,5.9511,5.923,5.9398,5.9511,5.923,5.9174,5.9174,5.9174,5.9174,5.9174,5.9174,5.9174,5.9174,5.9174,5.9174,5.9174,5.9174,5.9174,5.9174,5.9174,5.9174,5.9174,5.9174,5.9174,5.9174,5.9174,5.9174,5.9174,5.9174,5.9174,5.9174,5.9174,5.9174,5.9174,4.8594,4.9636,5.0833,5.1365,5.1673,5.1927,5.2461,5.2152,5.1787,5.1787,5.1871,5.2124,5.2687,5.3162,5.3545,5.3775,5.4166,5.4907,5.6228,5.6875,5.7662,5.8992,5.9073,5.9229,5.9874,6.0973,6.1512,6.1166,6.1743,6.1878,6.1234,6.12,6.0927,6.0281,6.0212,6.0453,6.1029,6.0762,6.066,6.0694,6.0694,6.0694,6.0694,6.0694,6.0865,0.0,0.0,0.0,6.1586,6.2046,6.2214,6.2248,6.2281,6.2482,6.2715,6.2715,6.2582,6.2392,6.2192,6.1786,6.1388,6.1954,6.2155,6.2207,6.274,6.2909,6.2656,6.1565,6.1172,6.0947,6.0269,5.9651,5.9202,5.9314,5.9258,5.9202,5.9314,5.9735,5.996,5.9426,5.9735,5.9932,5.9426,5.9258,5.9174,5.9174,5.9174,5.9174,5.9174,5.9174,5.9174,5.9174,5.9174,5.9174,5.9174,5.9174,5.9174,5.9174,5.9174,5.9174,5.9174,5.9174,5.9174,5.9174,5.9174,5.9174,5.9174,5.9174,5.9174,5.9174,5.9174,5.9174,4.9056,4.9481,4.9811,5.0187,5.1055,5.1815,5.1899,5.1871,5.1787,5.1787,5.2208,5.2687,5.305,5.3995,5.4736,5.4773,5.5445,5.6233,5.6961,5.7119,5.7857,5.9534,5.9317,5.9291,6.01,6.0605,6.0728,6.0384,6.0728,6.0899,6.0797,6.0797,6.0728,6.0625,6.035,6.0108,5.9838,6.0143,6.0419,6.0694,6.0694,6.0694,6.0694,6.0694,6.0591,0.0,0.0,6.0728,6.0488,6.12,6.1472,6.1506,6.1783,6.1918,6.1985,6.1985,6.2153,6.2448,6.2697,6.2519,6.2264,6.2646,6.274,6.2769,6.2853,6.2909,6.274,6.2071,6.1481,6.0947,6.0269,5.9651,5.9314,5.9848,5.9567,5.9314,5.9848,6.0016,6.0072,5.9988,6.0044,6.0072,5.9988,5.9539,5.9174,5.9174,5.9174,5.9174,5.9174,5.9174,5.9174,5.9174,5.9174,5.9174,5.9174,5.9174,5.9174,5.9174,5.9174,5.9174,5.9174,5.9174,5.9174,5.9174,5.9174,5.9174,5.9174,5.9174,5.9174,5.9174,5.9174,5.9174,4.8796,4.9202,4.9537,4.9696,5.0538,5.1321,5.1321,5.1321,5.1404,5.1739,5.2017,5.2573,5.3679,5.4195,5.4616,5.5118,5.583,5.6495,5.7092,5.7504,5.8139,0.0,0.0,5.9365,5.982,6.0212,6.0281,5.99,6.0212,6.0246,5.9857,5.9857,5.9726,5.9517,5.9377,5.9202,5.9026,5.9202,5.9342,5.9517,5.9517,5.9517,5.9517,5.9517,5.9552,5.9613,0.0,6.0143,6.0246,6.0762,6.1098,6.1302,6.1472,6.1648,6.1783,6.158,6.1749,6.2052,6.2046,6.218,6.2415,6.2582,6.2748,6.2909,6.2909,6.2656,6.2263,6.1678,6.1312,6.1031,6.0722,5.9904,5.9458,6.0381,6.0129,5.9763,6.0044,6.0381,6.0441,5.9735,5.9876,5.9988,5.9651,5.937,5.9174,5.9174,5.9174,5.9174,5.9174,5.9174,5.9174,5.9174,5.9174,5.9174,5.9174,5.9174,5.9174,5.9174,5.9174,5.9174,5.9174,5.9174,5.9174,5.9174,5.9174,5.9174,5.9174,5.9174,5.9174,5.9174,5.9174,5.9174,4.8898,4.9186,4.946,4.9685,5.0325,5.0934,5.1072,5.1099,5.1293,5.19,5.2259,5.2811,5.3992,5.4271,5.4706,5.5848,5.6305,5.6734,5.7402,5.7781,5.8238,5.9053,5.9153,5.9223,5.9455,5.9753,5.9787,5.9368,5.9621,5.9552,5.8982,5.8947,5.8806,5.8523,5.8523,5.8523,5.8523,5.8523,5.8523,5.8523,5.8523,5.8523,5.8523,5.8523,5.8664,5.8982,5.9237,5.9587,5.9969,6.0315,6.0728,6.1166,6.1268,6.1472,6.1648,6.1404,6.1438,6.1546,6.1472,6.1743,6.2147,6.2348,6.2548,6.2781,6.2707,6.2347,6.1846,6.1088,6.0863,6.0835,6.0694,6.0048,5.9711,6.0835,6.061,6.0185,6.0466,6.0835,6.0807,5.9851,5.9876,5.996,5.9483,5.9286,5.9174,5.9174,5.9314,5.9398,5.9398,5.9398,5.9398,5.9398,5.9258,5.9174,5.9174,5.9174,5.9174,5.9174,5.9174,5.9174,5.9174,5.9174,5.9174,5.9174,5.9174,5.9174,5.9174,5.9174,5.9174,5.9174,5.9174,5.9174,5.0034,4.9712,4.936,5.0188,5.0656,5.1044,5.1597,5.1735,5.1928,5.2535,5.3527,5.4102,5.3423,5.4378,5.5875,5.7613,5.7477,5.7429,5.82,5.7865,5.7839,5.8651,5.8716,5.8844,5.9105,5.9158,5.9017,5.8629,5.8629,5.8594,5.8558,5.8558,5.8523,5.8523,5.8523,5.8523,5.8523,5.8523,5.8523,5.8523,5.8523,5.8523,5.8523,5.8523,5.8523,5.8558,5.8594,5.8806,5.9193,5.9543,6.0108,6.0797,6.1166,6.1302,6.1336,6.1302,6.1098,6.0961,6.1546,6.158,6.1472,6.218,6.2415,6.2398,6.2141,6.2043,6.1729,6.0522,6.0157,6.0044,5.9486,5.9679,6.0213,6.0947,6.061,6.0409,6.1589,6.1453,6.1059,6.0975,6.0526,6.01,6.0044,5.9567,5.9174,5.9174,5.9679,6.0044,6.0044,6.0044,6.0044,6.0044,5.9511,5.9174,5.9174,5.9174,5.9174,5.9174,5.9174,5.9174,5.9174,5.9174,5.9174,5.9174,5.9174,5.9174,5.9174,5.9174,5.9174,5.9174,5.9174,5.9174,4.9537,4.9357,4.9007,4.9721,5.0376,5.0949,5.1195,5.1222,5.1632,5.2968,5.3596,5.4166,5.5002,5.5554,5.6441,5.7885,5.7418,5.7384,5.8752,5.8281,5.803,5.8856,5.8954,5.8894,5.8744,5.8735,5.8664,5.8523,5.8523,5.8523,5.8523,5.8523,5.8523,5.8523,5.8523,5.8523,5.8523,5.8523,5.8523,5.8523,5.8523,5.8523,5.8523,5.8523,5.8523,5.8523,5.8523,5.8735,5.9114,5.9228,5.9718,6.0453,6.1063,6.1302,6.1302,6.1302,6.1063,6.0858,6.1336,6.1404,6.1404,6.2147,6.2381,6.242,6.2529,6.2043,6.1425,6.1308,6.0718,6.0044,5.982,5.9651,5.9792,6.0863,6.0919,6.0863,6.134,6.1256,6.0975,6.0582,5.996,5.9539,5.9539,5.9342,5.9314,5.9679,5.996,6.0241,6.0694,6.0722,6.055,6.0129,5.9539,5.9174,5.9174,5.9174,5.9111,5.8892,5.908,5.9174,5.9174,5.9174,5.9174,5.9174,5.9174,5.9174,5.9174,5.9174,5.9174,5.9174,5.9174,5.9174,4.9566,4.9387,4.9091,4.9693,5.0371,5.096,5.115,5.1339,5.1936,5.3537,5.4026,5.4677,5.6278,5.6441,5.6707,5.7992,5.7491,5.747,5.9036,5.8495,5.822,5.8841,5.8912,5.8806,5.8523,5.8523,5.8523,5.8523,5.8523,5.8523,0.0,5.8523,5.8523,5.8523,5.8523,5.8523,5.8523,5.8523,5.8523,5.8523,5.8523,5.8523,5.8523,5.8523,5.8523,5.8523,5.8523,5.8664,5.8912,5.9052,5.9613,6.0419,6.0927,6.12,6.1268,6.1166,6.0995,6.0851,6.1063,6.1132,6.1268,6.1979,6.2075,6.1981,6.2244,6.1621,6.0835,6.1059,6.0466,5.9848,6.0044,5.9792,5.9679,6.0582,6.0807,6.0891,6.1312,6.1059,6.0722,6.0438,5.9767,5.9174,5.9174,5.9174,5.9314,5.9735,6.0157,6.0494,6.075,6.0975,6.0778,5.9904,5.9426,5.9174,5.9174,5.9174,5.908,5.8861,5.9049,5.9142,5.9049,5.9142,5.9174,5.9174,5.9174,5.9174,5.9174,5.9174,5.9174,5.9174,5.9174,5.9174,5.0375,4.9967,4.9665,5.0322,5.0726,5.1068,5.1663,5.226,5.3049,5.4243,5.5003,5.579,5.6956,5.6685,5.6746,5.8167,5.7912,5.7886,5.8955,5.8586,5.8262,5.848,5.8523,5.8523,5.8523,5.8523,5.8523,5.8523,5.8523,5.8523,0.0,5.8523,5.8523,5.8523,5.8523,5.8523,5.8523,5.8523,5.8523,5.8523,5.8523,5.8523,5.8523,5.8523,5.8523,5.8523,5.8523,5.8523,5.8523,5.8912,5.9753,6.0694,6.0694,6.0934,6.1234,6.0892,6.0817,6.0817,6.0817,6.0817,6.0892,6.158,6.1402,6.0927,6.109,6.0666,5.9988,5.937,5.9202,5.9373,5.996,6.01,6.01,6.01,6.01,6.0438,6.1734,6.0971,6.0297,6.0975,6.0076,5.9174,5.9174,5.9174,5.9174,5.9202,6.0301,6.0863,6.0185,6.0662,6.061,5.9314,5.9174,5.9174,5.9174,5.9174,5.9174,5.9174,5.9174,5.9049,5.8704,5.9017,5.9174,5.9174,5.9174,5.9174,5.9174,5.9174,5.9174,5.9174,5.9174,5.9174,5.0408,4.9694,4.8926,5.0395,5.1153,5.1799,5.2832,5.3212,5.3809,5.5437,5.5898,5.6278,5.7038,5.652,5.6515,5.8134,5.7484,5.7319,5.8885,5.8377,5.8009,5.8444,5.8523,5.8523,5.8523,5.8523,5.8523,5.8523,5.8523,5.8523,0.0,5.8523,5.8523,5.8523,5.8523,5.8523,5.8523,5.8523,5.8523,5.8523,5.8523,5.8523,5.8523,5.8523,5.8523,5.8523,5.8523,5.8523,5.8523,5.8912,5.9438,5.9942,6.0246,6.0556,6.0865,6.0762,6.0755,6.0851,6.1063,6.0995,6.0961,6.1912,6.1908,6.1564,6.1674,6.1561,6.1308,6.0722,6.0554,6.0582,6.0778,6.0807,6.0662,6.0213,6.01,6.0213,6.0578,6.0353,6.0157,6.0353,5.9735,5.9174,5.9174,5.9174,5.9314,5.9763,6.0157,6.0494,6.0778,6.0582,6.0241,5.9876,5.9426,5.9174,5.9174,5.9174,5.908,5.8861,5.9049,5.9142,5.9049,5.9142,5.9174,5.9174,5.9174,5.9174,5.9174,5.9174,5.9174,5.9174,5.9174,5.9174,5.0243,4.9748,4.9277,5.0722,5.1454,5.2233,5.3944,5.4514,5.4945,5.5898,5.6399,5.6702,5.6763,5.6451,5.6476,5.7498,5.6931,5.6891,5.835,5.7973,5.7813,5.8435,5.8523,5.8523,5.8523,5.8523,5.8523,5.8523,5.8523,5.8523,0.0,5.8523,5.8523,5.8523,5.8523,5.8523,5.8523,5.8523,5.8523,5.8523,5.8523,5.8523,5.8523,5.8523,5.8523,5.8523,5.8523,5.8523,5.8523,5.877,5.9088,5.9412,5.9683,6.0073,6.0488,6.0488,6.0652,6.0851,6.1029,6.0961,6.0927,6.185,6.1852,6.1508,6.187,6.1846,6.1565,6.12,6.1088,6.1172,6.1397,6.1284,6.0947,6.0241,6.0297,6.0494,6.0494,6.0269,6.0185,6.0438,5.9988,5.9539,5.9539,5.9795,6.0104,6.0438,6.0494,6.0718,6.1369,6.0919,6.0494,6.0494,6.0188,5.9851,5.9567,5.9539,5.9392,5.8952,5.908,5.9142,5.9017,5.9111,5.9174,5.9174,5.9174,5.9174,5.9174,5.9174,5.9174,5.9174,5.9174,5.9174,4.9967,4.9967,5.0229,5.1195,5.1758,5.2664,5.489,5.5862,5.6227,5.5971,5.6596,5.6947,5.6295,5.6328,5.6509,5.6403,5.62,5.6391,5.7346,5.7326,5.7508,5.8284,5.8364,5.8373,5.8487,5.8487,5.8452,5.8452,5.8416,0.0,0.0,5.8416,5.8416,5.8416,5.8416,5.8416,5.8416,5.8416,5.8416,5.8416,5.8416,5.8416,5.8452,5.8487,5.8523,5.8523,5.8523,5.8523,5.8523,5.8523,5.8735,5.9052,5.9114,5.9543,6.0143,6.0177,6.0446,6.0817,6.0817,6.0817,6.0892,6.158,6.143,6.1121,6.1786,6.1678,6.1228,6.1116,6.1172,6.1397,6.1874,6.165,6.1116,6.0438,6.0722,6.1088,6.1088,6.0638,6.0353,6.0975,6.0582,6.0129,6.0185,6.0666,6.1031,6.1088,6.1088,6.1312,6.1874,6.1453,6.1088,6.1088,6.1059,6.0807,6.0241,6.0072,5.9792,5.9286,5.9258,5.9133,5.8787,5.9045,5.9174,5.9142,5.9174,5.9174,5.9174,5.9174,5.9174,5.9174,5.9174,5.9202,4.9611,4.9828,5.0281,5.1425,5.298,5.4448,5.5239,5.5778,5.6304,5.679,5.6834,5.6779,5.659,5.5703,5.5129,5.5559,5.5199,5.5102,5.5802,5.5836,5.6268,5.7446,5.7219,5.7391,5.84,5.8212,5.8034,5.8034,5.781,0.0,5.7631,5.7631,5.7631,5.7631,5.7631,5.7631,5.7631,5.7631,5.7631,0.0,5.7631,5.7774,5.8034,5.8381,5.8523,5.8523,5.8523,5.8523,5.8523,5.8523,5.8558,5.8664,5.8982,5.9368,5.9787,6.0073,6.0446,6.0817,6.0817,6.0817,6.0892,6.158,6.1706,6.1647,6.1926,6.2235,6.2319,6.1369,6.179,6.2431,6.2099,6.2235,6.2347,6.1729,6.134,6.1088,6.1088,6.1003,6.0919,6.1059,6.0582,6.0269,6.0807,6.0582,6.0466,6.1031,6.1088,6.1144,6.1284,6.1172,6.1088,6.1088,6.0638,6.0466,6.0863,5.9992,5.9539,5.9876,5.9904,5.9746,5.9428,5.927,5.908,5.8798,5.9049,5.9174,5.9174,5.9174,5.9174,5.9174,5.9174,5.9426,4.9665,5.0096,5.0739,5.2109,5.3289,5.4331,5.5129,5.5173,5.5253,5.598,5.6006,5.5677,5.5013,5.4384,5.4014,5.4176,5.3853,5.3911,5.4827,5.4877,5.5288,5.6627,5.6558,5.6652,5.7328,5.721,5.7065,5.7065,5.6946,5.691,5.7091,5.6946,5.7019,5.7379,5.7019,5.7019,5.7379,5.7199,5.7199,5.7379,5.7379,5.7595,5.7927,5.8319,5.8523,5.8523,5.8523,5.8523,5.8523,5.8523,5.8523,5.8558,5.8947,5.9298,5.9648,6.0039,6.0446,6.0817,6.0817,6.0817,6.0858,6.1377,6.1546,6.1593,6.1825,6.2103,6.2242,6.1601,6.2012,6.2592,6.2257,6.2557,6.2825,6.2488,6.2179,6.1902,6.1593,6.1537,6.1537,6.1537,6.1256,6.1112,6.1481,6.1477,6.1561,6.1931,6.1987,6.1987,6.1987,6.1987,6.1874,6.1565,6.1228,6.1027,6.1088,6.0216,5.9763,6.0072,5.982,5.9367,5.8732,5.8997,5.9189,5.915,5.9186,5.9174,5.9174,5.9174,5.9174,5.9174,5.9174,5.937,4.9579,5.0306,5.1303,5.2732,5.3101,5.3412,5.4711,5.4259,5.3758,5.44,5.4627,5.441,5.3323,5.3136,5.3051,5.2867,5.2594,5.2779,5.3839,5.393,5.4364,5.5701,5.5849,5.5947,5.6157,5.6146,5.6109,5.6109,5.6036,5.6146,5.6474,5.6182,5.6292,5.6982,5.6365,5.6328,5.6982,5.6656,5.6656,5.6982,5.7055,5.7307,5.7713,5.8132,5.8381,5.8523,5.8523,5.8523,5.8523,5.8523,5.8558,5.8629,5.8947,5.9333,5.9753,6.0073,6.0446,6.0817,6.0817,6.0817,6.0858,6.1166,6.1302,6.137,6.1715,6.1734,6.1678,6.1829,6.2064,6.2303,6.242,6.2682,6.2909,6.2909,6.2909,6.274,6.2235,6.2151,6.2151,6.2151,6.2151,6.2127,6.2043,6.2488,6.2909,6.2909,6.2909,6.2909,6.2909,6.2909,6.2712,6.2207,6.2071,6.1818,6.1312,6.055,6.0157,6.0269,5.9697,5.8979,5.8214,5.8899,5.9468,5.973,5.9382,5.923,5.9342,5.923,5.9174,5.9174,5.9174,5.9258,4.8491,4.981,5.1549,5.281,5.2627,5.253,5.3922,5.3277,5.2378,5.2626,5.3172,5.3699,5.3976,5.2938,5.2128,5.2576,5.2085,5.1693,5.1873,5.226,5.3023,5.4303,5.4486,5.4939,5.6095,5.5889,5.5705,5.5705,5.5374,5.5189,5.5226,5.5189,5.5226,5.5337,5.5226,5.5226,5.5337,5.5263,5.5263,5.5337,5.5669,5.6255,5.6982,5.7379,5.7918,5.8523,5.8523,5.8523,5.8523,5.8523,5.87,5.9017,5.9079,5.9508,6.0108,6.0177,6.0446,6.0817,6.0817,6.0817,6.0858,6.1166,6.1302,6.137,6.1715,6.143,6.1193,6.2047,6.1986,6.1812,6.2636,6.2876,6.2909,6.2909,6.2909,6.2881,6.2797,6.2769,6.2769,6.2769,6.2769,6.26,6.2099,6.2488,6.2909,6.2909,6.2909,6.2909,6.2909,6.2909,6.2853,6.2797,6.2291,6.1987,6.1902,6.0775,6.0325,6.0947,6.0283,5.9968,6.013,5.9874,5.9929,6.0371,5.9606,5.9455,5.9988,5.9426,5.9174,5.9174,5.9174,5.9483,4.9551,5.034,5.1329,5.2532,5.2175,5.1897,5.3252,5.2378,5.1466,5.1906,5.1945,5.2048,5.259,5.1859,5.136,5.1894,5.1463,5.1153,5.1441,5.1682,5.2164,5.3023,5.3412,5.3729,5.3985,5.4377,5.4486,5.4193,5.4275,5.4421,5.4645,5.4459,5.4411,5.4537,5.4424,5.4387,5.4574,5.4647,5.4756,5.5004,5.5189,5.5558,5.6146,5.6765,5.7595,5.8523,5.8523,5.8523,5.8523,5.8523,5.8594,5.877,5.9017,5.9403,5.9865,6.0108,6.0446,6.0817,6.0817,6.0817,6.0817,6.0961,6.0995,6.1029,6.12,6.1043,6.0891,6.0972,6.1201,6.143,6.1714,6.2197,6.2648,6.2876,6.2748,6.2615,6.2615,6.2748,6.2909,6.2909,6.2248,6.1835,6.2412,6.2019,6.1951,6.2781,6.2241,6.1918,6.2342,6.2127,6.1762,6.1364,6.1083,6.0915,6.0915,5.9783,5.9309,5.9921,5.8971,5.8292,5.8031,5.8178,5.8565,5.9138,5.9104,5.9412,6.01,5.9483,5.9174,5.9174,5.9174,5.9314,5.0093,5.0661,5.1156,5.2132,5.1741,5.1429,5.2546,5.1624,5.0704,5.1362,5.106,5.0864,5.1393,5.1177,5.1032,5.1417,5.1273,5.1153,5.1273,5.1513,5.1778,5.2043,5.2705,5.2897,5.2331,5.3101,5.3485,5.3138,5.3413,5.3742,5.4078,5.3779,5.365,5.3717,5.3518,5.359,5.3912,5.4154,5.4384,5.4707,5.4707,5.4942,5.546,5.6084,5.6921,5.7927,5.8345,5.8452,5.8381,5.8452,5.8523,5.8558,5.8947,5.9368,5.9787,6.0073,6.0446,6.0817,6.0817,6.0817,6.0817,6.0817,6.0817,6.0817,6.0817,6.0708,6.0518,6.0321,6.0661,6.1069,6.1109,6.1686,6.2315,6.2548,6.227,6.1953,6.222,6.2381,6.2454,6.2286,6.1402,6.1016,6.1958,6.1335,6.1016,6.1992,6.1309,6.085,6.1431,6.0947,6.0505,6.0349,6.0166,6.0078,6.01,5.9237,5.8804,5.9082,5.7965,5.7104,5.6641,5.6873,5.7351,5.8102,5.8532,5.9183,6.01,5.9326,5.9017,5.9174,5.9017,5.9017,4.9005,5.0214,5.1347,5.169,5.1335,5.1114,5.1867,5.095,5.0105,5.0635,5.0731,5.0864,5.1393,5.1465,5.1465,5.1489,5.1874,5.185,5.0888,5.161,5.2067,5.1586,5.2464,5.2897,5.2331,5.2825,5.3138,5.3114,5.3138,5.3138,5.3175,5.3138,5.2897,5.2404,5.2392,5.2632,5.3127,5.3595,5.386,5.386,5.386,5.4248,5.5029,5.5066,5.5533,5.6401,5.7856,5.8284,5.7963,5.8319,5.8523,5.8558,5.8947,5.9543,6.0177,6.0177,6.0446,6.0817,6.0817,6.0817,6.0817,6.0817,6.0817,6.0817,6.0817,6.041,6.0151,6.0975,6.0864,6.0636,6.1522,6.1761,6.185,6.1823,6.1173,6.0731,6.1645,6.1608,6.1206,6.0636,6.0593,6.0572,6.0138,6.0416,6.0572,6.0138,5.9995,6.0012,6.0099,5.9528,5.96,6.0903,6.0422,6.0042,6.0093,6.0041,5.9755,5.9142,5.8407,5.7955,5.7982,5.7221,5.7206,5.8069,5.8075,5.8726,6.01,5.8852,5.8578,5.9174,5.8546,5.8578,4.8951,4.989,5.0783,5.1046,5.0706,5.0532,5.1306,5.0646,5.0057,5.06,5.0696,5.0768,5.096,5.1273,5.161,5.1946,5.2163,5.2175,5.1778,5.1754,5.1706,5.1513,5.1826,5.185,5.1321,5.2043,5.2464,5.2091,5.2416,5.2608,5.2608,5.2608,5.2368,5.1778,5.2115,5.256,5.309,5.3558,5.3785,5.3785,5.3785,5.3972,5.4248,5.5016,5.5533,5.5864,5.679,5.7199,5.7235,5.7631,5.7578,5.7268,5.8047,5.8543,5.9011,5.9593,6.0239,6.0817,6.0817,6.0817,6.0817,6.0817,6.0817,6.0817,6.0817,6.0483,6.0014,5.9549,5.942,5.9352,5.9154,5.9656,6.0274,6.0688,6.0531,6.0286,6.0365,6.0281,6.0161,6.011,5.9349,5.9017,5.9758,5.8951,5.8457,5.919,5.8604,5.838,5.9311,5.8856,5.8833,5.9785,5.9658,5.9388,5.9224,5.8816,5.8246,5.7537,5.6852,5.6359,5.6187,5.5864,5.6065,5.6813,5.7016,5.7662,5.8819,5.8406,5.8198,5.823,5.7975,5.8103,4.8432,4.9366,5.0284,5.0337,5.0147,5.019,5.0838,5.0376,4.998,5.0587,5.0551,5.0479,5.0672,5.1129,5.1537,5.173,5.2043,5.2163,5.1802,5.161,5.1417,5.1249,5.1393,5.1297,5.0768,5.1489,5.1874,5.1513,5.1826,0.0,5.2018,5.2018,5.185,5.1489,5.1994,5.256,5.309,5.3558,5.3785,5.3785,5.3785,5.3785,5.3822,5.4645,5.4979,5.5029,5.5374,5.589,5.6533,5.675,5.6616,5.6453,5.7416,5.8034,5.8429,5.9419,6.0135,6.0584,6.0584,6.0584,6.0584,6.0446,6.0377,6.0377,6.0377,6.0204,5.9782,5.879,5.8681,5.8685,5.8147,5.869,5.9399,5.9483,5.9697,5.9646,5.883,5.9077,5.94,5.9329,5.8432,5.8009,5.8982,5.8011,5.7377,5.8153,5.7712,5.7477,5.8026,5.7939,5.8103,5.8798,5.8861,5.8861,5.8861,5.8451,5.7848,5.7017,5.64,5.5868,5.5299,5.5165,5.5332,5.5769,5.6203,5.6712,5.7279,5.7525,5.7688,5.7688,5.7463,5.7656,0.0,0.0,0.0,4.9469,4.9654,5.0049,5.0464,5.0066,4.9796,5.0526,5.0274,5.0081,5.06,5.1129,5.1297,5.0792,5.1586,5.1922,5.0888,5.1177,5.1297,5.0792,5.1177,5.1273,5.0744,5.1177,5.1465,5.1465,5.1465,5.1465,5.1465,5.1465,5.1465,5.1465,5.197,5.2536,5.3066,5.3558,5.3798,5.3785,5.3785,5.3785,5.3785,5.3822,5.3822,5.3836,5.369,5.4472,5.5888,5.5717,5.5749,5.6046,5.7205,5.7965,5.8603,5.9726,6.0143,6.0177,6.0177,6.0177,6.0108,5.9753,5.9613,5.9613,5.9613,5.9578,5.948,5.8929,5.8769,5.8742,5.8742,5.9134,5.9322,5.8418,5.8665,5.8692,5.718,5.8018,5.8894,5.8296,5.7939,5.7695,5.7695,5.7695,5.7486,5.6902,5.7354,5.737,5.6291,5.672,5.7399,5.8135,5.8198,5.8483,5.9111,5.9174,5.8735,5.772,5.7308,5.666,5.5637,5.5299,5.5099,5.5099,5.5736,5.5934,5.5604,5.6236,5.6952,5.7624,5.692,5.7146,4.734,0.0,0.0,0.0,0.0,0.0,4.9626,4.9323,4.9111,5.0257,5.0357,5.036,5.0635,5.0816,5.0864,5.072,5.1586,5.2223,5.1874,5.1634,5.1441,5.1297,5.1056,5.0864,5.072,5.084,5.0912,0.0,5.0912,5.0912,5.0912,5.0912,5.0912,5.0912,5.1441,5.197,5.2536,5.3004,5.3461,5.3785,5.3785,5.3785,5.3822,5.4122,5.421,5.4199,5.3668,5.3712,5.4144,5.4363,5.4495,5.4695,5.599,5.6717,5.7181,5.8163,5.8885,5.9403,5.9403,5.9578,5.9753,5.9648,5.9613,5.9613,5.9613,5.9438,5.9122,5.8549,5.7866,5.7343,5.7343,5.7474,5.7729,5.828,5.8533,5.855,5.8104,5.8358,5.8481,5.7939,5.7765,5.7695,5.7695,5.7355,5.6981,5.685,5.6969,5.7157,5.7453,5.7207,5.7537,5.8791,5.8483,5.8357,5.8798,5.8829,5.8293,5.6985,5.7077,5.659,5.5299,5.5398,5.5365,5.5099,5.5505,5.567,5.5604,5.6033,5.6334,5.653,5.6622,5.7077,0.0,0.0,0.0,0.0,0.0,0.0,4.9053,4.8736,4.855,4.9907,4.9997,5.0025,5.0587,5.0696,5.0696,5.0696,5.1225,5.1634,5.1634,5.1345,5.1153,5.1153,5.0888,5.0696,5.0696,5.0696,5.0696,5.0696,5.0696,5.0696,5.0696,5.0696,5.0816,5.1032,5.1345,5.1754,5.232,5.2632,5.2884,5.3173,5.3173,5.3173,5.3173,5.3432,5.3543,5.3495,5.2889,5.2597,5.2608,5.2757,5.3066,5.3527,5.4632,5.5335,5.5873,5.7313,5.8121,5.8561,5.8938,5.9228,5.9333,5.8991,5.8885,5.8885,5.8885,5.8744,5.8498,5.8097,5.7415,5.6876,5.7111,5.7163,5.7399,5.8314,5.8523,5.8523,5.8523,5.8523,5.8418,5.8078,5.7852,5.7773,5.8009,5.7564,5.7163,5.7163,5.7405,5.758,5.7538,5.7692,5.8013,5.8612,5.8589,5.8574,5.87,5.8578,5.8039,5.692,5.6785,5.6295,5.5365,5.5365,5.5299,5.5099,5.5299,5.5398,5.5398,5.5736,5.5967,5.6132,5.6328,5.6752,0.0,0.0,0.0,0.0,0.0,0.0,4.8615,4.8318,4.8167,4.962,4.9497,4.9404,5.0405,5.0598,5.0563,5.0527,5.0576,5.0624,5.0696,5.0696,5.0696,5.0696,5.0696,5.0696,5.0696,5.0696,5.0696,5.0696,5.0696,5.0696,5.0696,5.0696,5.0912,5.1393,5.1393,5.1658,5.2223,5.2187,5.2235,5.232,5.232,5.232,5.232,5.232,5.232,5.2295,5.173,5.1489,5.1477,5.1243,5.1704,5.2618,5.3418,5.4049,5.4779,5.6787,5.752,5.7704,5.8578,5.8929,5.8912,5.8089,5.784,5.7892,5.7892,5.7892,5.7869,5.7747,5.7329,5.7007,5.7486,5.7643,5.7826,5.8314,5.847,5.8523,5.8523,5.8523,5.8523,5.8523,5.8104,5.7957,5.8418,5.8104,5.78,5.78,5.8296,5.8265,5.7127,5.8038,5.8575,5.8129,5.8526,5.882,5.8685,5.8427,5.7976,5.7299,5.6679,5.6153,5.5749,5.543,5.5237,5.5203,5.5158,5.5165,5.5165,5.5465,5.5736,5.6066,5.6099,5.6328,0.0,0.0,0.0,0.0,0.0,0.0,4.8065,4.8156,4.8514,4.9669,4.9575,4.9371,4.9757,4.981,4.9741,4.9466,4.9793,5.0226,5.0648,5.0696,5.0696,5.0696,5.0696,5.0696,5.0696,5.0696,5.0696,5.0696,5.0696,5.0696,5.0696,5.0696,5.0744,5.0864,5.0864,5.1105,5.1634,5.1658,5.185,5.232,5.232,5.232,5.232,5.232,5.232,5.2295,5.173,5.1489,5.1441,5.0983,5.1364,5.2252,5.3031,5.3661,5.4317,5.5797,5.6498,5.6817,5.7308,5.799,5.848,5.7551,5.7565,5.7892,5.7892,5.7892,5.7869,5.7747,5.7617,5.746,5.7059,5.7355,5.7721,5.7826,5.8183,5.8523,5.8523,5.8523,5.8523,5.8523,5.8418,5.8392,5.8497,5.8418,5.834,5.834,5.8446,5.8482,5.8326,5.8101,5.8054,5.8353,5.8184,5.8172,5.8524,5.8674,5.8452,5.7718,5.7846,5.7543,5.6594,5.6352,5.6055,5.5752,5.5575,5.5505,5.5505,5.5571,5.5637,5.5703,5.5967,5.6328,0.0,0.0,0.0,4.6975,0.0,0.0,0.0,4.8174,4.8504,4.9199,4.9,4.8752,4.912,4.9049,4.8879,4.871,4.9383,4.9913,4.9902,5.0359,5.0696,5.0696,5.0696,5.0696,5.0696,5.0696,5.0696,5.0696,5.0696,5.0696,5.0696,5.0696,5.0696,5.0696,5.0696,5.084,5.1105,5.1105,5.1225,5.1489,5.1489,5.1489,5.1489,5.1489,5.1489,5.1489,5.1225,5.1105,5.1081,5.0816,5.0971,5.1472,5.2214,5.2668,5.3106,5.4819,5.5443,5.5564,5.6716,5.728,5.7442,5.7087,5.7123,5.739,5.7595,5.7711,5.778,5.7704,5.7486,5.7294,5.7582,5.766,5.7773,5.8061,5.8314,5.8523,5.8523,5.8523,5.8523,5.8523,5.8523,5.8523,5.8523,5.8523,5.8523,5.8523,5.8523,5.8498,5.8595,5.8062,5.7945,5.853,5.8107,5.7966,5.8404,5.8408,5.8201,5.789,5.7686,5.7316,5.6686,5.6363,5.6112,5.5909,5.5527,5.5596,5.6053,5.5762,5.567,5.5868,5.6033,5.623,0.0,0.0,0.0,0.0,0.0,4.8005,0.0,0.0,0.0,4.8739,4.8337,4.8067,4.8506,4.8409,4.8166,4.8002,4.8902,4.9408,4.8878,4.971,5.0431,5.0527,5.0648,5.0696,5.0696,5.06,5.06,5.0696,5.06,5.06,5.0696,5.0696,5.0696,5.0696,5.0696,5.0696,5.0696,5.0696,5.0696,5.0696,5.0696,5.0696,5.0696,5.0696,5.0696,5.0696,5.0696,5.0696,5.0696,5.0696,5.0696,5.0767,5.1436,5.1656,5.1905,5.3845,5.4463,5.4555,5.6241,5.6637,5.637,5.6535,5.658,5.6677,5.7174,5.7419,5.7503,5.7338,5.7034,5.6929,5.7763,5.7789,5.7781,5.8226,5.8444,5.8523,5.8523,5.8418,5.8392,5.8497,5.8418,5.8392,5.8497,5.8523,5.8523,5.8523,5.8523,5.8523,5.8523,5.8104,5.8044,5.8536,5.8191,5.8054,5.8347,5.8096,5.7971,5.7997,5.7448,5.7014,5.6717,5.6314,5.604,5.5909,5.5599,5.578,5.6424,5.6008,5.5868,5.6033,5.6164,5.6164,0.0,0.0,0.0,0.0,4.8265,0.0,0.0,0.0,4.8391,4.8746,0.0,4.7766,4.7815,0.0,0.0,4.7001,4.7786,4.8291,4.7762,4.8603,4.948,4.9937,5.0407,5.0696,5.0696,5.0263,5.0202,5.0672,5.0274,5.0226,5.0672,5.0696,5.0696,5.0696,5.0696,5.0696,5.0696,5.0696,5.0696,5.0696,5.0696,5.0696,5.0696,5.0696,5.0696,5.0696,5.0696,5.0696,5.0696,5.0696,5.0696,5.0731,5.113,5.1247,5.1425,5.2878,5.3778,5.4444,5.5499,5.5835,5.58,5.5797,5.5823,5.5996,5.6845,5.7033,5.6764,5.6114,5.6213,5.647,5.6085,5.6701,5.7497,5.7729,5.8157,5.8523,5.8523,5.8104,5.793,5.8418,5.8104,5.7957,5.8418,5.8523,5.8523,5.8523,5.8523,5.8523,5.8523,5.8444,5.835,5.8278,5.8368,5.8385,5.8241,5.8342,5.8419,5.8419,5.8349,5.8052,5.7582,5.7015,5.6458,5.5909,5.6496,5.6565,5.6146,5.642,5.6263,5.567,5.6328,5.6426,0.0,0.0,0.0,0.0,0.0,0.0,0.0,0.0,4.8064,0.0,0.0,0.0,0.0,0.0,0.0,0.0,4.7401,4.8069,4.7423,4.8255,4.9058,4.9418,4.9614,0.0,5.0226,5.0033,5.0129,5.0648,5.0191,5.0154,5.0672,5.0696,5.0696,5.0696,5.0696,5.0696,5.0696,5.0696,5.0696,5.0696,5.0696,5.0696,5.0696,5.0696,5.0696,5.0696,5.0696,5.0696,5.0696,5.0696,5.0696,5.0696,5.0873,5.1025,5.1376,5.2784,5.3327,5.3563,5.5378,5.5277,5.4384,5.4359,5.4727,5.5116,5.489,5.5216,5.5564,5.5254,5.5641,5.6236,5.6747,5.724,5.7664,5.806,5.834,5.8523,5.8523,5.8314,5.8235,5.847,5.8314,5.8235,5.847,5.8523,5.8523,5.8523,5.8523,5.8523,5.8523,5.8235,5.8122,5.8342,5.7835,5.7756,5.8315,5.8184,5.8262,5.8815,5.8499,5.814,5.7695,5.6771,5.6327,5.6432,5.6283,5.6332,5.6611,5.7001,5.6873,5.623,5.6584,5.6616,4.7855,0.0,0.0,0.0,0.0,0.0,0.0,0.0,0.0,0.0,0.0,0.0,0.0,0.0,0.0,0.0,0.0,4.7946,4.7086,4.7774,4.847,4.869,0.0,0.0,0.0,4.9552,4.9696,5.0215,4.9734,4.9769,5.0431,5.0479,5.0551,5.0696,5.0696,5.0696,5.0696,5.0696,5.0696,5.0696,5.0696,5.0696,5.0696,5.0696,5.0696,5.0696,5.0696,5.0696,5.0696,5.0696,5.0696,5.0696,5.0696,5.0873,5.1201,5.2258,5.2531,5.2636,5.453,5.4381,5.334,5.3244,5.3607,5.4028,5.3512,5.3781,5.4252,5.4045,5.4482,5.5289,5.6512,5.697,5.7299,5.826,5.8523,5.8523,5.8523,5.8392,5.8314,5.847,5.8392,5.834,5.8497,5.8523,5.8523,5.8523,5.8523,5.8523,5.8523,5.8157,5.8052,5.847,5.7765,5.7608,5.8444,5.8131,5.8219,5.8885,5.8236,5.779,5.7695,5.6693,5.6275,5.6562,5.622,5.6299,5.6744,5.7108,5.7124,5.6844,5.7006,5.6946,0.0,0.0,0.0,4.7953,0.0,0.0,0.0,0.0,4.7568,0.0,0.0,0.0,0.0,0.0,0.0,0.0,0.0,0.0,0.0,0.0,4.7394,4.7685,0.0,0.0,0.0,4.8652,4.8555,4.9119,4.8628,4.8796,4.9865,4.9937,5.0178,5.0696,5.0696,5.0696,5.0696,5.0696,5.0696,5.0696,5.0696,5.0696,5.0696,5.0696,5.0696,5.0696,5.0696,5.0696,5.0696,5.0696,5.0696,5.0696,5.0696,5.0696,5.0731,5.0767,5.1225,5.1905,5.2516,5.2925,5.3112,5.2749,5.2509,5.2536,5.3418,5.3366,5.2801,5.2109,5.2295,5.3014,5.434,5.5081,5.5994,5.8011,5.8523,5.8523,5.8523,5.8078,5.7878,5.8392,5.8078,5.7904,5.8418,5.8523,5.8523,5.8523,5.8523,5.8523,5.8523,5.8497,5.8497,5.8523,5.847,5.847,5.8523,5.8497,5.8497,5.8523,5.7451,5.712,5.7669,5.7085,5.651,5.5935,5.6799,5.6874,5.6125,5.6518,5.6877,5.7201,5.777,5.758,0.0,0.0,4.7925,4.7223,0.0,0.0,0.0,0.0,0.0,0.0,0.0,0.0,0.0,0.0,0.0,0.0,0.0,0.0,0.0,0.0,4.6162,4.6775,0.0,0.0,0.0,0.0,4.8507,4.9071,4.8579,4.8603,4.9335,4.972,4.9985,5.0178,5.0503,5.0696,5.0696,5.0696,5.0696,5.0696,5.0696,5.0696,5.0696,5.0696,5.0696,5.0696,5.0696,5.0696,5.0696,5.0696,5.0696,5.0696,5.0696,5.0696,5.0767,5.1236,5.149,5.1617,5.1811,5.2508,5.3107,5.1782,5.1872,5.2418,5.1869,5.2268,5.2742,5.2015,5.2625,5.3797,5.4988,5.5791,5.6693,5.8146,5.8523,5.8523,5.8523,5.8366,5.8287,5.847,5.8366,5.8287,5.847,5.8523,5.8523,5.8523,5.8523,5.8523,5.8523,5.8523,5.8523,5.8523,5.8183,5.8104,5.847,5.8157,5.7983,5.7983,5.7242,5.6902,5.7085,5.6536,5.6301,5.651,5.6273,5.6352,5.6691,5.7055,5.7227,5.7233,5.783,5.7711,4.8246,4.7952,0.0,4.7112,4.7156,0.0,4.6641,0.0,0.0,0.0,0.0,0.0,0.0,0.0,0.0,0.0,0.0,0.0,0.0,4.5966,0.0,0.0,0.0,0.0,0.0,4.7934,4.8088,4.8517,4.8026,4.805,0.0,4.9143,4.9504,4.9889,5.025,5.0503,5.0696,5.0696,5.0696,5.0696,5.0696,5.0696,5.0696,5.0696,5.0696,5.0696,5.0696,5.0696,5.0696,5.0696,5.0696,5.0696,5.0696,5.0696,5.0767,5.1236,5.1313,5.1201,5.1201,5.1894,5.2599,5.1161,5.1408,5.2157,5.1357,5.1586,5.2099,5.2087,5.2615,5.3544,5.4902,5.5837,5.6721,5.7903,5.8366,5.8523,5.8523,5.8523,5.8523,5.8523,5.8523,5.8523,5.8523,5.8523,5.8523,5.8523,5.8523,5.8523,5.8523,5.834,5.8209,5.8209,5.7686,5.7503,5.7869,5.7582,5.7381,5.7381,5.6798,5.6484,5.6484,5.6118,5.616,5.6689,5.6156,5.6339,5.7184,5.7201,5.7227,5.7233,5.783,5.7776]},{"header":{"parameterUnit":"m.s-1","parameterCategory":1,"la1":30.6,"la2":29.2853,"lo1":-89.7004,"lo2":-87.6739,"dy":0.0162,"dx":0.0183,"nx":112,"ny":82,"refTime":"2023-03-15T12:00:00:Z","depth":0,"parameterNumber":3,"parameterNumberName":"V-component_of_WINDS"},"data":[0.0,0.0,0.0,0.0,0.0,0.0,0.0,0.0,0.0,0.0,0.0,0.0,0.0,0.0,0.0,0.0,0.0,0.0,0.0,0.0,0.0,0.0,0.0,0.0,0.0,0.0,0.0,0.0,0.0,0.0,0.0,0.0,0.0,0.0,0.0,0.0,0.0,0.0,0.0,0.0,0.0,0.0,0.0,0.0,0.0,0.0,0.0,0.0,0.0,0.0,0.0,0.0,0.0,0.0,0.0,0.0,0.0,0.0,0.0,0.0,0.0,0.0,0.0,0.0,0.0,0.0,0.0,0.0,0.0,0.0,0.0,0.0,0.0,0.0,0.0,0.0,0.0,0.0,0.0,0.0,0.0,0.0,0.0,0.0,0.0,0.0,0.0,0.0,0.0,0.0,0.0,3.06,3.1395,3.1906,3.1933,3.1795,3.1328,3.0537,0.0,0.0,0.0,0.0,0.0,0.0,0.0,0.0,0.0,0.0,0.0,0.0,0.0,0.0,0.0,0.0,0.0,0.0,0.0,0.0,0.0,0.0,0.0,0.0,0.0,0.0,0.0,0.0,0.0,0.0,0.0,0.0,0.0,0.0,0.0,0.0,0.0,0.0,0.0,0.0,0.0,0.0,0.0,0.0,0.0,0.0,0.0,0.0,0.0,0.0,0.0,0.0,0.0,0.0,0.0,0.0,0.0,0.0,0.0,0.0,0.0,0.0,0.0,0.0,0.0,0.0,0.0,0.0,0.0,0.0,0.0,0.0,0.0,0.0,0.0,0.0,0.0,0.0,0.0,0.0,0.0,0.0,0.0,0.0,0.0,0.0,0.0,0.0,0.0,0.0,0.0,0.0,0.0,0.0,0.0,0.0,0.0,0.0,0.0,0.0,0.0,0.0,0.0,0.0,3.0324,3.1843,3.2146,3.2313,3.2556,3.2523,3.2035,3.0896,0.0,0.0,0.0,0.0,0.0,0.0,0.0,0.0,0.0,0.0,0.0,0.0,0.0,0.0,0.0,0.0,0.0,0.0,0.0,0.0,0.0,0.0,0.0,0.0,0.0,0.0,0.0,0.0,0.0,0.0,0.0,0.0,0.0,0.0,0.0,0.0,0.0,0.0,0.0,0.0,0.0,0.0,0.0,0.0,0.0,0.0,0.0,0.0,0.0,0.0,0.0,0.0,0.0,0.0,0.0,0.0,0.0,0.0,0.0,0.0,0.0,0.0,0.0,0.0,0.0,0.0,0.0,0.0,0.0,0.0,0.0,0.0,0.0,0.0,0.0,0.0,0.0,0.0,0.0,0.0,0.0,0.0,0.0,0.0,0.0,0.0,0.0,0.0,0.0,0.0,0.0,0.0,0.0,0.0,0.0,0.0,0.0,0.0,0.0,0.0,0.0,0.0,0.0,3.0542,3.1264,3.2683,3.3102,3.3329,3.3467,3.3181,3.2701,3.1906,3.07,0.0,0.0,0.0,0.0,0.0,0.0,0.0,0.0,0.0,0.0,0.0,0.0,0.0,0.0,0.0,0.0,0.0,0.0,0.0,0.0,0.0,0.0,0.0,0.0,0.0,0.0,0.0,0.0,0.0,0.0,0.0,0.0,0.0,0.0,0.0,0.0,0.0,0.0,0.0,0.0,0.0,0.0,0.0,0.0,0.0,0.0,0.0,0.0,0.0,0.0,0.0,0.0,0.0,0.0,0.0,0.0,0.0,0.0,0.0,0.0,0.0,0.0,0.0,0.0,0.0,0.0,0.0,0.0,0.0,0.0,0.0,0.0,0.0,0.0,0.0,0.0,0.0,0.0,0.0,0.0,0.0,0.0,0.0,0.0,0.0,0.0,0.0,0.0,0.0,0.0,0.0,0.0,0.0,0.0,0.0,0.0,0.0,0.0,0.0,0.0,0.0,0.0,3.1886,3.2362,3.3446,3.3899,3.4114,3.4199,3.3717,3.3192,3.2739,3.1682,0.0,0.0,0.0,0.0,0.0,0.0,0.0,0.0,0.0,0.0,0.0,0.0,0.0,0.0,0.0,0.0,0.0,0.0,0.0,0.0,0.0,0.0,0.0,0.0,0.0,0.0,0.0,0.0,0.0,0.0,0.0,0.0,0.0,0.0,0.0,0.0,0.0,0.0,0.0,0.0,0.0,0.0,0.0,0.0,0.0,0.0,0.0,0.0,0.0,0.0,0.0,0.0,0.0,0.0,0.0,0.0,0.0,0.0,0.0,0.0,0.0,0.0,0.0,0.0,0.0,0.0,0.0,0.0,0.0,0.0,0.0,0.0,0.0,0.0,0.0,0.0,0.0,0.0,0.0,0.0,0.0,0.0,0.0,0.0,0.0,0.0,0.0,0.0,0.0,0.0,0.0,0.0,0.0,0.0,0.0,0.0,0.0,0.0,0.0,0.0,0.0,0.0,3.2518,3.3495,3.4342,3.4233,3.4199,3.4451,3.4048,3.3459,3.2766,3.2146,0.0,0.0,0.0,0.0,0.0,0.0,0.0,0.0,0.0,0.0,0.0,0.0,0.0,0.0,0.0,0.0,0.0,0.0,0.0,0.0,0.0,0.0,0.0,0.0,0.0,0.0,0.0,0.0,0.0,0.0,0.0,0.0,0.0,0.0,0.0,0.0,0.0,0.0,0.0,0.0,0.0,0.0,0.0,0.0,0.0,0.0,0.0,0.0,0.0,0.0,0.0,0.0,0.0,0.0,0.0,0.0,0.0,0.0,0.0,0.0,0.0,0.0,0.0,0.0,0.0,0.0,0.0,0.0,0.0,0.0,0.0,0.0,0.0,0.0,0.0,0.0,0.0,0.0,0.0,0.0,0.0,0.0,0.0,0.0,0.0,0.0,0.0,0.0,0.0,0.0,0.0,0.0,0.0,0.0,0.0,0.0,0.0,0.0,0.0,0.0,0.0,0.0,3.2293,3.3014,0.0,3.4423,3.4479,3.4785,3.4304,3.3758,3.3222,0.0,0.0,0.0,0.0,0.0,0.0,0.0,0.0,0.0,0.0,0.0,0.0,0.0,0.0,0.0,0.0,0.0,0.0,0.0,0.0,0.0,0.0,0.0,0.0,0.0,0.0,0.0,0.0,0.0,0.0,0.0,0.0,0.0,0.0,0.0,0.0,0.0,0.0,0.0,0.0,0.0,0.0,0.0,0.0,0.0,0.0,0.0,0.0,0.0,0.0,0.0,0.0,0.0,0.0,0.0,0.0,0.0,0.0,0.0,0.0,0.0,0.0,0.0,0.0,0.0,0.0,0.0,0.0,0.0,0.0,0.0,0.0,0.0,0.0,0.0,0.0,0.0,0.0,0.0,0.0,0.0,0.0,0.0,0.0,0.0,0.0,0.0,0.0,0.0,0.0,0.0,0.0,0.0,0.0,0.0,0.0,0.0,0.0,0.0,0.0,0.0,0.0,3.225,3.2642,3.3258,0.0,3.4562,3.4674,3.5091,3.4604,3.4082,3.3648,0.0,0.0,0.0,0.0,0.0,0.0,0.0,0.0,0.0,0.0,0.0,0.0,0.0,0.0,0.0,0.0,0.0,0.0,0.0,0.0,0.0,0.0,0.0,0.0,0.0,0.0,0.0,0.0,0.0,0.0,0.0,0.0,0.0,0.0,0.0,0.0,0.0,0.0,0.0,0.0,0.0,0.0,0.0,0.0,0.0,0.0,0.0,0.0,0.0,0.0,0.0,0.0,0.0,0.0,0.0,0.0,0.0,0.0,0.0,0.0,0.0,0.0,0.0,0.0,0.0,0.0,0.0,0.0,0.0,0.0,0.0,0.0,0.0,0.0,0.0,0.0,0.0,0.0,0.0,0.0,0.0,0.0,0.0,0.0,0.0,0.0,0.0,0.0,0.0,0.0,0.0,0.0,0.0,0.0,0.0,0.0,0.0,0.0,0.0,0.0,0.0,0.0,3.2722,3.3758,3.4624,3.4952,3.4702,3.4758,3.5368,3.4975,3.4459,0.0,0.0,0.0,0.0,0.0,0.0,0.0,0.0,0.0,0.0,0.0,0.0,0.0,0.0,0.0,0.0,0.0,0.0,0.0,0.0,0.0,0.0,0.0,0.0,0.0,0.0,0.0,0.0,0.0,0.0,0.0,0.0,0.0,0.0,0.0,0.0,0.0,0.0,0.0,0.0,0.0,0.0,0.0,0.0,0.0,0.0,0.0,0.0,0.0,0.0,0.0,0.0,0.0,0.0,0.0,0.0,0.0,0.0,0.0,0.0,0.0,0.0,0.0,0.0,0.0,0.0,0.0,0.0,0.0,0.0,0.0,0.0,0.0,0.0,0.0,0.0,0.0,0.0,0.0,0.0,0.0,0.0,0.0,0.0,0.0,0.0,0.0,0.0,0.0,0.0,0.0,0.0,0.0,0.0,0.0,0.0,0.0,0.0,0.0,0.0,0.0,0.0,0.0,3.2974,3.4132,3.5019,3.5268,3.5202,3.5285,3.5671,3.5398,3.4922,3.4306,0.0,0.0,0.0,0.0,0.0,0.0,0.0,0.0,0.0,0.0,0.0,0.0,0.0,0.0,0.0,0.0,0.0,0.0,0.0,0.0,0.0,0.0,0.0,0.0,0.0,0.0,0.0,0.0,0.0,0.0,0.0,0.0,0.0,0.0,0.0,0.0,0.0,0.0,0.0,0.0,0.0,0.0,0.0,0.0,0.0,0.0,0.0,0.0,0.0,0.0,0.0,0.0,0.0,0.0,0.0,0.0,0.0,0.0,0.0,0.0,0.0,0.0,0.0,0.0,0.0,0.0,0.0,0.0,0.0,0.0,0.0,0.0,0.0,0.0,0.0,0.0,0.0,0.0,0.0,0.0,0.0,0.0,0.0,0.0,0.0,0.0,0.0,0.0,0.0,0.0,0.0,0.0,0.0,0.0,0.0,0.0,0.0,0.0,0.0,0.0,0.0,0.0,3.3453,3.4795,3.5771,3.5927,3.5922,3.5977,3.6141,3.6004,3.5608,3.4869,0.0,0.0,0.0,0.0,0.0,0.0,0.0,0.0,0.0,0.0,0.0,0.0,0.0,0.0,0.0,0.0,0.0,0.0,0.0,0.0,0.0,0.0,0.0,0.0,0.0,0.0,0.0,0.0,0.0,0.0,0.0,0.0,0.0,0.0,0.0,0.0,0.0,0.0,0.0,0.0,0.0,0.0,0.0,0.0,0.0,0.0,0.0,0.0,0.0,0.0,0.0,0.0,0.0,0.0,0.0,0.0,0.0,0.0,0.0,0.0,0.0,0.0,0.0,0.0,0.0,0.0,0.0,0.0,0.0,0.0,0.0,0.0,0.0,0.0,0.0,0.0,0.0,0.0,0.0,0.0,0.0,0.0,0.0,0.0,0.0,0.0,0.0,0.0,0.0,0.0,0.0,0.0,0.0,0.0,0.0,0.0,0.0,0.0,0.0,0.0,0.0,0.0,3.4159,3.5684,3.6793,3.6739,3.6739,3.6739,3.6739,3.6739,3.6399,3.5623,0.0,0.0,0.0,0.0,0.0,0.0,0.0,0.0,0.0,0.0,0.0,0.0,0.0,0.0,0.0,0.0,0.0,0.0,0.0,0.0,0.0,0.0,0.0,0.0,0.0,0.0,0.0,0.0,0.0,0.0,0.0,0.0,0.0,0.0,0.0,0.0,0.0,0.0,0.0,0.0,0.0,0.0,0.0,0.0,0.0,0.0,0.0,0.0,0.0,0.0,0.0,0.0,0.0,0.0,0.0,0.0,0.0,0.0,0.0,0.0,3.2943,0.0,0.0,0.0,0.0,0.0,0.0,0.0,0.0,0.0,0.0,0.0,0.0,0.0,0.0,0.0,0.0,0.0,0.0,0.0,0.0,0.0,0.0,0.0,0.0,0.0,0.0,0.0,0.0,0.0,0.0,0.0,0.0,0.0,0.0,0.0,0.0,0.0,0.0,0.0,0.0,0.0,3.4996,3.6403,3.7328,3.7036,3.7012,3.7012,3.7012,3.7012,3.6798,3.623,0.0,0.0,0.0,0.0,0.0,0.0,0.0,0.0,0.0,0.0,0.0,0.0,0.0,0.0,0.0,0.0,0.0,0.0,0.0,0.0,0.0,0.0,0.0,0.0,0.0,0.0,0.0,0.0,0.0,0.0,0.0,0.0,0.0,0.0,0.0,0.0,0.0,0.0,0.0,0.0,0.0,0.0,0.0,0.0,0.0,0.0,0.0,0.0,0.0,0.0,0.0,0.0,0.0,0.0,0.0,0.0,0.0,0.0,0.0,0.0,0.0,3.4088,0.0,0.0,0.0,0.0,0.0,0.0,0.0,0.0,0.0,0.0,0.0,0.0,0.0,0.0,0.0,0.0,0.0,0.0,0.0,0.0,0.0,0.0,0.0,0.0,0.0,0.0,0.0,0.0,0.0,0.0,0.0,0.0,0.0,0.0,0.0,0.0,0.0,0.0,0.0,0.0,3.5788,3.6967,3.7732,3.7548,3.7521,3.7492,3.7358,3.7331,3.716,3.6767,3.6142,0.0,0.0,0.0,0.0,0.0,0.0,0.0,0.0,0.0,0.0,0.0,0.0,0.0,0.0,0.0,0.0,0.0,0.0,0.0,0.0,0.0,0.0,0.0,0.0,0.0,0.0,0.0,0.0,0.0,0.0,0.0,0.0,0.0,0.0,0.0,0.0,0.0,0.0,0.0,0.0,0.0,0.0,0.0,0.0,0.0,0.0,0.0,0.0,0.0,0.0,0.0,0.0,0.0,3.5348,3.565,3.6275,3.6275,3.6553,3.7032,3.6598,3.6119,3.5596,0.0,0.0,0.0,0.0,0.0,0.0,0.0,0.0,0.0,0.0,0.0,0.0,0.0,0.0,0.0,0.0,0.0,0.0,0.0,0.0,0.0,0.0,0.0,0.0,0.0,3.598,3.5715,0.0,0.0,0.0,0.0,0.0,0.0,0.0,0.0,0.0,0.0,0.0,0.0,3.6672,3.7541,3.8193,3.8289,3.8262,3.8206,3.7989,3.7866,3.7688,3.7419,3.6826,3.647,0.0,0.0,0.0,0.0,0.0,0.0,0.0,0.0,0.0,0.0,0.0,0.0,0.0,0.0,0.0,0.0,0.0,0.0,0.0,0.0,0.0,0.0,0.0,0.0,0.0,0.0,0.0,0.0,0.0,0.0,0.0,0.0,3.6161,3.6739,0.0,0.0,0.0,0.0,0.0,0.0,0.0,0.0,0.0,0.0,0.0,0.0,0.0,3.7258,3.7195,3.7467,3.7616,3.7592,3.7593,3.7892,3.8465,3.8465,3.879,3.9265,3.9214,0.0,3.5953,3.6009,0.0,0.0,0.0,0.0,0.0,0.0,0.0,0.0,0.0,0.0,0.0,0.0,0.0,0.0,0.0,0.0,0.0,0.0,0.0,0.0,0.0,0.0,3.7625,3.802,3.8071,3.8287,0.0,3.7104,3.4788,3.471,0.0,0.0,0.0,0.0,0.0,0.0,0.0,0.0,3.7726,3.8305,3.886,3.9345,3.9393,3.9365,3.9338,3.8929,3.8638,3.8584,3.744,3.6761,3.6761,3.5676,0.0,0.0,0.0,0.0,0.0,0.0,0.0,0.0,0.0,0.0,0.0,0.0,0.0,0.0,0.0,0.0,0.0,0.0,0.0,0.0,0.0,0.0,0.0,0.0,0.0,0.0,0.0,0.0,0.0,3.7168,3.756,3.7508,3.7769,3.786,0.0,0.0,0.0,0.0,0.0,0.0,0.0,0.0,0.0,3.7858,3.8125,3.8204,3.8064,3.8213,3.8491,3.8944,3.8944,3.9421,4.0249,4.0432,4.0662,4.089,4.089,4.0167,3.8937,3.7644,3.6545,3.5613,0.0,0.0,0.0,0.0,3.4549,3.4801,3.5372,3.5888,0.0,0.0,0.0,0.0,0.0,0.0,0.0,0.0,0.0,0.0,0.0,0.0,0.0,3.9884,3.9831,3.9793,4.0557,3.9299,3.775,0.0,3.7124,3.7065,3.6001,0.0,0.0,0.0,0.0,0.0,3.8431,3.8936,3.9345,3.9585,3.9609,3.9609,3.9609,3.9101,3.8788,3.8788,3.7964,3.7479,3.7479,3.6585,3.5975,0.0,0.0,0.0,0.0,0.0,0.0,0.0,0.0,0.0,0.0,0.0,0.0,0.0,0.0,0.0,0.0,0.0,0.0,0.0,0.0,0.0,0.0,0.0,0.0,0.0,0.0,0.0,0.0,3.8161,3.8553,3.8161,3.8606,3.8588,0.0,0.0,0.0,0.0,0.0,0.0,3.8409,3.8727,3.8827,3.871,3.906,3.9163,3.9018,3.917,3.955,4.0124,4.0124,4.0524,4.1302,4.1649,4.1809,4.1809,4.1889,4.1784,4.1443,3.9373,3.8233,3.7724,3.687,3.6398,3.6251,3.637,3.6444,3.6584,3.7257,3.7673,3.7854,3.7793,0.0,3.7333,3.677,0.0,0.0,0.0,0.0,3.8129,3.9458,3.9873,4.0215,4.1289,4.1051,4.0782,4.1327,4.1059,4.0351,0.0,3.9038,3.8665,3.7305,0.0,0.0,0.0,0.0,3.8884,3.9149,3.9561,3.985,3.9994,4.0018,4.0018,4.0018,3.9393,3.9005,3.9005,3.8359,3.8,3.8,3.7376,3.6932,3.679,0.0,0.0,0.0,0.0,0.0,0.0,0.0,0.0,0.0,0.0,0.0,0.0,0.0,0.0,0.0,0.0,0.0,0.0,0.0,0.0,0.0,0.0,0.0,0.0,0.0,0.0,0.0,0.0,0.0,3.8661,3.9207,0.0,0.0,0.0,0.0,3.7956,3.8683,3.8944,3.8433,3.8897,3.93,3.9544,4.0107,4.0543,4.0768,4.1274,4.1419,4.1227,4.1227,4.1252,4.1302,4.1649,4.1809,4.1809,4.2076,4.2182,4.2103,4.1121,4.0128,3.918,3.8863,3.8281,3.7658,3.8186,3.8674,3.9121,3.9382,4.0177,4.0985,4.0476,3.981,3.918,3.9131,3.8542,0.0,0.0,3.9301,3.9736,4.0902,4.1008,4.1049,4.1927,4.1489,4.1253,4.2604,4.2013,4.1078,0.0,4.0169,3.978,3.9221,0.0,3.874,3.8716,3.8791,3.9176,4.0186,4.0331,4.0547,4.1081,4.1129,4.1129,4.1129,4.0162,3.9561,3.9561,3.8575,3.8,3.8,3.7708,3.731,3.6813,3.6763,0.0,0.0,0.0,0.0,0.0,0.0,0.0,0.0,0.0,0.0,0.0,0.0,0.0,0.0,0.0,0.0,0.0,0.0,0.0,0.0,0.0,0.0,0.0,0.0,0.0,0.0,0.0,0.0,3.9285,3.9758,0.0,3.9076,3.9268,3.9386,3.925,3.9699,4.0067,4.0312,4.0844,4.1103,4.1,4.1387,4.1434,4.1161,4.1336,4.1586,4.1884,4.1884,4.2057,4.2384,4.2686,4.2932,4.3148,4.3257,4.3393,4.3503,4.3039,4.2074,4.0868,4.0573,4.0261,4.0032,4.0229,4.0198,4.0139,4.0552,4.0735,4.0817,4.0979,4.0827,4.06,4.06,4.036,4.0272,4.0968,4.1218,4.1439,4.2198,4.2301,4.2323,4.2635,4.2479,4.2374,4.2886,4.2696,4.2329,4.2157,4.1524,4.0699,3.9657,3.9692,3.9705,3.9369,3.9609,3.997,4.0355,4.0691,4.098,4.1201,4.0884,4.0812,4.1177,4.021,3.9753,4.009,3.9104,3.8527,3.8527,3.811,3.7769,3.7577,3.7216,3.6611,0.0,0.0,0.0,0.0,0.0,0.0,0.0,0.0,0.0,0.0,0.0,0.0,0.0,0.0,0.0,0.0,0.0,0.0,0.0,0.0,0.0,0.0,0.0,0.0,0.0,0.0,3.9886,3.9886,4.0359,4.0463,3.9914,4.0179,4.0373,4.041,4.0893,4.1232,4.1358,4.1905,4.206,4.1784,4.2042,4.2138,4.199,4.1934,4.2183,4.2738,4.2738,4.2939,4.3291,4.3776,4.4158,4.4491,4.4575,4.4771,4.502,4.4742,4.4057,4.3148,4.2466,4.2124,4.2017,4.2017,4.1745,4.139,4.1745,4.1636,4.1417,4.1745,4.1854,4.1854,4.1854,4.1854,4.1957,4.2361,4.2462,4.2537,4.2914,4.3014,4.3014,4.3014,4.314,4.3212,4.3039,4.3263,4.346,4.32,4.2468,4.1537,4.038,4.0386,4.0371,3.995,4.0162,4.0451,4.0643,4.098,4.1201,4.1201,4.086,4.0812,4.1177,4.0379,4.0018,4.0379,3.9561,3.8981,3.8788,3.8455,3.8166,3.8,3.7469,3.6934,3.6395,0.0,0.0,0.0,0.0,0.0,0.0,0.0,0.0,0.0,0.0,0.0,0.0,0.0,0.0,0.0,0.0,0.0,0.0,0.0,0.0,0.0,0.0,0.0,3.9651,4.0071,4.0437,4.0437,4.0985,4.1116,4.0515,4.1306,4.1699,4.1362,4.2111,4.2235,4.1381,4.1916,4.2076,4.1781,4.2122,4.265,4.3427,4.3176,4.3288,4.3815,4.3815,4.3815,4.384,4.4709,4.5279,4.5594,4.5879,4.6191,4.6445,4.6108,4.5995,4.5863,4.4472,4.376,4.3485,4.3457,4.329,4.3065,4.3065,4.3065,4.3065,4.3065,4.3065,4.3065,4.3065,4.3065,4.3065,4.3065,4.3065,4.3065,4.3065,4.3065,4.3065,4.3065,4.3467,4.3718,4.3193,4.3894,4.4381,4.3622,4.2988,4.2301,4.1527,4.1073,4.0768,4.0535,4.0455,0.0,4.1153,4.1201,4.1201,4.1201,4.1201,4.1201,4.1201,4.0715,4.0427,4.0427,3.9922,3.9393,3.886,3.8812,3.8575,3.8048,3.7519,3.7204,3.7204,0.0,0.0,0.0,0.0,0.0,0.0,0.0,0.0,0.0,0.0,0.0,0.0,0.0,0.0,0.0,0.0,0.0,0.0,0.0,0.0,0.0,0.0,4.0672,4.0228,4.0672,4.1219,4.1663,4.2186,4.2474,4.2292,4.2527,4.2554,4.2267,4.2448,4.2574,4.253,4.269,4.3021,4.3586,4.368,4.3897,4.4253,4.4195,4.4242,4.4364,4.4364,4.4364,4.4392,4.4655,4.4908,4.525,4.5336,4.5651,4.6134,4.6023,4.6163,4.6278,4.5459,4.5076,4.4991,4.471,4.4424,4.4166,4.4166,4.4166,4.4166,4.4166,4.4166,4.4166,4.4166,4.4166,4.4166,4.4166,4.4166,4.4166,4.4166,4.4166,4.4224,4.4453,4.4637,4.477,4.4846,4.4935,4.4911,4.4673,4.4296,4.38,4.316,4.2643,4.2283,4.2225,4.1683,0.0,4.1492,4.1316,4.1201,4.1201,4.1201,4.1201,4.1201,4.1052,4.098,0.0,4.0475,4.0114,3.997,3.9585,3.9128,3.8599,3.8046,3.7589,0.0,0.0,0.0,0.0,0.0,0.0,0.0,0.0,0.0,0.0,0.0,0.0,0.0,0.0,0.0,0.0,0.0,0.0,0.0,0.0,0.0,0.0,4.1607,4.2103,4.1735,4.1897,4.2135,4.2474,4.2814,4.3101,4.3363,4.3572,4.37,4.3693,4.3773,4.3923,4.4081,4.3986,4.4185,4.4826,4.4852,4.4992,4.5349,4.5121,4.5063,4.5145,4.5145,4.5087,4.4995,4.5192,4.5523,0.0,4.5816,4.6054,4.6492,4.6492,4.672,0.0,0.0,0.0,0.0,0.0,4.5192,4.502,4.485,4.4792,4.4792,4.4647,4.4589,4.4618,4.4763,4.4705,4.4618,4.4763,4.4792,4.4792,4.4792,4.4908,4.5077,4.5279,4.5486,4.5588,4.5416,4.5632,4.5711,4.5337,0.0,0.0,4.4848,4.3853,4.314,4.3221,4.263,4.2221,4.2441,4.2229,4.2026,4.2026,4.1962,4.1875,4.1875,4.1658,0.0,0.0,0.0,4.0619,4.0403,3.9898,0.0,0.0,0.0,3.8691,0.0,0.0,0.0,0.0,3.7889,3.7733,0.0,0.0,0.0,0.0,0.0,0.0,0.0,0.0,0.0,0.0,0.0,0.0,0.0,0.0,0.0,0.0,4.2834,4.3754,4.3833,4.3651,4.3441,4.3311,4.3337,4.3598,4.4254,4.4671,4.5085,4.5413,4.5604,4.5699,4.5682,0.0,0.0,0.0,0.0,4.5975,4.659,4.6132,4.6013,4.6252,4.6252,4.6104,4.5892,4.6366,4.6713,4.6983,4.6953,4.7078,4.7325,4.7325,4.7559,4.781,4.7012,4.6486,4.6174,4.5917,4.5802,4.5716,4.5428,0.0,0.0,4.4994,4.4881,4.4965,4.5255,4.5139,4.4965,4.5226,4.5313,4.5341,4.5284,4.5515,4.5799,4.5828,4.6187,4.6331,4.5559,4.6158,4.6624,4.5792,4.6004,4.6301,4.6301,4.484,4.3705,4.3885,4.3427,4.3225,4.3698,4.3453,4.3246,4.3246,0.0,0.0,4.2849,4.2434,4.214,4.2091,4.1658,4.1153,4.0595,4.0114,3.9826,3.9705,3.993,4.0019,4.0001,4.0302,4.0463,4.0512,3.9019,3.8797,0.0,0.0,0.0,0.0,0.0,0.0,0.0,0.0,0.0,0.0,0.0,0.0,0.0,0.0,0.0,4.3856,4.4678,4.5342,4.5848,4.6272,4.6192,4.5209,4.534,4.5815,4.6643,4.6581,4.6631,4.6958,4.6568,4.634,4.6332,4.6087,4.6013,4.6232,4.6257,4.6744,4.7744,4.7671,4.7897,4.84,0.0,0.0,4.8334,4.8161,4.8094,4.8156,4.7823,4.7884,4.8192,4.8192,4.8528,4.8972,4.8186,4.7684,4.7367,4.7308,4.7133,4.6898,4.6813,4.6784,4.6784,4.6725,4.6696,4.6696,4.6754,4.6725,0.0,4.651,4.6628,4.6751,4.651,4.6688,4.6957,4.7221,4.7357,4.7408,4.7246,4.7166,4.7027,4.6624,4.6431,4.6301,4.6301,4.5643,4.5108,4.5149,4.4464,4.3991,4.409,4.3801,4.36,4.36,4.3695,4.3583,4.3146,4.3174,4.3048,4.2669,4.2549,4.2236,4.1706,4.161,4.1153,4.0258,4.029,4.0213,4.0001,4.0056,4.0303,4.0717,4.0411,4.0137,0.0,0.0,0.0,0.0,0.0,0.0,0.0,0.0,0.0,0.0,0.0,4.186,0.0,0.0,4.4439,4.5449,4.6223,4.6812,4.7106,4.7291,4.7098,4.6323,4.6425,4.6688,4.7118,4.7243,4.7428,4.7569,4.7483,4.7391,4.7338,4.7393,4.751,4.7759,4.7988,4.8402,4.9002,4.9002,4.9066,4.9198,4.9198,4.9132,4.9004,4.8851,4.8733,4.8733,4.8548,4.8553,4.8707,4.9045,4.9259,4.939,4.933,4.9094,4.8797,4.8797,4.8525,4.8143,4.7939,4.7699,4.7383,4.7112,4.7112,4.7205,4.7205,4.7205,4.7205,4.7231,4.7349,4.7412,4.7316,4.7468,4.7762,4.7909,4.7821,4.7752,4.7858,4.7761,4.7654,4.7658,4.7648,4.7648,4.7648,4.742,4.6944,4.6034,4.5304,4.4935,4.521,4.4968,4.4734,4.4734,4.468,4.4548,4.4279,4.3953,4.347,4.2843,4.2789,4.2729,4.2616,4.2469,4.2198,4.1813,4.1813,4.1812,4.1859,4.159,4.1674,4.2086,4.148,4.1132,0.0,0.0,0.0,0.0,0.0,0.0,0.0,0.0,4.1137,4.1884,4.2384,4.312,4.4676,4.5262,4.5795,4.6623,4.7456,4.797,4.797,4.7911,4.7797,4.7463,4.7299,4.7245,4.7407,4.7859,4.8152,4.8209,4.8541,4.8691,4.8563,4.8925,4.9159,4.9247,4.9662,4.9949,5.0054,5.0054,4.9985,4.9845,4.9845,4.9692,4.9497,4.9436,4.9405,4.9405,4.9343,4.9312,4.9343,4.9901,4.9967,4.9784,5.0389,5.048,5.0185,4.9976,4.961,4.9214,4.8949,4.8547,4.8069,4.756,4.7564,4.7717,4.7717,4.7717,4.7777,4.7955,4.8073,4.8103,4.8044,4.8276,4.8512,4.8512,4.8335,4.8173,4.8309,4.8351,4.8415,4.8595,4.882,4.9004,4.9004,4.9004,4.8462,4.6899,4.6385,4.6259,4.6456,4.6341,4.619,4.609,4.5726,4.5453,4.53,4.467,4.3959,4.3246,4.3192,4.324,4.3357,4.3173,4.3124,4.3276,4.3324,4.3472,4.3796,4.3378,4.3301,4.3532,4.2672,4.2243,4.2014,4.153,4.1119,4.1158,4.1338,4.1644,0.0,0.0,4.2839,4.3228,4.3126,4.3494,4.5183,4.5368,4.5766,4.7403,4.8184,4.8588,4.8588,4.9242,4.9623,4.9339,4.8601,4.8437,4.9229,4.9365,4.9504,4.9732,5.0072,5.0106,4.981,5.0348,5.04,4.9823,4.9845,5.0159,5.0681,5.0681,5.0917,5.1325,5.1325,5.1351,5.1288,5.1002,5.0876,5.0845,5.0535,5.0409,5.044,5.0845,5.0939,5.0944,5.132,5.1444,5.1282,5.0263,4.9845,4.9793,4.9762,4.971,4.9628,4.9594,4.9568,4.9598,4.9598,4.9598,4.9537,4.9296,4.9417,4.9568,4.9296,4.9447,4.9688,4.9688,4.9658,4.9594,4.9313,4.9252,4.9186,4.8979,4.8974,4.9004,4.9004,4.9004,4.8743,4.8012,4.8293,4.8242,4.7244,4.7517,4.7645,4.7108,4.6516,4.5939,4.5361,4.5196,4.4994,4.4609,4.4578,4.4366,4.3916,4.3886,4.3817,4.3654,4.363,4.3801,4.4119,4.4069,4.4074,4.4103,4.4466,4.3988,4.2826,4.2605,4.2286,4.2518,4.2777,4.2956,4.2862,4.3176,4.3673,4.4095,4.4518,4.5262,4.6813,4.7324,4.7835,0.0,4.9298,4.946,4.946,4.9648,4.9727,4.9613,4.9578,4.9576,4.9611,4.9934,5.0151,5.0266,5.0891,5.0952,5.0274,5.0954,5.1062,5.045,5.0707,5.0995,5.1256,5.1256,5.1361,5.1596,5.1596,5.1904,5.2376,5.169,5.1377,5.1377,5.1251,5.1283,5.1497,5.1815,5.197,5.2027,5.2337,5.2342,5.2072,5.1202,5.0681,5.042,5.042,5.0185,4.9867,4.9659,4.972,4.9867,4.9659,4.975,4.9867,4.972,4.9806,4.9867,4.972,4.9958,5.0169,5.0169,5.0199,5.0187,5.0193,5.021,5.0222,5.0219,5.039,5.0488,5.0488,5.0488,5.0307,4.9762,4.9301,4.8533,4.7117,4.7448,4.754,4.6771,4.6451,4.609,4.5635,4.5574,4.5453,4.5117,4.5086,4.508,4.5047,4.4841,4.4894,4.5211,4.5032,4.5181,4.5716,4.5212,4.4974,4.4949,4.4668,4.4392,4.3146,4.3323,4.3319,4.3565,4.3936,4.4201,4.3913,4.4308,4.489,4.5448,4.6169,4.7055,4.8136,4.8622,4.9108,4.9787,4.9897,4.9897,4.9897,4.9918,4.9941,4.9941,5.0507,5.0696,5.0238,5.0615,5.0856,5.0856,5.16,5.1688,5.0823,5.1505,5.1671,5.1052,5.1387,5.1596,5.1596,5.169,5.1768,5.1831,5.1862,5.2286,5.2965,5.2202,5.1783,5.1596,5.1815,5.2075,5.2389,5.27,5.2935,5.3126,5.3342,5.3312,5.3032,5.2538,5.1903,5.1299,5.1299,5.101,5.0611,5.0342,5.0433,5.0611,5.0342,5.0433,5.0642,5.0642,5.0642,5.0642,5.0642,5.0763,5.0911,5.1001,5.0945,5.0929,5.1101,5.1149,5.1161,5.1231,5.1408,5.1596,5.1596,5.1596,5.1413,5.0864,5.0078,4.9008,4.7607,4.7632,4.7482,4.6746,4.6691,4.6511,4.609,4.6059,4.5878,4.5453,4.5453,4.5544,4.5787,4.5574,4.5696,4.6271,4.6059,4.618,4.6665,4.6112,4.5792,4.5703,4.5246,4.5149,4.2865,4.3424,4.3876,4.3876,4.4546,4.5288,4.5874,4.6461,4.7065,4.759,4.7989,4.8333,4.8641,4.8499,4.8602,4.9475,4.9613,4.9613,4.9613,5.0327,5.0878,5.0878,5.1392,5.1742,0.0,5.1772,5.1772,5.1772,5.2314,5.2371,5.1709,5.2242,5.2253,5.1601,5.1596,5.1596,5.1596,5.1934,5.2223,5.2459,5.254,5.2722,5.2997,5.27,5.2218,5.1627,5.228,5.2718,5.2997,5.3311,5.3814,5.4352,5.4352,5.4352,5.4352,5.432,5.3543,5.2531,5.2531,5.2531,5.2504,5.2504,5.2504,5.2504,5.2504,5.2504,5.2504,5.2504,5.2504,5.2504,5.2504,5.2258,5.213,5.2443,5.2258,5.2037,5.2063,5.2063,5.197,5.1659,5.1596,5.1596,5.1596,5.1596,5.1413,5.0864,5.0786,5.0311,4.9188,4.8535,4.8052,4.7703,4.7674,4.7409,4.6836,4.6776,4.6506,4.5817,4.5787,4.5787,4.5787,4.5787,4.5939,4.6271,4.6271,4.6271,4.6301,4.6601,4.6601,4.6276,4.6853,4.6794,4.4774,4.5012,4.5169,4.5739,4.6572,4.7162,4.6999,4.7698,4.8292,4.7889,4.8375,4.8863,4.8975,4.9243,4.9647,5.0355,5.0464,5.0599,5.1005,5.1307,5.1473,5.1473,5.2016,0.0,0.0,0.0,0.0,5.2101,5.32,5.3616,5.2908,5.3312,5.3419,5.3155,5.2728,5.2634,5.2772,5.2894,5.2999,5.3086,5.398,5.4235,5.3954,5.4488,5.4133,5.3155,5.3598,5.3862,5.3954,5.4301,5.4687,5.5064,5.5064,5.5064,5.5064,5.5064,5.4795,5.4382,5.3944,5.3787,5.3787,5.3787,5.3787,5.3787,5.3787,5.3787,5.3707,5.3308,5.3045,5.2783,5.2381,5.2183,5.2121,5.2245,5.2523,5.2707,5.2492,5.243,5.2311,5.1996,5.1752,5.1596,5.1596,5.1596,5.1544,5.1361,5.0184,4.9204,4.8815,4.8066,4.7656,4.7923,4.7974,4.8039,4.8237,4.8049,4.7835,4.7621,4.735,4.7195,4.7195,4.7195,4.735,4.7688,4.7688,4.7902,4.8384,4.8475,4.845,4.8363,4.8575,4.848,4.5975,4.6513,4.6918,4.7271,4.8055,4.8567,4.8129,4.8672,4.9136,4.8674,4.9219,4.9656,4.9466,4.9738,5.0281,5.1095,5.1041,5.1204,5.1988,5.2124,5.2124,5.2124,5.2669,5.3022,0.0,0.0,0.0,5.3022,5.3961,5.4352,5.4034,5.419,5.4252,5.4086,5.3615,5.3461,5.376,5.376,5.3889,5.4139,5.505,5.5184,5.4622,5.5562,5.5285,5.4113,5.4804,5.5012,5.4948,5.5266,5.5654,5.6034,5.6034,5.6034,5.6034,5.6034,5.6034,5.5916,5.5041,5.4781,5.4781,5.4781,5.4781,5.4781,5.4781,5.4781,5.47,5.4293,5.4002,5.3739,5.3241,5.3036,5.2889,5.2646,5.2842,5.2943,5.2487,5.243,5.2337,5.1996,5.1752,5.1596,5.1596,5.1596,5.1518,5.1335,5.0215,4.9386,4.9386,4.8661,4.8309,4.8696,4.8747,4.8842,4.9111,4.8922,4.8707,4.8517,4.8244,4.8032,4.7908,4.7908,4.8001,4.8218,4.8218,4.8491,4.9071,4.9193,4.9229,4.9259,4.9477,4.9381,4.6427,4.7785,4.8924,4.8382,4.8946,4.9535,4.9221,4.9405,4.9752,4.9953,5.0471,5.0688,5.0118,0.0,5.0444,5.1636,5.1394,5.1448,5.2669,5.2832,5.2805,0.0,0.0,0.0,0.0,0.0,0.0,5.4514,0.0,5.4662,5.4912,5.4938,5.4839,5.4544,5.4166,5.4166,5.448,5.4512,5.4829,5.5487,5.5739,5.5557,5.5051,5.5961,5.5685,5.4602,5.5802,5.6173,5.5858,5.6205,5.6685,5.7206,5.7206,5.7206,5.7206,5.7206,5.7206,5.7038,5.5898,5.5491,5.5491,5.5491,5.5491,5.5491,5.5491,5.5491,5.5491,5.5464,5.5433,5.5343,5.4975,5.4627,5.424,5.3623,5.3243,5.2807,5.2253,5.209,5.1996,5.169,5.1596,5.1596,5.1596,5.1596,5.1413,5.0917,5.0838,5.0812,5.076,5.0237,4.9897,4.9923,4.9949,4.9828,4.9524,4.9494,4.9245,4.8624,4.8593,4.8407,4.8014,4.8008,4.7983,4.8014,4.8014,4.8226,4.8624,4.8902,4.9056,4.9143,4.9729,4.9698,4.7595,4.8083,4.8517,4.8815,4.9383,4.9898,4.9792,5.0197,5.0467,5.009,5.0118,5.02,5.0037,5.0363,5.1068,5.226,5.2723,0.0,5.4538,5.4324,0.0,5.4026,0.0,5.3782,5.4216,5.4243,0.0,0.0,5.5437,5.5311,5.5562,5.5807,5.6023,5.6101,5.5602,5.5414,5.5679,5.5679,5.5906,5.6354,5.6451,5.6521,5.6643,5.6843,5.665,5.616,5.6741,5.6795,5.6504,5.6828,5.7038,5.7206,5.7206,5.7206,5.7206,5.7206,5.7206,5.7146,5.6848,5.6739,5.6739,5.6739,5.6739,5.6739,5.6739,5.6739,5.6631,5.6197,5.5902,5.5545,5.5051,5.4469,5.389,5.325,5.3055,5.2807,5.2253,5.209,5.2059,5.1996,5.1752,5.1596,5.1596,5.1596,5.1544,5.1413,5.1387,5.1073,5.0237,5.0002,5.0054,5.0498,5.0551,5.0703,5.1033,5.0805,5.0492,5.0084,4.9831,4.9666,4.9546,4.9291,4.9418,4.99,4.9673,4.9831,5.043,5.0492,5.068,5.0961,5.109,5.1059,4.8517,4.8978,4.9385,4.9466,4.9956,5.0335,5.0064,5.0254,5.0417,5.0091,5.001,5.001,5.001,5.0498,5.1285,5.2506,5.3212,5.4026,5.5247,5.5111,5.4894,5.4894,5.4596,0.0,5.4867,5.4894,5.5301,0.0,5.6007,5.5998,5.6374,5.6589,5.6751,5.6915,5.6456,5.6235,5.6361,5.6524,5.6687,5.6942,5.6942,5.7012,5.7233,5.7477,5.732,5.6942,0.0,5.732,5.6942,5.7109,5.7206,5.7206,5.7206,5.7206,5.7206,5.7206,5.7206,5.7206,5.7206,5.7206,5.7206,5.7206,5.7206,5.7206,5.7206,5.7206,5.7119,5.6794,5.6557,5.6315,5.5805,5.5403,5.4948,5.4177,5.4012,5.3853,5.3238,5.3106,5.3026,5.2788,5.2341,5.2001,5.1846,5.1815,5.1752,5.1627,5.1596,5.1361,5.0734,5.0629,5.076,5.11,5.1152,5.1256,5.157,5.1408,5.122,5.1031,5.0842,5.0709,5.0518,5.0359,5.0455,5.0836,5.0646,5.0804,5.134,5.134,5.1408,5.1596,5.1596,5.1727,4.9222,4.9983,5.0661,5.0146,5.039,5.0634,5.0118,5.001,5.001,5.001,5.001,5.0037,5.0118,5.0607,5.1421,5.2642,5.332,5.4134,5.5355,5.5464,5.5437,5.5518,5.5464,5.5437,5.5518,5.5545,5.579,5.6359,5.6414,5.6631,5.7146,5.7206,5.7206,5.7206,5.6942,5.6806,5.6887,5.7098,5.726,5.7342,5.7342,5.7342,5.7342,5.7939,5.7939,5.7445,0.0,0.0,5.7342,5.7342,5.7287,5.7206,5.7206,5.7206,5.7206,5.7206,5.7206,5.7206,5.7206,5.7206,5.7206,5.7206,5.7206,5.7206,5.7206,5.7206,5.7206,5.7206,5.7206,5.7109,5.6844,5.6747,5.6488,5.558,5.5349,5.5098,5.4432,5.4245,5.4,5.3494,5.2961,5.2496,5.2214,5.2183,5.2059,5.1721,5.1659,5.1659,5.1659,5.1627,5.1622,5.1701,5.1727,5.1753,5.1831,5.1894,5.1894,5.1831,5.1894,5.1769,5.1479,5.1448,5.1448,5.1479,5.1479,5.158,5.1831,5.1925,5.1925,5.1831,5.1894,5.2182,4.9819,5.001,5.0146,5.0037,5.0091,5.0146,5.0037,5.001,5.001,5.001,5.001,5.0146,5.0661,5.1258,5.2043,5.3266,5.3944,5.4758,5.598,5.5708,5.56,5.6088,5.5708,5.56,5.6115,5.6142,0.0,0.0,5.7038,5.7065,5.7174,5.7206,5.7206,5.7206,5.7141,5.7353,5.7841,5.7418,5.745,5.7939,5.7939,5.7939,5.7966,5.8557,5.8774,5.8693,5.8802,0.0,5.7939,5.7939,5.7667,5.7206,5.7206,5.7206,5.7206,5.7206,5.7206,5.7206,5.7206,5.7206,5.7206,5.7206,5.7206,5.7206,5.7206,5.7206,5.7206,5.7206,5.7206,5.7174,5.7109,5.6909,5.652,5.587,5.551,5.4991,5.3894,5.3254,5.2881,5.2775,5.2668,5.2558,5.2496,5.2496,5.2399,5.2059,5.2027,5.2027,5.2027,5.1752,5.1779,5.2276,5.2328,5.2537,5.3034,5.3316,5.338,5.3124,5.3354,5.3482,5.3418,5.313,5.3124,5.3412,5.3418,5.3316,5.3086,5.3636,5.3636,5.3086,5.3348,5.3427,5.0849,5.0715,5.0471,5.0471,5.0227,5.001,5.001,5.001,5.001,5.001,5.0254,5.0471,5.0444,5.1175,5.1988,5.2558,5.3429,5.446,5.5654,5.5871,5.6088,5.6685,5.6495,5.6441,5.6739,5.6766,5.6875,5.7174,5.7206,5.7206,5.7206,5.7206,5.7342,5.7667,5.7667,5.7966,5.8557,5.8259,5.8259,5.8557,5.8557,5.8557,5.8557,5.8856,5.8992,5.8992,5.8992,0.0,5.8557,5.8557,5.8395,5.8123,5.8123,5.8123,5.8123,5.8123,5.8123,5.8123,5.8123,5.8123,5.8069,5.7776,5.7477,5.7206,5.7206,5.7206,5.7206,5.7206,5.7206,5.7206,5.7206,5.7077,5.6893,5.6596,5.6257,5.5864,5.5302,5.4712,5.4284,5.4284,5.39,5.3581,5.353,5.3281,5.305,5.3023,5.2623,5.2481,5.296,5.2628,5.2455,5.2744,5.3218,5.354,5.3638,5.3985,5.415,5.4182,5.4315,5.441,5.441,5.4278,5.4246,5.4405,5.4437,5.4341,5.4177,5.45,5.4405,5.3921,5.4113,5.424,5.15,5.1258,5.0905,5.0905,5.0444,5.0037,5.0173,5.0091,5.001,5.001,5.039,5.0607,5.0254,5.0958,5.169,5.1934,5.2805,5.389,5.522,5.5817,5.6387,5.7092,5.7206,5.7206,5.7206,5.7206,0.0,5.7206,5.7342,5.7396,5.7396,5.7396,5.7694,5.8265,5.8292,5.8557,5.9182,5.9073,5.9073,5.9182,5.9182,5.9182,5.9209,5.9317,5.9371,5.9371,5.9371,0.0,0.0,5.9182,5.9127,5.8992,5.8992,5.8992,5.8992,5.8992,5.8992,5.8992,5.8992,5.891,5.872,5.8265,5.7776,5.7396,5.726,5.7206,5.7206,5.7206,5.7206,5.7206,5.7206,5.7206,5.7206,5.7206,5.6898,5.6623,5.6623,5.6165,5.5702,5.5702,5.5078,5.4565,5.4515,5.4126,5.3867,5.397,5.3461,5.3297,5.4001,5.3827,5.3615,5.3615,5.4198,5.4517,5.4361,5.4709,5.5029,5.5256,5.5352,5.5383,5.5383,5.5383,5.5352,5.5288,5.5352,5.532,5.5161,5.532,5.5161,5.4746,5.4842,5.5109,5.1122,5.0932,5.0905,5.0905,5.0444,5.0146,5.0688,5.039,5.001,5.001,5.0064,5.0227,5.0715,5.0905,5.1339,5.2452,5.2723,5.3402,5.5166,5.5464,5.5925,5.7038,5.7206,5.7206,5.7206,5.7206,5.7206,5.7206,5.7722,5.802,5.802,5.802,5.8292,5.891,5.891,5.9209,5.9806,5.9263,5.929,5.9806,5.9806,5.9806,5.9833,6.0382,6.0627,6.0627,6.0627,0.0,0.0,5.9806,5.948,5.8992,5.8992,5.8992,5.8992,5.8992,5.8992,5.8992,5.8992,5.8639,5.8183,5.8129,5.8075,5.7912,5.7396,5.7206,5.7206,5.7206,5.7206,5.7206,5.7206,5.7206,5.7206,5.7206,5.6766,5.6355,5.6355,5.5862,5.5428,5.5428,5.5132,5.4862,5.488,5.4795,5.47,5.4405,5.4542,5.4732,5.4817,5.522,5.5542,5.5537,5.5339,5.5386,5.5853,5.6266,5.652,5.6553,5.6817,5.6978,5.6978,5.6978,5.6849,5.6553,5.6817,5.6655,5.6004,5.6655,5.6623,5.5972,5.6298,5.6325,5.15,5.1419,5.1419,5.1419,5.0715,5.0173,5.077,5.0444,5.001,5.001,5.0308,5.0498,5.039,5.0661,5.1177,5.2016,5.2151,5.2911,5.508,5.5566,5.6127,5.7359,5.8017,5.8131,5.7555,0.0,5.7976,5.7749,5.8286,5.8874,5.9433,5.8934,5.891,5.9507,5.9534,5.9806,6.0464,6.0219,6.0219,6.0464,6.0464,6.0464,6.0464,6.0708,6.0817,6.0817,6.0817,0.0,0.0,6.0464,6.0301,6.0084,6.0084,5.986,5.9534,5.9534,5.9534,5.9534,5.9534,5.9371,5.9133,5.8747,5.84,5.8075,5.7803,5.7504,5.7287,5.764,5.7504,5.7206,5.7206,5.7206,5.7206,5.7206,5.6882,5.6558,5.6558,5.6369,5.6084,5.5859,5.5623,5.5424,5.5353,5.521,5.5077,5.5126,5.5119,5.5264,5.558,5.5725,5.5934,5.6278,5.6402,5.6445,5.6459,5.6785,5.7006,5.7006,5.7109,5.7206,5.7206,5.7206,5.7141,5.7006,5.7109,5.7044,5.6752,5.7044,5.7044,5.6785,5.6915,5.6915,5.1799,5.1934,5.207,5.207,5.1148,5.0417,5.1041,5.058,5.001,5.001,5.0335,5.0498,5.0091,5.0363,5.0905,5.1663,5.2022,5.2978,5.5236,5.601,5.6695,5.7738,5.8425,5.8572,5.7935,5.83,5.8631,5.8756,5.9158,5.9742,6.0483,5.9987,5.9893,6.0301,6.0226,6.0382,6.0817,6.0817,6.0817,6.0817,6.0817,6.0817,6.0817,6.0817,6.0817,6.0817,0.0,0.0,0.0,6.0817,6.0817,6.079,6.06,6.0274,5.9887,5.9887,5.9778,5.9643,5.9833,5.9676,5.9324,5.8856,5.8455,5.8102,5.8102,5.7803,5.7613,5.821,5.8075,5.7689,5.7532,5.7477,5.7423,5.726,5.7012,5.6844,5.6844,5.6779,5.6649,5.6459,5.6072,5.5782,5.5914,5.5655,5.5554,5.5881,5.5883,5.5977,5.6373,5.6311,5.6391,5.679,5.7044,5.7077,5.6877,5.7044,5.7206,5.7206,5.7206,5.7206,5.7206,5.7206,5.7206,5.7206,5.7206,5.7206,5.7206,5.7206,5.7206,5.7206,5.7206,5.7206,5.1799,5.2233,5.2696,5.2696,5.1774,5.1041,5.1636,5.0849,5.001,5.001,5.001,5.001,5.001,5.001,5.0388,5.1609,5.2582,5.38,5.5662,5.671,5.7508,5.8115,5.8198,5.8198,5.8198,5.8429,5.9084,6.0295,6.0377,0.0,6.0797,6.1098,6.1302,6.1302,6.0961,6.079,6.0817,6.0817,6.0817,6.0817,6.0817,6.0817,6.0817,6.0817,6.0817,0.0,0.0,0.0,0.0,6.0817,6.0817,6.0735,6.0165,5.9887,5.9887,5.9887,5.9507,5.91,5.967,5.9133,5.8129,5.8102,5.8102,5.8102,5.8102,5.8102,5.821,5.8802,5.8992,5.8829,5.8265,5.8102,5.7939,5.7342,5.7206,5.7174,5.7174,5.6942,5.6812,5.7109,5.6328,5.5835,5.6584,5.6361,5.623,5.6649,5.6947,5.7174,5.7174,5.7174,5.7174,5.7174,5.7206,5.7206,5.7206,5.7206,5.7206,5.7206,5.7206,5.7206,5.7206,5.7206,5.7206,5.7206,5.7206,5.7206,5.7206,5.7206,5.7206,5.7206,5.7206,5.7206,5.066,5.1014,5.1584,5.1961,5.1502,5.1068,5.1663,5.1204,5.0498,5.0091,5.001,5.001,5.001,5.001,5.0474,5.1929,5.2728,5.3917,5.5942,5.7052,5.8018,5.9046,5.9157,5.9352,5.9801,5.9472,5.955,6.035,6.0579,6.0804,6.1132,6.1029,6.0961,6.0961,6.1063,6.1029,6.0817,6.1029,6.1029,6.0817,6.0817,6.0817,6.0817,6.0817,0.0,0.0,0.0,0.0,0.0,6.0817,6.0817,6.079,6.06,6.0274,5.9833,5.9426,5.9154,5.8964,5.8753,5.8428,5.8102,5.8102,5.783,5.7559,5.7966,5.84,5.8747,5.8937,5.8395,5.7798,5.8047,5.8102,5.7966,5.7342,5.7532,5.7694,5.7314,5.7109,5.7039,5.6877,5.6584,5.6328,5.6295,5.6394,5.6459,5.6328,5.6817,5.7109,5.6909,5.7044,5.7206,5.7206,5.7206,5.7206,5.7206,5.7206,5.7206,5.7206,5.7206,5.7206,5.7206,5.7206,5.7206,5.7206,5.7206,5.7206,5.7206,5.7206,5.7206,5.7206,5.7206,5.7206,4.9983,5.0634,5.1394,5.1988,5.1529,5.1068,5.1663,5.1148,5.0444,5.0091,5.001,5.001,5.001,5.02,5.0775,5.2101,5.3096,5.4403,5.6335,5.7586,5.8697,5.9643,5.9783,6.0066,6.0709,6.0341,6.0297,6.0908,6.0981,6.0995,6.1098,6.1029,6.0995,6.0995,6.1166,6.12,6.0995,6.12,6.1132,6.0817,6.0817,6.0817,6.0817,6.0817,0.0,0.0,0.0,0.0,0.0,6.0817,6.0817,6.079,6.0545,6.0247,5.9833,5.948,5.9209,5.8937,5.8557,5.8292,5.8075,5.783,5.7667,5.7749,5.8808,5.9242,5.929,5.9073,5.8612,5.821,5.8129,5.8102,5.7966,5.7342,5.7504,5.7667,5.7287,5.7077,5.7006,5.6909,5.6655,5.6492,5.6524,5.6622,5.6682,5.6524,5.6915,5.7109,5.6942,5.7044,5.7206,5.7206,5.7206,5.7206,5.7206,5.7206,5.7206,5.7206,5.7206,5.7206,5.7206,5.7206,5.7206,5.7206,5.7206,5.7206,5.7206,5.7206,5.7206,5.7206,5.7206,5.7206,0.0,5.0687,5.1744,5.2341,5.1692,5.1041,5.1609,5.0849,0.0,5.001,5.001,5.001,5.0064,5.0525,5.1238,5.224,5.3632,5.5174,5.6726,5.8289,5.9483,6.01,6.0157,6.0409,6.1116,6.0996,6.1154,6.1761,6.1472,6.1132,6.0817,6.1098,6.1268,6.1302,6.1302,6.1302,6.1302,6.1302,6.1166,6.0817,6.0817,6.0817,6.0817,6.0817,0.0,0.0,0.0,0.0,0.0,6.0817,6.0817,6.0797,6.0192,5.9941,5.9941,5.9914,5.9534,5.9073,5.9019,5.8612,5.8075,5.7532,5.7722,5.8482,6.0165,6.0301,5.9724,5.9263,5.9426,5.9541,5.8455,5.8129,5.7966,5.7342,5.7233,5.726,5.7233,5.6974,5.6844,5.7141,5.6655,5.6394,5.7077,5.6942,5.6844,5.7141,5.7206,5.7206,5.7206,5.7206,5.7206,5.7206,5.7206,5.7206,5.7206,5.7206,5.7206,5.7206,5.7206,5.7206,5.7206,5.7206,5.7206,5.7206,5.7206,5.7206,5.7206,5.7206,5.7206,5.7206,5.7206,5.7206,4.7595,0.0,4.9873,5.047,5.077,5.0932,0.0,5.0878,5.0553,5.0118,5.001,5.0146,5.0607,5.0797,5.146,5.3079,5.4055,5.5233,5.7029,5.8778,6.0129,6.0807,6.0863,6.1116,6.1734,6.128,6.1154,6.1761,6.1268,6.0858,6.0817,6.0858,6.1029,6.1268,6.1546,6.1546,6.1302,6.1546,6.1377,6.0817,6.0817,6.0817,6.0817,6.0817,0.0,0.0,0.0,0.0,6.1546,6.0995,6.0927,6.1132,6.0756,6.06,6.0545,6.0084,5.9806,5.9616,5.9154,5.891,5.8747,5.8612,5.8666,5.8856,5.929,5.9317,5.9371,6.0165,5.9486,5.8563,5.872,5.8455,5.7966,5.7342,5.7559,5.7776,5.7314,5.7141,5.7109,5.7174,5.7044,5.7012,5.7174,5.7109,5.7109,5.7174,5.7206,5.7206,5.7206,5.7206,5.7206,5.7206,5.7206,5.7206,5.7206,5.7206,5.7206,5.7206,5.7206,5.7206,5.7206,5.7206,5.7206,5.7206,5.7206,5.7206,5.7206,5.7206,5.7206,5.7206,5.7206,5.7206,4.6544,4.7785,4.9249,4.9846,5.0254,5.0553,5.0824,5.0688,5.039,5.0091,5.001,5.02,5.0797,5.1238,5.2045,5.3473,5.4313,5.5496,5.7514,5.8896,6.0048,6.1003,6.1088,6.134,0.0,6.158,6.1524,6.2024,6.1438,6.1166,6.1506,6.154,6.1743,6.2248,6.2454,6.2287,6.181,6.2119,6.2119,6.1749,6.1749,6.1749,6.1749,6.1749,6.1777,0.0,0.0,0.0,6.1783,6.1234,6.1132,6.1268,6.1098,6.0927,6.0762,6.0437,6.0396,6.045,5.9683,5.9236,5.9046,5.9317,5.9399,5.9453,5.9724,5.9806,5.9833,5.9941,5.9296,5.8503,5.8557,5.8156,5.7613,5.7287,5.745,5.7613,5.7287,5.7423,5.7532,5.726,5.7423,5.7532,5.726,5.7206,5.7206,5.7206,5.7206,5.7206,5.7206,5.7206,5.7206,5.7206,5.7206,5.7206,5.7206,5.7206,5.7206,5.7206,5.7206,5.7206,5.7206,5.7206,5.7206,5.7206,5.7206,5.7206,5.7206,5.7206,5.7206,5.7206,5.7206,5.7206,4.6114,4.7568,4.9142,4.9603,4.9846,5.0146,5.0661,5.0363,5.001,5.001,5.0091,5.0335,5.099,5.1902,5.2906,5.3893,5.488,5.6179,5.8163,5.8896,5.9711,6.1088,6.1172,6.1401,6.2136,6.2047,6.2119,6.2515,6.1945,6.181,6.2448,6.2482,6.2748,6.3315,6.3381,6.315,6.2648,6.2853,6.2952,6.2919,6.2919,6.2919,6.2919,6.2919,6.2753,0.0,0.0,0.0,6.1991,6.1641,6.1472,6.1438,6.1404,6.12,6.0961,6.0961,6.1098,6.1179,6.0321,5.9731,5.9411,5.9894,6.0023,6.0138,6.0654,6.0817,6.0572,5.9453,5.9073,5.8856,5.8265,5.7667,5.7233,5.7342,5.7287,5.7233,5.7342,5.7749,5.7966,5.745,5.7749,5.7939,5.745,5.7287,5.7206,5.7206,5.7206,5.7206,5.7206,5.7206,5.7206,5.7206,5.7206,5.7206,5.7206,5.7206,5.7206,5.7206,5.7206,5.7206,5.7206,5.7206,5.7206,5.7206,5.7206,5.7206,5.7206,5.7206,5.7206,5.7206,5.7206,5.7206,4.6705,4.7731,4.8736,4.8518,4.9249,5.0037,5.0118,5.0091,5.001,5.001,5.0417,5.1046,5.1905,5.3061,5.4201,5.5434,5.6854,5.8104,5.8921,5.9149,5.9848,6.165,6.1425,6.1667,6.3056,6.2896,6.2886,6.3216,6.2886,6.272,6.282,6.282,6.2886,6.2985,6.3249,6.3479,6.368,6.3446,6.3183,6.2919,6.2919,6.2919,6.2919,6.2919,6.3018,0.0,0.0,6.2886,6.3117,6.2482,6.2214,6.218,6.185,6.1715,6.1648,6.1648,6.1478,6.1234,6.0811,6.077,6.092,6.0695,6.0654,6.0681,6.0762,6.0817,6.0654,5.9941,5.9371,5.8856,5.8265,5.7667,5.7342,5.7857,5.7586,5.7342,5.7857,5.802,5.8075,5.7993,5.8047,5.8075,5.7993,5.7559,5.7206,5.7206,5.7206,5.7206,5.7206,5.7206,5.7206,5.7206,5.7206,5.7206,5.7206,5.7206,5.7206,5.7206,5.7206,5.7206,5.7206,5.7206,5.7206,5.7206,5.7206,5.7206,5.7206,5.7206,5.7206,5.7206,5.7206,5.7206,4.6356,4.7513,4.868,4.8518,4.9501,5.0488,5.0488,5.0488,5.057,5.0899,5.1173,5.1833,5.327,5.4136,5.5095,5.6518,5.7624,5.8502,5.9121,5.9483,6.0336,0.0,0.0,6.2353,6.359,6.3381,6.3315,6.3675,6.3381,6.3348,6.3769,6.3769,6.3839,6.4034,6.4163,6.4325,6.4486,6.4325,6.4196,6.4034,6.4034,6.4034,6.4034,6.4034,6.4001,6.3997,0.0,6.3446,6.3348,6.2853,6.2582,6.2381,6.2214,6.1985,6.185,6.2052,6.1884,6.158,6.1641,6.1506,6.1268,6.1098,6.0927,6.0817,6.0817,6.0572,6.0192,5.9561,5.9209,5.8937,5.8639,5.7912,5.7418,5.8373,5.8129,5.7776,5.8047,5.8373,5.8367,5.7749,5.7885,5.7993,5.7667,5.7396,5.7206,5.7206,5.7206,5.7206,5.7206,5.7206,5.7206,5.7206,5.7206,5.7206,5.7206,5.7206,5.7206,5.7206,5.7206,5.7206,5.7206,5.7206,5.7206,5.7206,5.7206,5.7206,5.7206,5.7206,5.7206,5.7206,5.7206,5.7206,4.6758,4.781,4.887,4.9253,5.0106,5.0934,5.1072,5.1099,5.1293,5.19,5.2259,5.2868,5.4228,5.5106,5.6157,5.7769,5.8306,5.8814,5.9636,6.003,6.0836,6.2433,6.2608,6.3025,6.4037,6.3867,6.3834,6.4224,6.3936,6.4001,6.4579,6.4612,6.474,6.4996,6.4996,6.4996,6.4996,6.4996,6.4996,6.4996,6.4996,6.4996,6.4996,6.4996,6.4868,6.4579,6.4293,6.3969,6.361,6.3282,6.2886,6.2515,6.2415,6.2214,6.1985,6.2281,6.2248,6.2086,6.2214,6.1945,6.154,6.1336,6.1132,6.0892,6.0688,6.0274,5.9724,5.8992,5.8774,5.8747,5.8612,5.7988,5.7662,5.8747,5.853,5.8183,5.8455,5.8747,5.872,5.7798,5.7885,5.7966,5.7504,5.7314,5.7206,5.7206,5.7342,5.7423,5.7423,5.7423,5.7423,5.7423,5.7287,5.7206,5.7206,5.7206,5.7206,5.7206,5.7206,5.7206,5.7206,5.7206,5.7206,5.7206,5.7206,5.7206,5.7206,5.7206,5.7206,5.7206,5.7206,5.7206,4.8954,4.9226,4.9414,5.0849,5.1045,5.1044,5.1597,5.1735,5.1928,5.2592,5.3644,5.4339,5.4186,5.5821,5.7798,5.9595,5.9455,5.9664,6.1197,6.0977,6.1216,6.2758,6.2965,6.3379,6.4361,6.4418,6.4547,6.49,6.49,6.4932,6.4964,6.4964,6.4996,6.4996,6.4996,6.4996,6.4996,6.4996,6.4996,6.4996,6.4996,6.4996,6.4996,6.4996,6.4996,6.4964,6.4932,6.474,6.4386,6.4062,6.3479,6.282,6.2515,6.2381,6.2348,6.2381,6.2582,6.2715,6.2086,6.2052,6.2214,6.1506,6.1268,6.1118,6.0206,5.9914,5.9676,5.8509,5.8156,5.8047,5.7445,5.7694,5.821,5.8856,5.853,5.84,5.9541,5.9344,5.8964,5.8883,5.8449,5.8102,5.8047,5.7586,5.7206,5.7206,5.7694,5.8047,5.8047,5.8047,5.8047,5.8047,5.7532,5.7206,5.7206,5.7206,5.7206,5.7206,5.7206,5.7206,5.7206,5.7206,5.7206,5.7206,5.7206,5.7206,5.7206,5.7206,5.7206,5.7206,5.7206,5.7206,4.868,4.9196,4.9599,5.0596,5.1431,5.2073,5.2324,5.2352,5.2771,5.4196,5.4838,5.5482,5.6523,5.7402,5.8446,5.9876,5.9783,6.014,6.1912,6.1819,6.2162,6.374,6.3916,6.4131,6.4743,6.4804,6.4868,6.4996,6.4996,6.4996,6.4996,6.4996,6.4996,6.4996,6.4996,6.4996,6.4996,6.4996,6.4996,6.4996,6.4996,6.4996,6.4996,6.4996,6.4996,6.4996,6.4996,6.4804,6.4512,6.4354,6.39,6.315,6.2615,6.2381,6.2381,6.2381,6.2615,6.2814,6.2348,6.2281,6.2281,6.154,6.1302,6.1207,6.0648,5.9914,5.9317,5.9269,5.8699,5.8047,5.783,5.7667,5.7803,5.8774,5.8829,5.8774,5.9236,5.9154,5.8883,5.8503,5.7966,5.7559,5.7559,5.7369,5.7342,5.7694,5.7966,5.8237,5.8612,5.8639,5.8536,5.8129,5.7559,5.7206,5.7206,5.7206,5.727,5.7496,5.7303,5.7206,5.7206,5.7206,5.7206,5.7206,5.7206,5.7206,5.7206,5.7206,5.7206,5.7206,5.7206,5.7206,4.8762,4.9387,4.9955,5.0623,5.1763,5.277,5.2967,5.3164,5.3782,5.544,5.5945,5.662,5.8278,5.8446,5.8786,6.0315,6.0253,6.0759,6.2826,6.2797,6.3051,6.4496,6.4644,6.474,6.4996,6.4996,6.4996,6.4996,6.4996,6.4996,0.0,6.4996,6.4996,6.4996,6.4996,6.4996,6.4996,6.4996,6.4996,6.4996,6.4996,6.4996,6.4996,6.4996,6.4996,6.4996,6.4996,6.4868,6.4644,6.4515,6.3997,6.3183,6.2748,6.2482,6.2415,6.2515,6.2682,6.2876,6.2615,6.2548,6.2415,6.1709,6.1335,6.1041,6.0437,5.9507,5.8747,5.8964,5.8455,5.7857,5.8047,5.7803,5.7694,5.8503,5.872,5.8802,5.9209,5.8964,5.8639,5.8428,5.7716,5.7206,5.7206,5.7206,5.7342,5.7749,5.8156,5.8482,5.8666,5.8883,5.8693,5.7912,5.745,5.7206,5.7206,5.7206,5.7303,5.7528,5.7335,5.7238,5.7335,5.7238,5.7206,5.7206,5.7206,5.7206,5.7206,5.7206,5.7206,5.7206,5.7206,5.7206,4.9611,5.0022,5.065,5.1264,5.2072,5.2883,5.3557,5.4176,5.4934,5.617,5.6957,5.7772,5.898,5.8699,5.902,6.1228,6.1093,6.1602,6.4127,6.3936,6.3861,6.4877,6.4996,6.4996,6.4996,6.4996,6.4996,6.4996,6.4996,6.4996,0.0,6.4996,6.4996,6.4996,6.4996,6.4996,6.4996,6.4996,6.4996,6.4996,6.4996,6.4996,6.4996,6.4996,6.4996,6.4996,6.4996,6.4996,6.4996,6.4644,6.3867,6.2919,6.2919,6.2687,6.2448,6.2781,6.2909,6.2909,6.2909,6.2909,6.2781,6.2052,6.1402,6.0662,5.9382,5.8585,5.7993,5.7396,5.7233,5.7336,5.7966,5.8102,5.8102,5.8102,5.8102,5.8428,5.9616,5.8943,5.8292,5.8883,5.8015,5.7206,5.7206,5.7206,5.7206,5.7233,5.8232,5.8774,5.8183,5.8645,5.853,5.7342,5.7206,5.7206,5.7206,5.7206,5.7206,5.7206,5.7206,5.7335,5.7688,5.7367,5.7206,5.7206,5.7206,5.7206,5.7206,5.7206,5.7206,5.7206,5.7206,5.7206,5.0189,5.0348,5.0498,5.1958,5.2855,5.3698,5.4709,5.5102,5.5721,5.7407,5.7884,5.8278,5.9064,5.8912,5.9295,6.126,6.1442,6.2076,6.4192,6.4127,6.4144,6.4909,6.4996,6.4996,6.4996,6.4996,6.4996,6.4996,6.4996,6.4996,0.0,6.4996,6.4996,6.4996,6.4996,6.4996,6.4996,6.4996,6.4996,6.4996,6.4996,6.4996,6.4996,6.4996,6.4996,6.4996,6.4996,6.4996,6.4996,6.4644,6.416,6.3582,6.3348,6.3051,6.2753,6.2853,6.2914,6.2876,6.2615,6.2682,6.2715,6.1777,6.1504,6.1296,6.0014,5.9514,5.9269,5.8639,5.8476,5.8503,5.8693,5.872,5.8645,5.821,5.8102,5.821,5.8563,5.8346,5.8156,5.8346,5.7749,5.7206,5.7206,5.7206,5.7342,5.7776,5.8156,5.8482,5.8693,5.8503,5.8237,5.7885,5.745,5.7206,5.7206,5.7206,5.7303,5.7528,5.7335,5.7238,5.7335,5.7238,5.7206,5.7206,5.7206,5.7206,5.7206,5.7206,5.7206,5.7206,5.7206,5.7206,5.0243,5.0624,5.1028,5.2239,5.3108,5.4147,5.5861,5.6451,5.6959,5.8264,5.8595,5.8845,5.949,5.9357,5.9709,6.1323,6.2061,6.2838,6.4098,6.4597,6.4845,6.497,6.4996,6.4996,6.4996,6.4996,6.4996,6.4996,6.4996,6.4996,0.0,6.4996,6.4996,6.4996,6.4996,6.4996,6.4996,6.4996,6.4996,6.4996,6.4996,6.4996,6.4996,6.4996,6.4996,6.4996,6.4996,6.4996,6.4996,6.4772,6.4483,6.4131,6.3932,6.3512,6.3117,6.3117,6.3013,6.2876,6.2648,6.2715,6.2748,6.1783,6.1449,6.124,6.0205,5.9724,5.9453,5.91,5.8992,5.9073,5.929,5.9182,5.8856,5.8237,5.8292,5.8482,5.8482,5.8265,5.8183,5.8428,5.7993,5.7559,5.7559,5.7743,5.8042,5.8428,5.8482,5.8699,5.9263,5.8829,5.8482,5.8482,5.8123,5.7798,5.7586,5.7559,5.7542,5.7491,5.7303,5.7238,5.7367,5.727,5.7206,5.7206,5.7206,5.7206,5.7206,5.7206,5.7206,5.7206,5.7206,5.7206,5.0022,5.0902,5.1901,5.2324,5.3247,5.4654,5.6903,5.7973,5.8544,5.8788,5.9056,5.9423,6.004,6.001,6.0268,6.1486,6.2829,6.3809,6.411,6.5224,6.5792,6.5158,6.5034,6.4973,6.5028,6.5028,6.506,6.506,6.5092,0.0,0.0,6.5092,6.5092,6.5092,6.5092,6.5092,6.5092,6.5092,6.5092,6.5092,6.5092,6.5092,6.506,6.5028,6.4996,6.4996,6.4996,6.4996,6.4996,6.4996,6.4804,6.4515,6.4512,6.4062,6.3446,6.3413,6.3211,6.2909,6.2909,6.2909,6.2781,6.2052,6.143,6.0855,6.0123,5.9561,5.9127,5.9019,5.9073,5.929,5.9751,5.9534,5.9019,5.8428,5.8639,5.8992,5.8992,5.8557,5.8346,5.8883,5.8503,5.8129,5.8183,5.8585,5.8937,5.8992,5.8992,5.9209,5.9751,5.9344,5.8992,5.8992,5.8964,5.872,5.8237,5.8075,5.7803,5.7314,5.7287,5.7416,5.777,5.7394,5.7206,5.7238,5.7206,5.7206,5.7206,5.7206,5.7206,5.7206,5.7206,5.7233,5.0155,5.1038,5.2068,5.3136,5.5163,5.7002,5.7326,5.8649,5.9657,5.9194,5.9369,5.9637,5.9763,6.059,6.1429,6.2249,6.371,6.4874,6.5407,6.5737,6.5882,6.5794,6.5318,6.5011,6.5002,6.5222,6.538,6.538,6.563,0.0,6.5788,6.5788,6.5788,6.5788,6.5788,6.5788,6.5788,6.5788,6.5788,0.0,6.5788,6.5662,6.538,6.5124,6.4996,6.4996,6.4996,6.4996,6.4996,6.4996,6.4964,6.4868,6.4579,6.4224,6.3834,6.3512,6.3211,6.2909,6.2909,6.2909,6.2781,6.2052,6.1706,6.1378,6.026,6.0165,6.0247,5.9263,5.967,6.0355,5.9968,6.0165,6.0274,5.9676,5.9236,5.8992,5.8992,5.891,5.8829,5.8964,5.8503,5.8265,5.872,5.8503,5.8455,5.8937,5.8992,5.9046,5.9182,5.9073,5.8992,5.8992,5.8557,5.8455,5.8774,5.7933,5.7559,5.7885,5.7912,5.8075,5.84,5.7612,5.7303,5.7592,5.7335,5.7206,5.7206,5.7206,5.7206,5.7206,5.7206,5.745,5.0705,5.1649,5.2657,5.4374,5.6648,5.8454,5.8349,5.9751,6.0896,6.0228,6.0257,6.0561,6.1165,6.1673,6.2204,6.2736,6.4038,6.5109,6.5413,6.5982,6.6402,6.6449,6.6148,6.5965,6.5948,6.6103,6.6228,6.6228,6.6382,6.6413,6.6257,6.6382,6.6319,6.6007,6.6319,6.6319,6.6007,6.6164,6.6164,6.6007,6.6007,6.5819,6.5475,6.5126,6.4996,6.4996,6.4996,6.4996,6.4996,6.4996,6.4996,6.4964,6.4612,6.4289,6.3965,6.3545,6.3211,6.2909,6.2909,6.2909,6.2814,6.2253,6.2086,6.1929,6.1088,6.1028,6.1165,6.0535,6.0674,6.0975,6.0648,6.0675,6.0735,6.041,6.0111,5.9778,5.948,5.9426,5.9426,5.9426,5.9154,5.9079,5.9371,5.9432,5.9514,5.9806,5.986,5.986,5.986,5.986,5.9751,5.9453,5.9127,5.8998,5.8992,5.815,5.7776,5.8075,5.783,5.7959,5.8604,5.7724,5.7471,5.8126,5.753,5.7206,5.7206,5.7206,5.7206,5.7206,5.7206,5.7396,5.1062,5.2207,5.3416,5.5508,5.757,5.919,5.938,6.0792,6.1909,6.1555,6.1406,6.1702,6.2849,6.2905,6.2875,6.3284,6.4371,6.5177,6.5168,6.6154,6.6909,6.6973,6.7002,6.6971,6.7,6.706,6.7091,6.7091,6.7152,6.706,6.6784,6.7029,6.6937,6.6351,6.6876,6.6907,6.6351,6.6629,6.6629,6.6351,6.6288,6.607,6.5664,6.5346,6.5124,6.4996,6.4996,6.4996,6.4996,6.4996,6.4964,6.49,6.4612,6.4257,6.3867,6.3512,6.3211,6.2909,6.2909,6.2909,6.2814,6.2515,6.2381,6.2315,6.1918,6.1734,6.1678,6.1694,6.1457,6.1159,6.1207,6.0995,6.0817,6.0817,6.0817,6.0654,6.0165,6.0084,6.0084,6.0084,6.0084,5.9996,5.9914,6.041,6.0817,6.0817,6.0817,6.0817,6.0817,6.0817,6.0627,6.0138,5.9941,5.9697,5.9209,5.8536,5.8156,5.8265,5.7901,5.8021,5.8788,5.8324,5.8248,5.8761,5.7721,5.726,5.7369,5.726,5.7206,5.7206,5.7206,5.7287,5.0104,5.2033,5.4262,5.565,5.7369,5.8984,5.9887,6.1086,6.2215,6.2926,6.267,6.2528,6.3268,6.3581,6.3944,6.4637,6.5334,6.5793,6.5801,6.6441,6.6884,6.6909,6.6911,6.6944,6.7,6.7274,6.7426,6.7426,6.7699,6.785,6.7819,6.785,6.7819,6.7729,6.7819,6.7819,6.7729,6.7789,6.7789,6.7729,6.7457,6.6968,6.6351,6.6007,6.5536,6.4996,6.4996,6.4996,6.4996,6.4996,6.4836,6.4547,6.4544,6.4095,6.3479,6.3413,6.3211,6.2909,6.2909,6.2909,6.2814,6.2515,6.2381,6.2315,6.1918,6.143,6.1059,6.1307,6.098,6.0544,6.0818,6.0851,6.0817,6.0817,6.0817,6.079,6.0708,6.0681,6.0681,6.0681,6.0681,6.0518,5.9968,6.041,6.0817,6.0817,6.0817,6.0817,6.0817,6.0817,6.0762,6.0708,6.0219,5.986,5.9778,5.8753,5.8319,5.8856,5.9369,5.9577,5.9413,6.0663,6.0718,5.9391,5.7939,5.7477,5.7993,5.745,5.7206,5.7206,5.7206,5.7504,5.1144,5.2931,5.4684,5.5965,5.8201,6.0162,6.0588,6.2215,6.3626,6.3672,6.3791,6.406,6.4727,6.4614,6.4713,6.5386,6.5428,6.5472,6.5842,6.615,6.6467,6.6884,6.7223,6.732,6.6964,6.7752,6.8116,6.775,6.8233,6.8417,6.8238,6.8387,6.8175,6.7423,6.8115,6.8145,6.7393,6.7936,6.8149,6.8,6.785,6.7548,6.706,6.6537,6.5819,6.4996,6.4996,6.4996,6.4996,6.4996,6.4932,6.4772,6.4547,6.4192,6.3708,6.3479,6.3211,6.2909,6.2909,6.2909,6.2909,6.2715,6.2682,6.2648,6.2482,6.2253,6.1963,6.1775,6.1603,6.143,6.0978,6.0988,6.1029,6.0851,6.0927,6.1063,6.1063,6.0927,6.0817,6.0817,6.1438,6.1632,6.06,6.128,6.1681,6.0892,6.0831,6.0714,6.0335,5.9996,5.9643,5.9324,5.9052,5.8889,5.8889,5.8429,5.841,5.9013,5.9358,5.9643,5.9897,6.0245,6.025,5.9852,5.8783,5.8193,5.8102,5.7504,5.7206,5.7206,5.7206,5.7342,5.176,5.3327,5.4738,5.5965,5.8483,6.0818,6.1253,6.3044,6.4534,6.4211,6.4552,6.5103,6.578,6.5503,6.5319,6.5811,6.5626,6.5472,6.5626,6.5934,6.6273,6.6611,6.7383,6.7629,6.6981,6.7966,6.8458,6.7937,6.8366,6.8555,6.829,6.8526,6.8131,6.693,6.7887,6.7979,6.7173,6.8081,6.8447,6.8239,6.8239,6.7999,6.7578,6.7061,6.6352,6.5475,6.5155,6.506,6.5124,6.506,6.4996,6.4964,6.4612,6.4224,6.3834,6.3512,6.3211,6.2909,6.2909,6.2909,6.2909,6.2909,6.2909,6.2909,6.2909,6.2797,6.26,6.2192,6.2134,6.2008,6.1309,6.1283,6.137,6.1132,6.1193,6.1347,6.1411,6.1302,6.1173,6.1009,6.2008,6.2498,6.1286,6.2075,6.2498,6.1252,6.1109,6.085,6.004,5.9697,5.9199,5.8406,5.8483,5.8462,5.8102,5.8149,5.842,5.9082,5.9308,5.9651,6.0145,6.0194,6.0172,6.01,5.9627,5.8925,5.8102,5.7666,5.7367,5.7206,5.7367,5.7367,5.0802,5.2512,5.4345,5.5309,5.7642,6.0112,6.1676,6.2989,6.406,6.4737,6.486,6.5103,6.578,6.5873,6.5873,6.5903,6.6396,6.6365,6.5134,6.6057,6.6642,6.6027,6.7075,6.7629,6.6981,6.7537,6.7937,6.7906,6.7937,6.7937,6.7908,6.7937,6.7629,6.6924,6.6983,6.7291,6.7846,6.8521,6.886,6.886,6.886,6.8505,6.7879,6.7849,6.7517,6.6845,6.5538,6.5158,6.5443,6.5126,6.4996,6.4964,6.4612,6.4062,6.3413,6.3413,6.3211,6.2909,6.2909,6.2909,6.2909,6.2909,6.2909,6.2909,6.2909,6.2488,6.2085,6.232,6.1936,6.1502,6.1724,6.1761,6.1783,6.1755,6.1575,6.1464,6.1712,6.208,6.2148,6.1502,6.2201,6.2656,6.1935,6.2427,6.2656,6.1935,6.1856,6.1403,6.0164,6.051,6.0385,5.907,5.9506,5.9391,5.8222,5.8107,5.8401,5.9077,5.9695,6.0079,6.0108,6.1901,6.2021,6.0132,6.0072,5.9435,5.8102,5.815,5.7816,5.7206,5.7848,5.7816,5.0746,5.2173,5.3749,5.4681,5.6999,5.9428,6.1076,6.2682,6.3998,6.4764,6.4888,6.498,6.5226,6.5626,6.6057,6.6488,6.6765,6.6706,6.6273,6.6242,6.618,6.5934,6.6334,6.6365,6.5688,6.6611,6.7075,6.6673,6.7014,6.726,6.726,6.726,6.6952,6.6273,6.6704,6.7198,6.7875,6.8551,6.8919,6.8919,6.8919,6.8772,6.8505,6.7939,6.7517,6.7244,6.5691,6.5439,6.6132,6.5788,6.5367,6.5015,6.5108,6.4451,6.349,6.3696,6.3409,6.2909,6.2909,6.2909,6.2909,6.2909,6.2909,6.2909,6.2909,6.2906,6.276,6.207,6.2139,6.2203,6.1256,6.1641,6.2347,6.2707,6.275,6.277,6.3127,6.3315,6.3051,6.1907,6.2746,6.3218,6.2085,6.253,6.2619,6.1494,6.1352,6.0917,5.9571,5.9307,5.8833,5.7923,5.8053,5.8106,5.7883,5.8242,5.8757,5.9451,6.0106,6.0569,6.0782,6.1502,6.1318,6.0197,5.9951,5.9711,5.9399,5.8598,5.8198,5.8166,5.842,5.8293,5.0703,5.2078,5.3629,5.4753,5.6868,5.9155,6.0856,6.2348,6.3613,6.4675,6.4703,6.4611,6.4857,6.5442,6.5965,6.6211,6.6611,6.6765,6.6304,6.6057,6.5811,6.5596,6.578,6.5657,6.498,6.5903,6.6396,6.5934,6.6334,0.0,6.6581,6.6581,6.6365,6.5903,6.655,6.7198,6.7875,6.8551,6.8919,6.8919,6.8919,6.8919,6.8889,6.8238,6.7969,6.7879,6.6432,6.5947,6.6118,6.5571,6.5273,6.5157,6.504,6.4595,6.3974,6.3858,6.3507,6.3079,6.3079,6.3079,6.3079,6.3211,6.3277,6.3277,6.3277,6.3442,6.3411,6.2359,6.2516,6.2726,6.1677,6.2185,6.3074,6.337,6.3598,6.3753,6.3711,6.3909,6.3769,6.2656,6.3281,6.3723,6.2769,6.3032,6.3029,6.1886,6.1551,6.0967,5.963,5.8895,5.8293,5.7592,5.7528,5.7528,5.7528,5.7944,5.8546,5.9301,5.9889,6.0438,6.1013,6.1133,6.0982,6.0529,6.0073,6.0024,6.0294,5.9245,5.8704,5.8704,5.8924,5.8735,0.0,0.0,0.0,5.5486,5.7247,5.9121,6.1014,6.1895,6.2812,6.4525,6.4275,6.4029,6.4764,6.5442,6.5657,6.5011,6.6027,6.6457,6.5134,6.5503,6.5657,6.5011,6.5503,6.5626,6.4949,6.5503,6.5873,6.5873,6.5873,6.5873,6.5873,6.5873,6.5873,6.5873,6.6519,6.7168,6.7844,6.8551,6.8858,6.8919,6.8919,6.8919,6.8919,6.8889,6.8889,6.8829,6.7801,6.667,6.5436,6.445,6.4629,6.5404,6.4445,6.4447,6.4871,6.3839,6.3446,6.3413,6.3413,6.3413,6.3479,6.3867,6.3997,6.3997,6.3997,6.403,6.3854,6.3193,6.3022,6.2993,6.2993,6.3483,6.3894,6.3613,6.4022,6.4262,6.3366,6.3873,6.4342,6.3619,6.3786,6.4007,6.4007,6.4007,6.3774,6.3196,6.2522,6.1656,6.0365,5.964,5.8986,5.8262,5.8198,5.7912,5.727,5.7206,5.7656,5.8672,5.9021,5.9642,6.0651,6.1013,6.1193,6.1193,6.056,6.0377,6.0681,6.0043,5.9363,5.8767,5.9395,5.9177,5.0766,0.0,0.0,0.0,0.0,0.0,5.9273,6.0234,6.126,6.3394,6.3663,6.381,6.4737,6.5042,6.5103,6.4918,6.6027,6.6768,6.6396,6.6088,6.5842,6.5657,6.5349,6.5103,6.4918,6.5072,6.5165,0.0,6.5165,6.5165,6.5165,6.5165,6.5165,6.5165,6.5842,6.6519,6.7168,6.7843,6.8427,6.8919,6.8919,6.8919,6.8889,6.8654,6.8534,6.8444,6.7019,6.6181,6.5828,6.5292,6.5233,6.5473,6.5195,6.503,6.4988,6.4952,6.4615,6.4192,6.4192,6.403,6.3867,6.3965,6.3997,6.3997,6.3997,6.416,6.4239,6.3546,6.3218,6.3061,6.3061,6.3205,6.3555,6.4373,6.4723,6.4813,6.4532,6.4671,6.4665,6.3996,6.3944,6.4007,6.4007,6.3629,6.3283,6.3138,6.2925,6.2172,6.0344,6.0416,5.9777,5.7711,5.7912,5.8039,5.7592,5.756,5.8103,5.9332,5.9298,5.9763,6.1013,6.0922,6.0952,6.1193,6.0772,6.0621,6.0681,6.0285,5.995,5.9766,5.9732,5.9298,0.0,0.0,0.0,0.0,0.0,0.0,5.8784,5.9452,6.0358,6.3023,6.335,6.3527,6.4675,6.4888,6.4888,6.4888,6.5565,6.6088,6.6088,6.5719,6.5472,6.5472,6.5134,6.4888,6.4888,6.4888,6.4888,6.4888,6.4888,6.4888,6.4888,6.4888,6.5042,6.5319,6.5719,6.6242,6.6891,6.7291,6.7689,6.8058,6.8058,6.8058,6.8058,6.7855,6.7767,6.7706,6.6491,6.5975,6.5916,6.5295,6.5095,6.5223,6.4964,6.4932,6.4987,6.4923,6.4621,6.4329,6.4461,6.4354,6.4257,6.4518,6.4615,6.4615,6.4615,6.4743,6.4755,6.3959,6.3417,6.3167,6.3428,6.3486,6.3748,6.4764,6.4996,6.4996,6.4996,6.4996,6.488,6.4502,6.4181,6.4094,6.4355,6.3861,6.3486,6.3486,6.3268,6.2632,6.1499,6.1194,6.0403,5.8612,5.8525,5.8319,5.7747,5.7816,5.8357,5.9395,5.9578,6.004,6.0952,6.0952,6.1013,6.1193,6.1013,6.0922,6.0922,6.056,6.0347,6.0194,6.001,5.9609,0.0,0.0,0.0,0.0,0.0,0.0,5.8844,5.9138,5.9814,6.2802,6.2998,6.3022,6.4371,6.4617,6.4645,6.4672,6.4734,6.4795,6.4888,6.4888,6.4888,6.4888,6.4888,6.4888,6.4888,6.4888,6.4888,6.4888,6.4888,6.4888,6.4888,6.4888,6.5165,6.578,6.578,6.6119,6.6768,6.6796,6.6858,6.6891,6.6891,6.6891,6.6891,6.6891,6.6891,6.686,6.6211,6.5903,6.5814,6.4855,6.4638,6.4905,6.4299,6.4485,6.4994,6.4398,6.4164,6.4157,6.4419,6.4522,6.4644,6.5227,6.5448,6.5507,6.5507,6.5507,6.5266,6.4275,6.36,6.3312,6.3774,6.3949,6.4152,6.4764,6.4938,6.4996,6.4996,6.4996,6.4996,6.4996,6.4532,6.4297,6.488,6.4532,6.4123,6.4123,6.3619,6.3169,6.3099,6.2102,6.1055,6.0129,5.9687,5.9013,5.7985,5.83,5.8804,5.9464,6.0055,6.0547,6.0972,6.1157,6.1279,6.1309,6.1192,6.1133,6.1133,6.0862,6.056,6.0255,6.0224,6.001,0.0,0.0,0.0,0.0,0.0,0.0,5.7472,5.8159,5.918,6.0859,6.1288,6.1652,6.2693,6.2901,6.2955,6.3171,6.366,6.4214,6.4826,6.4888,6.4888,6.4888,6.4888,6.4888,6.4888,6.4888,6.4888,6.4888,6.4888,6.4888,6.4888,6.4888,6.4949,6.5103,6.5103,6.5411,6.6088,6.6119,6.6365,6.6891,6.6891,6.6891,6.6891,6.6891,6.6891,6.686,6.6211,6.5903,6.5842,6.5109,6.5009,6.525,6.4619,6.4808,6.5381,6.5257,6.5065,6.4787,6.4562,6.4687,6.4877,6.4764,6.5065,6.5507,6.5507,6.5507,6.5266,6.4275,6.392,6.3745,6.337,6.3629,6.4036,6.4152,6.4619,6.4996,6.4996,6.4996,6.4996,6.4996,6.488,6.4851,6.4967,6.488,6.4793,6.4793,6.4697,6.4243,6.3166,6.3267,6.246,5.9966,6.078,6.09,5.936,6.0034,6.0794,6.1491,6.1425,6.1708,6.2579,6.1903,6.1645,6.1919,6.1184,6.0772,6.0772,6.0712,6.0651,6.059,6.0347,6.001,0.0,0.0,0.0,5.5428,0.0,0.0,0.0,5.8245,5.9036,6.0688,6.0848,6.0947,6.1753,6.2009,6.2142,6.2275,6.3137,6.3814,6.3872,6.4457,6.4888,6.4888,6.4888,6.4888,6.4888,6.4888,6.4888,6.4888,6.4888,6.4888,6.4888,6.4888,6.4888,6.4888,6.4888,6.5072,6.5411,6.5411,6.5565,6.5903,6.5903,6.5903,6.5903,6.5903,6.5903,6.5903,6.5565,6.5411,6.538,6.5042,6.502,6.5072,6.4479,6.4462,6.4709,6.4397,6.4274,6.4272,6.446,6.4744,6.507,6.5382,6.5713,6.5947,6.5819,6.5302,6.4666,6.4157,6.3774,6.3632,6.3951,6.4038,6.4094,6.4413,6.4764,6.4996,6.4996,6.4996,6.4996,6.4996,6.4996,6.4996,6.4996,6.4996,6.4996,6.4996,6.4996,6.4755,6.4086,6.3991,6.3305,6.1476,6.1769,6.1687,6.0677,6.1214,6.1734,6.2079,6.2268,6.2344,6.2338,6.2051,6.191,6.2093,6.1332,6.1006,6.1171,6.0854,6.0621,6.0438,6.0285,6.0102,0.0,0.0,0.0,0.0,0.0,5.6706,0.0,0.0,0.0,6.0457,6.0429,6.0294,6.0844,6.1269,6.1511,6.144,6.2522,6.3168,6.2491,6.3626,6.4549,6.4672,6.4826,6.4888,6.4888,6.4764,6.4764,6.4888,6.4764,6.4764,6.4888,6.4888,6.4888,6.4888,6.4888,6.4888,6.4888,6.4888,6.4888,6.4888,6.4888,6.4888,6.4888,6.4888,6.4888,6.4888,6.4888,6.4888,6.4888,6.4888,6.4888,6.4832,6.4303,6.4075,6.4025,6.3533,6.3417,6.3595,6.4201,6.4582,6.4918,6.5757,6.6027,6.5995,6.5772,6.4829,6.3864,6.396,6.3761,6.3644,6.4576,6.4605,6.4455,6.4737,6.4909,6.4996,6.4996,6.488,6.4851,6.4967,6.488,6.4851,6.4967,6.4996,6.4996,6.4996,6.4996,6.4996,6.4996,6.4532,6.3901,6.3185,6.2813,6.246,6.2025,6.2368,6.2644,6.2672,6.3176,6.3043,6.2099,6.2201,6.2238,6.2093,6.1478,6.1208,6.1307,6.0788,6.0438,6.0285,6.0163,6.0163,0.0,0.0,0.0,0.0,5.7457,0.0,0.0,0.0,5.8572,5.8481,0.0,5.9184,5.9244,0.0,0.0,6.0091,6.1163,6.1809,6.1132,6.221,6.326,6.3845,6.4518,6.4888,6.4888,6.4334,6.4183,6.4857,6.4275,6.4214,6.4857,6.4888,6.4888,6.4888,6.4888,6.4888,6.4888,6.4888,6.4888,6.4888,6.4888,6.4888,6.4888,6.4888,6.4888,6.4888,6.4888,6.4888,6.4888,6.4888,6.4888,6.486,6.4496,6.4354,6.4361,6.4289,6.3948,6.3535,6.3915,6.4089,6.412,6.4329,6.4359,6.4415,6.4606,6.397,6.332,6.3845,6.4381,6.4676,6.4234,6.4941,6.549,6.4396,6.459,6.4996,6.4996,6.4532,6.4268,6.488,6.4532,6.4297,6.488,6.4996,6.4996,6.4996,6.4996,6.4996,6.4996,6.4909,6.452,6.3529,6.4188,6.4277,6.3351,6.4159,6.4668,6.4668,6.4732,6.4473,6.3741,6.3252,6.2703,6.2093,6.1453,6.0858,6.0341,5.9977,6.0071,6.0621,6.001,5.9917,0.0,0.0,0.0,0.0,0.0,0.0,0.0,0.0,5.7727,0.0,0.0,0.0,0.0,0.0,0.0,0.0,6.0671,6.1388,6.0156,6.1142,6.23,6.311,6.3502,0.0,6.4214,6.3968,6.4091,6.4826,6.4241,6.4122,6.4857,6.4888,6.4888,6.4888,6.4888,6.4888,6.4888,6.4888,6.4888,6.4888,6.4888,6.4888,6.4888,6.4888,6.4888,6.4888,6.4888,6.4888,6.4888,6.4888,6.4888,6.4888,6.4749,6.4579,6.43,6.3607,6.3765,6.4331,6.3917,6.4365,6.5172,6.5142,6.5293,6.5323,6.4696,6.3799,6.308,6.3352,6.3377,6.3424,6.3859,6.4414,6.4821,6.4624,6.4793,6.4996,6.4996,6.4764,6.4677,6.4938,6.4764,6.4677,6.4938,6.4996,6.4996,6.4996,6.4996,6.4996,6.4996,6.4677,6.441,6.437,6.4091,6.4004,6.4341,6.4407,6.4494,6.4679,6.4332,6.4078,6.4007,6.3051,6.2558,6.2674,6.149,6.0807,6.0708,6.0396,6.0194,6.0102,5.9823,5.9792,5.8507,0.0,0.0,0.0,0.0,0.0,0.0,0.0,0.0,0.0,0.0,0.0,0.0,0.0,0.0,0.0,0.0,6.0888,5.9328,6.0128,6.1072,6.1694,0.0,0.0,0.0,6.3352,6.3537,6.4272,6.3656,6.3629,6.4549,6.4611,6.4703,6.4888,6.4888,6.4888,6.4888,6.4888,6.4888,6.4888,6.4888,6.4888,6.4888,6.4888,6.4888,6.4888,6.4888,6.4888,6.4888,6.4888,6.4888,6.4888,6.4888,6.4749,6.444,6.3535,6.3867,6.4639,6.413,6.4665,6.5577,6.5605,6.5611,6.5468,6.4627,6.374,6.3032,6.3209,6.3091,6.3114,6.4015,6.4392,6.4623,6.4917,6.4996,6.4996,6.4996,6.4851,6.4764,6.4938,6.4851,6.4793,6.4967,6.4996,6.4996,6.4996,6.4996,6.4996,6.4996,6.459,6.4473,6.4938,6.4154,6.398,6.4909,6.4561,6.4376,6.4615,6.3832,6.3552,6.4007,6.2964,6.2499,6.2819,6.1758,6.1104,6.0851,6.0509,6.0064,5.9575,5.9745,5.9747,0.0,0.0,0.0,5.9283,0.0,0.0,0.0,0.0,5.8741,0.0,0.0,0.0,0.0,0.0,0.0,0.0,0.0,0.0,0.0,0.0,5.9382,5.9149,0.0,0.0,0.0,6.2271,6.2148,6.2798,6.224,6.2456,6.3752,6.3845,6.4152,6.4888,6.4888,6.4888,6.4888,6.4888,6.4888,6.4888,6.4888,6.4888,6.4888,6.4888,6.4888,6.4888,6.4888,6.4888,6.4888,6.4888,6.4888,6.4888,6.4888,6.4888,6.486,6.4832,6.4471,6.4025,6.4636,6.4705,6.4502,6.4849,6.4339,6.366,6.3944,6.3529,6.3135,6.3708,6.4363,6.4885,6.4904,6.5353,6.5705,6.5139,6.4996,6.4996,6.4996,6.4502,6.421,6.4851,6.4502,6.4239,6.488,6.4996,6.4996,6.4996,6.4996,6.4996,6.4996,6.4967,6.4967,6.4996,6.4938,6.4938,6.4996,6.4967,6.4967,6.4996,6.3806,6.3368,6.3978,6.3399,6.2761,6.2122,6.2394,6.1796,6.0253,5.9884,5.9544,5.9233,5.9823,5.9952,0.0,0.0,6.0656,5.9767,0.0,0.0,0.0,0.0,0.0,0.0,0.0,0.0,0.0,0.0,0.0,0.0,0.0,0.0,0.0,0.0,5.7516,5.8476,0.0,0.0,0.0,0.0,6.2086,6.2737,6.2179,6.221,6.3075,6.3568,6.3906,6.4152,6.4641,6.4888,6.4888,6.4888,6.4888,6.4888,6.4888,6.4888,6.4888,6.4888,6.4888,6.4888,6.4888,6.4888,6.4888,6.4888,6.4888,6.4888,6.4888,6.4888,6.4832,6.4412,6.4659,6.5256,6.5501,6.5496,6.5363,6.5026,6.4704,6.4514,6.4556,6.383,6.3134,6.3734,6.3485,6.3267,6.4099,6.418,6.422,6.4862,6.4996,6.4996,6.4996,6.4822,6.4735,6.4938,6.4822,6.4735,6.4938,6.4996,6.4996,6.4996,6.4996,6.4996,6.4996,6.4996,6.4996,6.4996,6.4619,6.4532,6.4938,6.459,6.4326,6.4326,6.3574,6.3196,6.3399,6.279,6.2529,6.2761,6.1816,6.1161,6.0794,6.0452,5.9911,5.9202,5.982,5.9826,6.1199,6.1032,0.0,6.0301,6.0019,0.0,5.9032,0.0,0.0,0.0,0.0,0.0,0.0,0.0,0.0,0.0,0.0,0.0,0.0,5.7273,0.0,0.0,0.0,0.0,0.0,6.1146,6.1274,6.2029,6.1471,6.1502,0.0,6.2829,6.3291,6.3783,6.4245,6.4641,6.4888,6.4888,6.4888,6.4888,6.4888,6.4888,6.4888,6.4888,6.4888,6.4888,6.4888,6.4888,6.4888,6.4888,6.4888,6.4888,6.4888,6.4888,6.4832,6.4412,6.4799,6.5534,6.5534,6.5386,6.5172,6.497,6.4774,6.4625,6.4565,6.4132,6.3766,6.4179,6.3544,6.2969,6.4069,6.388,6.3621,6.445,6.4822,6.4996,6.4996,6.4996,6.4996,6.4996,6.4996,6.4996,6.4996,6.4996,6.4996,6.4996,6.4996,6.4996,6.4996,6.4793,6.4648,6.4648,6.4067,6.3864,6.427,6.3951,6.3658,6.3658,6.308,6.2732,6.2732,6.2325,6.2235,6.2547,6.1553,6.1014,6.0921,6.0475,5.9911,5.9202,5.982,5.9763]}]]